[[{"header":{"parameterUnit":"m.s-1","parameterCategory":1,"la1":30.6,"la2":28.766,"lo1":-90.7593,"lo2":-88.6598,"dy":0.0162,"dx":0.0183,"nx":116,"ny":114,"refTime":"2024-03-22T12:00:00:Z","depth":0,"parameterNumber":2,"parameterNumberName":"U-component_of_WINDS"},"data":[0.0,0.0,0.0,0.0,0.0,0.0,0.0,0.0,0.0,0.0,0.0,0.0,0.0,0.0,0.0,0.0,0.0,0.0,0.0,0.0,0.0,0.0,0.0,0.0,0.0,0.0,0.0,0.0,0.0,0.0,0.0,0.0,0.0,0.0,0.0,0.0,0.0,0.0,0.0,0.0,0.0,0.0,0.0,0.0,0.0,0.0,0.0,0.0,0.0,0.0,0.0,0.0,0.0,0.0,0.0,0.0,0.0,0.0,0.0,0.0,0.0,0.0,0.0,0.0,0.0,0.0,0.0,0.0,0.0,0.0,0.0,0.0,0.0,0.0,0.0,0.0,0.0,0.0,0.0,0.0,0.0,0.0,0.0,0.0,0.0,0.0,0.0,0.0,0.0,0.0,0.0,0.0,0.0,0.0,0.0,0.0,0.0,0.0,0.0,0.0,0.0,0.0,0.0,0.0,0.0,0.0,0.0,0.0,0.0,0.0,0.0,0.0,0.0,0.0,0.0,0.0,0.0,0.0,0.0,0.0,0.0,0.0,0.0,0.0,0.0,0.0,0.0,0.0,0.0,0.0,0.0,0.0,0.0,0.0,0.0,0.0,0.0,0.0,0.0,0.0,0.0,0.0,0.0,0.0,0.0,0.0,0.0,0.0,0.0,0.0,0.0,0.0,0.0,0.0,0.0,0.0,0.0,0.0,0.0,0.0,0.0,0.0,0.0,0.0,0.0,0.0,0.0,0.0,0.0,0.0,0.0,0.0,0.0,0.0,0.0,0.0,0.0,0.0,0.0,0.0,0.0,0.0,0.0,0.0,0.0,0.0,0.0,0.0,0.0,0.0,0.0,0.0,0.0,0.0,0.0,0.0,0.0,0.0,0.0,0.0,0.0,0.0,0.0,0.0,0.0,0.0,0.0,0.0,0.0,0.0,0.0,0.0,0.0,0.0,0.0,0.0,0.0,0.0,0.0,0.0,0.0,0.0,0.0,0.0,0.0,0.0,0.0,0.0,0.0,0.0,0.0,0.0,0.0,0.0,0.0,0.0,0.0,0.0,0.0,0.0,0.0,0.0,0.0,0.0,0.0,0.0,0.0,0.0,0.0,0.0,0.0,0.0,0.0,0.0,0.0,0.0,0.0,0.0,0.0,0.0,0.0,0.0,0.0,0.0,0.0,0.0,0.0,0.0,0.0,0.0,0.0,0.0,0.0,0.0,0.0,0.0,0.0,0.0,0.0,0.0,0.0,0.0,0.0,0.0,0.0,0.0,0.0,0.0,0.0,0.0,0.0,0.0,0.0,0.0,0.0,0.0,0.0,0.0,0.0,0.0,0.0,0.0,0.0,0.0,0.0,0.0,0.0,0.0,0.0,0.0,0.0,0.0,0.0,0.0,0.0,0.0,0.0,0.0,0.0,0.0,0.0,0.0,0.0,0.0,0.0,0.0,0.0,0.0,0.0,0.0,0.0,0.0,0.0,0.0,0.0,0.0,0.0,0.0,0.0,0.0,0.0,0.0,0.0,0.0,0.0,0.0,0.0,0.0,0.0,0.0,0.0,0.0,0.0,0.0,0.0,0.0,0.0,0.0,0.0,0.0,0.0,0.0,0.0,0.0,0.0,0.0,0.0,0.0,0.0,0.0,0.0,0.0,0.0,0.0,0.0,0.0,0.0,0.0,0.0,0.0,0.0,0.0,0.0,0.0,0.0,0.0,0.0,0.0,0.0,0.0,0.0,0.0,0.0,0.0,0.0,0.0,0.0,0.0,0.0,0.0,0.0,0.0,0.0,0.0,0.0,0.0,0.0,0.0,0.0,0.0,0.0,0.0,0.0,0.0,0.0,0.0,0.0,0.0,0.0,0.0,0.0,0.0,0.0,0.0,0.0,0.0,0.0,0.0,0.0,0.0,0.0,0.0,0.0,0.0,0.0,0.0,0.0,0.0,0.0,0.0,0.0,0.0,0.0,0.0,0.0,0.0,0.0,0.0,0.0,0.0,0.0,0.0,0.0,0.0,0.0,0.0,0.0,0.0,0.0,0.0,0.0,0.0,0.0,0.0,0.0,0.0,0.0,0.0,0.0,0.0,0.0,0.0,0.0,0.0,0.0,0.0,0.0,0.0,0.0,0.0,0.0,0.0,0.0,0.0,0.0,0.0,0.0,0.0,0.0,0.0,0.0,0.0,0.0,0.0,0.0,0.0,0.0,0.0,0.0,0.0,0.0,0.0,0.0,0.0,0.0,0.0,0.0,0.0,0.0,0.0,0.0,0.0,0.0,0.0,0.0,0.0,0.0,0.0,0.0,0.0,0.0,0.0,0.0,0.0,0.0,0.0,0.0,0.0,0.0,0.0,0.0,0.0,0.0,0.0,0.0,0.0,0.0,0.0,0.0,0.0,0.0,0.0,0.0,0.0,0.0,0.0,0.0,0.0,0.0,0.0,0.0,0.0,0.0,0.0,0.0,0.0,0.0,0.0,0.0,0.0,0.0,0.0,0.0,0.0,0.0,0.0,0.0,0.0,0.0,0.0,0.0,0.0,0.0,0.0,0.0,0.0,0.0,0.0,0.0,0.0,0.0,0.0,0.0,0.0,0.0,0.0,0.0,0.0,0.0,0.0,0.0,0.0,0.0,0.0,0.0,0.0,0.0,0.0,0.0,0.0,0.0,0.0,0.0,0.0,0.0,0.0,0.0,0.0,0.0,0.0,0.0,0.0,0.0,0.0,0.0,0.0,0.0,0.0,0.0,0.0,0.0,0.0,0.0,0.0,0.0,0.0,0.0,0.0,0.0,0.0,0.0,0.0,0.0,0.0,0.0,0.0,0.0,0.0,0.0,0.0,0.0,0.0,0.0,0.0,0.0,0.0,0.0,0.0,0.0,0.0,0.0,0.0,0.0,0.0,0.0,0.0,0.0,0.0,0.0,0.0,0.0,0.0,0.0,0.0,0.0,0.0,0.0,0.0,0.0,0.0,0.0,0.0,0.0,0.0,0.0,0.0,0.0,0.0,0.0,0.0,0.0,0.0,0.0,0.0,0.0,0.0,0.0,0.0,0.0,0.0,0.0,0.0,0.0,0.0,0.0,0.0,0.0,0.0,0.0,0.0,0.0,0.0,0.0,0.0,0.0,0.0,0.0,0.0,0.0,0.0,0.0,0.0,0.0,0.0,0.0,0.0,0.0,0.0,0.0,0.0,0.0,0.0,0.0,0.0,0.0,0.0,0.0,0.0,0.0,0.0,0.0,0.0,0.0,0.0,0.0,0.0,0.0,0.0,0.0,0.0,0.0,0.0,0.0,0.0,0.0,0.0,0.0,0.0,0.0,0.0,0.0,0.0,0.0,0.0,0.0,0.0,0.0,0.0,0.0,0.0,0.0,0.0,0.0,0.0,0.0,0.0,0.0,0.0,0.0,0.0,0.0,0.0,0.0,0.0,0.0,0.0,0.0,0.0,0.0,0.0,0.0,0.0,0.0,0.0,0.0,0.0,0.0,0.0,0.0,0.0,0.0,0.0,0.0,0.0,0.0,0.0,0.0,0.0,0.0,0.0,0.0,0.0,0.0,0.0,0.0,0.0,0.0,0.0,0.0,0.0,0.0,0.0,0.0,0.0,0.0,0.0,0.0,0.0,0.0,0.0,0.0,0.0,0.0,0.0,0.0,0.0,0.0,0.0,0.0,0.0,0.0,0.0,0.0,0.0,0.0,0.0,0.0,0.0,0.0,0.0,0.0,0.0,0.0,0.0,0.0,0.0,0.0,0.0,0.0,0.0,0.0,0.0,0.0,0.0,0.0,0.0,0.0,0.0,0.0,0.0,0.0,0.0,0.0,0.0,0.0,0.0,0.0,0.0,0.0,0.0,0.0,0.0,0.0,0.0,0.0,0.0,0.0,0.0,0.0,0.0,0.0,0.0,0.0,0.0,0.0,0.0,0.0,0.0,0.0,0.0,0.0,0.0,0.0,0.0,0.0,0.0,0.0,0.0,0.0,0.0,0.0,0.0,0.0,0.0,0.0,0.0,0.0,0.0,0.0,0.0,0.0,0.0,0.0,0.0,0.0,0.0,0.0,0.0,0.0,0.0,0.0,0.0,0.0,0.0,0.0,0.0,0.0,0.0,0.0,0.0,0.0,0.0,0.0,0.0,0.0,0.0,0.0,0.0,0.0,0.0,0.0,0.0,0.0,0.0,0.0,0.0,0.0,0.0,0.0,0.0,0.0,0.0,0.0,0.0,0.0,0.0,0.0,0.0,0.0,0.0,0.0,0.0,0.0,0.0,0.0,0.0,0.0,0.0,0.0,0.0,0.0,0.0,0.0,0.0,0.0,0.0,0.0,0.0,0.0,0.0,0.0,0.0,0.0,0.0,0.0,0.0,0.0,0.0,0.0,0.0,0.0,0.0,0.0,0.0,0.0,0.0,0.0,0.0,0.0,0.0,0.0,0.0,0.0,0.0,0.0,0.0,0.0,0.0,0.0,0.0,0.0,0.0,0.0,0.0,0.0,0.0,0.0,0.0,0.0,0.0,0.0,0.0,0.0,0.0,0.0,0.0,0.0,0.0,0.0,0.0,0.0,0.0,0.0,0.0,0.0,0.0,0.0,0.0,0.0,0.0,0.0,0.0,0.0,0.0,0.0,0.0,0.0,0.0,0.0,0.0,0.0,0.0,0.0,0.0,0.0,0.0,0.0,0.0,0.0,0.0,0.0,0.0,0.0,0.0,0.0,0.0,0.0,0.0,0.0,0.0,0.0,0.0,0.0,0.0,0.0,0.0,0.0,0.0,0.0,0.0,0.0,0.0,0.0,0.0,0.0,0.0,0.0,0.0,0.0,0.0,0.0,0.0,0.0,0.0,0.0,0.0,0.0,0.0,0.0,0.0,0.0,0.0,0.0,0.0,0.0,0.0,0.0,0.0,0.0,0.0,0.0,0.0,0.0,0.0,0.0,0.0,0.0,0.0,0.0,0.0,0.0,0.0,0.0,0.0,0.0,0.0,0.0,0.0,0.0,0.0,0.0,0.0,0.0,0.0,0.0,0.0,0.0,0.0,0.0,0.0,0.0,0.0,0.0,0.0,0.0,0.0,0.0,0.0,0.0,0.0,0.0,0.0,0.0,0.0,0.0,0.0,0.0,0.0,0.0,0.0,0.0,0.0,0.0,0.0,0.0,0.0,0.0,0.0,0.0,0.0,0.0,0.0,0.0,0.0,0.0,0.0,0.0,0.0,0.0,0.0,0.0,0.0,0.0,0.0,0.0,0.0,0.0,0.0,0.0,0.0,0.0,0.0,0.0,0.0,0.0,0.0,0.0,0.0,0.0,0.0,0.0,0.0,0.0,0.0,0.0,0.0,0.0,0.0,0.0,0.0,0.0,0.0,0.0,0.0,0.0,0.0,0.0,0.0,0.0,0.0,0.0,0.0,0.0,0.0,0.0,0.0,0.0,0.0,0.0,0.0,0.0,0.0,0.0,0.0,0.0,0.0,0.0,0.0,0.0,0.0,0.0,0.0,0.0,0.0,0.0,0.0,0.0,0.0,0.0,0.0,0.0,0.0,0.0,0.0,0.0,0.0,0.0,0.0,0.0,0.0,0.0,0.0,0.0,0.0,0.0,0.0,0.0,0.0,0.0,0.0,0.0,0.0,0.0,0.0,0.0,0.0,0.0,0.0,0.0,0.0,0.0,0.0,0.0,0.0,0.0,0.0,0.0,0.0,0.0,0.0,0.0,0.0,0.0,0.0,0.0,0.0,0.0,0.0,0.0,0.0,0.0,0.0,0.0,0.0,0.0,0.0,0.0,0.0,0.0,0.0,0.0,0.0,0.0,0.0,0.0,0.0,0.0,0.0,0.0,0.0,0.0,0.0,0.0,0.0,0.0,0.0,0.0,0.0,0.0,0.0,0.0,0.0,0.0,0.0,0.0,0.0,0.0,0.0,0.0,0.0,0.0,0.0,0.0,0.0,0.0,0.0,0.0,0.0,0.0,0.0,0.0,0.0,0.0,0.0,0.0,0.0,0.0,0.0,0.0,0.0,0.0,0.0,0.0,0.0,0.0,0.0,0.0,0.0,0.0,0.0,0.0,0.0,0.0,0.0,0.0,0.0,0.0,0.0,0.0,0.0,-2.6172,-2.4867,0.0,0.0,0.0,0.0,0.0,0.0,0.0,0.0,0.0,0.0,0.0,0.0,0.0,0.0,0.0,0.0,0.0,0.0,0.0,0.0,0.0,0.0,0.0,0.0,0.0,0.0,-2.5575,-2.601,-2.6678,-2.6442,0.0,0.0,0.0,0.0,-2.5585,-2.4104,-2.403,-2.5414,-2.4782,-2.5585,-2.7675,-2.6971,-2.5478,-2.3404,0.0,0.0,0.0,0.0,0.0,0.0,0.0,0.0,0.0,0.0,0.0,0.0,0.0,0.0,0.0,0.0,0.0,0.0,0.0,0.0,0.0,0.0,0.0,0.0,0.0,0.0,0.0,0.0,0.0,0.0,0.0,0.0,0.0,0.0,0.0,0.0,0.0,0.0,0.0,0.0,0.0,0.0,0.0,0.0,0.0,0.0,0.0,0.0,0.0,0.0,0.0,0.0,0.0,0.0,0.0,0.0,0.0,0.0,0.0,0.0,0.0,0.0,0.0,0.0,0.0,0.0,0.0,0.0,0.0,0.0,-2.9922,-2.8562,0.0,0.0,0.0,0.0,0.0,0.0,0.0,0.0,0.0,0.0,0.0,0.0,0.0,0.0,0.0,0.0,0.0,0.0,0.0,0.0,0.0,0.0,0.0,-2.451,-2.5317,-2.6187,-2.7144,-2.7753,-2.7869,-2.7753,-2.7773,-2.7951,-2.7306,-2.6899,-2.6782,-2.6069,-2.6144,-2.7034,-2.7115,-2.8409,-3.0846,-3.2014,-3.0066,-2.5597,-2.522,0.0,0.0,0.0,0.0,0.0,0.0,0.0,0.0,0.0,0.0,0.0,0.0,0.0,0.0,0.0,0.0,0.0,0.0,0.0,0.0,0.0,0.0,0.0,0.0,0.0,0.0,0.0,0.0,0.0,0.0,0.0,0.0,0.0,0.0,0.0,0.0,0.0,0.0,0.0,0.0,0.0,0.0,0.0,0.0,0.0,0.0,0.0,0.0,0.0,0.0,0.0,0.0,0.0,0.0,0.0,0.0,0.0,0.0,0.0,0.0,0.0,0.0,0.0,-3.6599,-3.7336,-3.7272,-3.7433,-3.7833,-3.8154,-3.4538,-3.3388,-3.3868,-3.0918,0.0,0.0,0.0,0.0,0.0,0.0,0.0,0.0,0.0,0.0,0.0,0.0,0.0,0.0,0.0,0.0,0.0,0.0,0.0,0.0,0.0,-2.4813,-2.6332,-2.7991,-2.7872,-2.7927,-2.8534,-2.8014,-2.7598,-2.7329,-2.6477,-2.6457,-2.7465,-2.7153,-2.7928,-2.9956,-3.2796,-3.4524,-3.5288,-3.5663,-3.5066,-3.3505,-3.1052,-2.9592,-2.8789,0.0,0.0,0.0,0.0,0.0,0.0,0.0,0.0,0.0,0.0,0.0,0.0,0.0,0.0,0.0,0.0,0.0,0.0,0.0,0.0,0.0,0.0,0.0,0.0,0.0,0.0,0.0,0.0,0.0,0.0,0.0,0.0,0.0,0.0,0.0,0.0,0.0,0.0,0.0,0.0,0.0,-2.7016,-2.7195,0.0,0.0,0.0,0.0,0.0,0.0,0.0,0.0,0.0,0.0,0.0,0.0,0.0,-3.5189,-3.7041,-3.8986,-4.0292,-4.096,-4.2283,-4.3083,-4.343,-4.2682,-4.2893,-4.3692,-4.2394,0.0,-3.637,-3.4337,0.0,0.0,0.0,0.0,0.0,0.0,0.0,0.0,0.0,0.0,0.0,0.0,0.0,0.0,0.0,0.0,0.0,0.0,0.0,0.0,0.0,-2.5991,-2.7967,-2.877,-3.067,-3.1339,-3.0186,-2.9609,-2.8969,-2.8196,-2.6714,-2.6553,-2.7839,-2.8069,-3.0043,-3.3935,-3.7847,-4.0025,-4.0537,-4.0763,-4.0442,-3.9652,-3.8042,-3.511,-3.1261,-2.9335,0.0,0.0,0.0,0.0,0.0,0.0,0.0,0.0,0.0,0.0,0.0,0.0,0.0,0.0,0.0,0.0,0.0,0.0,0.0,0.0,0.0,0.0,0.0,0.0,0.0,0.0,0.0,0.0,0.0,0.0,0.0,0.0,0.0,0.0,0.0,0.0,0.0,0.0,0.0,-2.7645,-2.9112,-2.8753,-2.8483,-2.759,0.0,0.0,0.0,0.0,0.0,0.0,0.0,0.0,0.0,-3.6577,-3.7564,-3.8957,-4.0873,-4.2818,-4.4124,-4.4763,-4.5933,-4.6766,-4.7221,-4.6336,-4.6348,-4.7051,-4.5846,-4.4252,-4.2216,-3.8774,-3.6613,-3.5293,0.0,0.0,0.0,0.0,-3.414,-3.4871,0.0,0.0,0.0,0.0,0.0,0.0,0.0,0.0,0.0,0.0,0.0,0.0,-2.4067,-2.7541,-3.0019,-3.0444,-3.3235,-3.4261,-3.2536,-3.1288,-3.025,-2.9403,-2.7477,-2.7091,-2.8542,-3.0426,-3.3853,-3.8898,-4.2267,-4.4341,-4.5027,-4.4953,-4.453,-4.3845,-4.3121,-3.9768,-3.4568,-3.2886,-3.0599,-2.7996,0.0,0.0,0.0,0.0,0.0,0.0,0.0,0.0,0.0,0.0,0.0,0.0,0.0,0.0,0.0,0.0,0.0,0.0,0.0,0.0,0.0,0.0,0.0,0.0,0.0,0.0,0.0,0.0,0.0,0.0,0.0,0.0,0.0,0.0,0.0,0.0,0.0,-2.9924,-3.1031,-3.0402,-3.0791,-3.0103,0.0,0.0,0.0,0.0,0.0,0.0,-3.5043,-3.5938,-3.7854,-4.1047,-4.1744,-4.2992,-4.4937,-4.6388,-4.7521,-4.8304,-4.8924,-4.9655,-5.0327,-4.9301,-4.9173,-4.9667,-4.8283,-4.7616,-4.7182,-4.2806,-4.0322,-3.917,-3.7496,-3.681,-3.6978,-3.8018,-3.8721,-3.9339,0.0,0.0,0.0,0.0,0.0,0.0,0.0,0.0,0.0,0.0,0.0,-2.4569,-2.5816,-2.9446,-3.2435,-3.4087,-3.4682,-3.5209,-3.5727,-3.2532,-3.0628,-3.0689,-2.8708,-2.8327,-2.9866,-3.5369,-4.0459,-4.5049,-4.5903,-4.6843,-4.7863,-4.6933,-4.6152,-4.543,-4.4413,-4.2475,-3.9828,-3.7319,-3.5372,-3.3665,-2.9372,0.0,0.0,0.0,0.0,0.0,0.0,0.0,0.0,0.0,0.0,0.0,0.0,0.0,0.0,0.0,0.0,0.0,0.0,0.0,0.0,0.0,0.0,0.0,0.0,0.0,0.0,0.0,0.0,0.0,0.0,0.0,0.0,0.0,0.0,0.0,0.0,0.0,0.0,-3.2437,-3.4053,0.0,0.0,0.0,0.0,-3.2632,-3.4354,-3.6675,-3.9596,-4.0989,-4.3166,-4.6314,-4.7056,-4.8333,-5.0278,-5.0394,-5.1112,-5.2281,-5.173,-5.2085,-5.3216,-5.1712,-5.1408,-5.196,-5.0753,-5.0047,-4.9452,-4.5703,-4.3807,-4.3076,-4.1783,-4.1306,-4.1362,-4.2064,-4.2317,-4.2514,0.0,0.0,0.0,0.0,0.0,0.0,0.0,0.0,-1.9502,-1.9936,-2.3094,-2.5933,-2.7595,-3.2224,-3.5582,-3.6616,-3.8405,-3.8934,-3.7528,-3.379,-3.2208,-3.3454,-3.0189,-3.0714,-3.5816,-3.9739,-4.3253,-4.6353,-4.7753,-4.8769,-4.9355,-4.8786,-4.8348,-4.8054,-4.6801,-4.5408,-4.3715,-4.0412,-3.7764,-3.5552,-3.2587,-3.0158,0.0,0.0,0.0,0.0,0.0,0.0,0.0,0.0,0.0,0.0,0.0,0.0,0.0,0.0,0.0,0.0,0.0,0.0,0.0,0.0,0.0,0.0,0.0,0.0,0.0,0.0,0.0,0.0,0.0,0.0,0.0,0.0,0.0,0.0,0.0,0.0,0.0,-3.6327,-3.7704,0.0,-3.4891,-3.5508,-3.6684,-3.8091,-3.9453,-4.1567,-4.45,-4.5551,-4.7036,-4.9233,-4.9524,-5.0162,-5.1265,-5.2107,-5.2717,-5.3181,-5.3384,-5.3733,-5.411,-5.27,-5.2236,-5.2387,-5.1362,-5.0857,-5.0622,-4.895,-4.7624,-4.6664,-4.6019,-4.5802,-4.583,-4.6055,-4.6139,-4.6139,0.0,0.0,0.0,0.0,0.0,0.0,0.0,0.0,-1.997,-2.0957,-2.4621,-2.8154,-3.0811,-3.5368,-3.858,-3.9395,-4.1014,-4.1284,-3.9599,-3.5474,-3.3767,-3.5267,-3.2934,-3.4486,-4.067,-4.3481,-4.6046,-4.8402,-4.9629,-5.0486,-5.0953,-5.0222,-4.9839,-4.9669,-4.8656,-4.7657,-4.6592,-4.3775,-4.086,-3.7973,-3.5938,-3.3844,-3.1718,0.0,0.0,0.0,0.0,0.0,0.0,0.0,0.0,0.0,0.0,0.0,0.0,0.0,0.0,0.0,0.0,0.0,0.0,0.0,0.0,0.0,0.0,0.0,0.0,0.0,0.0,0.0,0.0,0.0,0.0,0.0,0.0,0.0,0.0,-3.6596,-3.914,-3.9379,-4.0965,-4.1265,-3.929,-4.0233,-4.1641,-4.3248,-4.4294,-4.5959,-4.8517,-4.901,-4.9979,-5.1707,-5.1693,-5.2049,-5.2891,-5.3733,-5.4139,-5.4168,-5.4604,-5.472,-5.4487,-5.3617,-5.3094,-5.2862,-5.2145,-5.1891,-5.1943,-5.1371,-5.0678,-4.9882,-4.9149,-4.8906,-4.8906,-4.8906,-4.8906,-4.8793,0.0,0.0,0.0,0.0,0.0,0.0,0.0,-1.8996,-2.0874,-2.2616,-2.6832,-3.1259,-3.5412,-3.8794,-4.125,-4.2514,-4.2213,-4.1949,-4.1964,-3.7471,-3.5146,-3.5985,-3.7047,-3.9625,-4.4037,-4.6592,-4.9088,-5.1614,-5.1614,-5.1933,-5.2565,-5.1345,-5.0513,-5.0086,-4.9681,-4.9144,-4.8466,-4.7392,-4.4846,-4.1384,-3.9349,-3.7734,-3.6207,0.0,0.0,0.0,0.0,0.0,0.0,0.0,0.0,0.0,0.0,0.0,0.0,0.0,0.0,0.0,0.0,0.0,0.0,0.0,0.0,0.0,0.0,0.0,0.0,0.0,0.0,0.0,0.0,0.0,0.0,0.0,0.0,0.0,-3.6537,-3.8901,-4.0846,-4.1504,-4.3898,-4.4736,-4.283,-4.4945,-4.6881,-4.7956,-4.864,-4.9796,-5.1493,-5.1336,-5.2067,-5.3919,-5.3716,-5.4168,-5.5387,-5.5416,-5.5445,-5.5445,-5.5445,-5.5126,-5.4575,-5.4546,-5.4168,-5.3506,-5.3242,-5.3295,-5.3477,-5.2947,-5.2734,-5.2566,-5.1076,-5.0436,-5.0436,-5.0436,-5.0436,-5.0323,0.0,0.0,0.0,0.0,0.0,0.0,-1.7883,-1.9773,-2.1887,-2.3784,-2.8564,-3.3179,-3.6721,-3.9884,-4.239,-4.3807,-4.2981,-4.2209,-4.1731,-3.7173,-3.5167,-3.6654,-4.1111,-4.4763,-4.7375,-4.903,-5.0452,-5.1614,-5.1614,-5.1701,-5.1875,-5.1527,-5.1054,-5.0513,-4.9892,-4.9395,-4.8893,-4.8089,-4.6771,-4.4963,-4.2149,-4.007,-3.8362,0.0,0.0,0.0,0.0,0.0,0.0,0.0,0.0,0.0,0.0,0.0,0.0,0.0,0.0,0.0,0.0,0.0,0.0,0.0,0.0,0.0,0.0,0.0,0.0,0.0,0.0,0.0,0.0,0.0,0.0,0.0,-3.7049,-4.0254,-3.9439,-4.2432,-4.5125,-4.6262,-4.8297,-4.9194,-4.8177,-4.9164,-5.0166,-5.0956,-5.1195,-5.2055,-5.3781,-5.382,-5.4347,-5.5583,-5.5376,-5.5391,-5.5742,-5.5991,-5.6142,-5.6142,-5.6142,-5.6055,-5.5881,-5.5387,-5.4836,-5.4226,-5.4149,-5.3859,-5.3448,-5.3107,-5.2894,-5.2652,-5.2256,-5.1953,-5.1739,-5.1739,-5.1456,-5.0974,0.0,0.0,0.0,0.0,0.0,0.0,-1.8406,-2.0694,-2.3326,-2.5931,-3.0449,-3.4896,-3.863,-4.1163,-4.2859,-4.361,-4.2992,-4.198,-4.0547,-3.8003,-3.7491,-3.9567,-4.3936,-4.7433,-4.9872,-5.0946,-5.1788,-5.2426,-5.2426,-5.2426,-5.2426,-5.2426,-5.2078,-5.149,-5.0921,-5.033,-4.9737,-4.8869,-4.819,-4.743,-4.5122,-4.3216,-4.153,-3.9709,-3.8277,-3.7079,-3.5979,-3.5082,-3.4241,-3.3328,0.0,0.0,0.0,0.0,0.0,0.0,0.0,0.0,0.0,0.0,0.0,0.0,0.0,0.0,0.0,0.0,0.0,0.0,0.0,0.0,0.0,0.0,0.0,0.0,-4.1115,-4.4227,-4.4855,-4.6638,-4.8312,-4.9404,-5.078,-5.1708,-5.184,-5.2247,-5.2755,-5.3414,-5.3713,-5.4321,-5.5334,-5.5508,-5.5998,-5.6876,-5.6667,-5.6715,-5.7078,-5.703,-5.6892,-5.6781,-5.7071,-5.6781,-5.5997,-5.6142,-5.5707,-5.4894,-5.4894,-5.4662,-5.426,-5.4099,-5.374,-5.3185,0.0,0.0,0.0,0.0,-5.1994,-5.1437,0.0,0.0,0.0,0.0,0.0,0.0,-1.8965,-2.1602,-2.4778,-2.8193,-3.2113,-3.6172,-4.0387,-4.2046,-4.2859,-4.2711,-4.2542,-4.1574,-3.9393,-3.9621,-4.0993,-4.3543,-4.5871,-4.8518,-5.1556,-5.231,-5.2949,-5.35,-5.35,-5.35,-5.35,-5.3442,-5.3094,-5.2594,-5.2129,-5.1545,-5.0734,-4.9678,-4.922,-4.9073,-4.7875,-4.6491,-4.4923,-4.331,-4.2611,-4.2261,-4.0604,-3.8933,-3.7195,-3.5518,0.0,0.0,0.0,0.0,0.0,0.0,0.0,0.0,0.0,0.0,0.0,0.0,0.0,0.0,0.0,0.0,0.0,0.0,0.0,0.0,0.0,0.0,0.0,0.0,-4.4807,-4.8057,-5.1139,-5.1152,-5.1033,-5.1498,-5.2217,-5.3114,-5.4311,-5.4491,-5.479,-5.5359,-5.5957,-5.6316,-5.6376,-5.6706,0.0,0.0,0.0,-5.7908,-5.8834,-5.8219,-5.7759,-5.7536,-5.8145,-5.7507,-5.5881,-5.6926,-5.6752,-5.562,-5.5562,-5.5474,-5.5416,-5.5416,-5.4877,-5.3888,-5.3016,-5.268,-5.268,-5.268,-5.2332,-5.1869,0.0,0.0,0.0,0.0,0.0,0.0,-1.9593,-2.2133,-2.5023,-2.7916,-3.2258,-3.627,-3.9437,-4.09,-4.2105,-4.3245,-4.2402,-4.1674,-4.1411,-4.1682,-4.2855,-4.5088,-4.7728,-4.9881,-5.1585,-5.2746,-5.3384,-5.35,-5.35,-5.35,-5.35,-5.2978,-5.2688,-5.2594,-5.1955,-5.1606,-5.1381,-5.0676,-5.0086,-4.9533,-4.8968,-4.7505,-4.5611,-4.4763,-4.3875,-4.309,-4.2701,-4.2312,-4.1811,-4.0661,-3.8948,-3.705,-3.543,-3.301,0.0,0.0,0.0,0.0,0.0,0.0,0.0,0.0,0.0,0.0,0.0,0.0,0.0,0.0,0.0,0.0,0.0,0.0,0.0,-4.5182,-4.8846,-5.1884,-5.3384,-5.4431,-5.467,-5.3743,-5.467,-5.5508,-5.5777,-5.6226,-5.6585,-5.6705,-5.6855,-5.7154,-5.7723,-5.7819,-5.8363,-5.9613,-5.8862,-5.8918,-5.9936,-5.9006,-5.8663,-5.89,-5.9045,0.0,-5.8552,-5.8232,-5.7681,-5.6926,-5.6432,-5.591,-5.5416,-5.5416,-5.4877,-5.3888,-5.3016,-5.268,-5.268,-5.2411,-5.2369,-5.2517,0.0,0.0,0.0,0.0,0.0,0.0,-2.0533,-2.2846,-2.5512,-2.8153,-3.216,-3.5349,-3.696,-3.8213,-3.8769,-3.8427,-3.8383,-3.9153,-4.0986,-4.2524,-4.4576,-4.7384,-4.9542,-5.1265,-5.2543,-5.3181,-5.35,-5.35,-5.35,-5.35,-5.35,-5.3181,-5.2862,-5.2594,-5.1904,-5.1439,-5.1091,-5.0452,-4.9988,-4.9688,-4.9494,-4.8419,-4.6918,-4.6432,-4.5747,-4.5066,-4.4739,-4.4284,-4.3629,-4.2505,-4.1016,-3.9299,-3.7613,-3.546,-3.3296,0.0,0.0,0.0,0.0,0.0,0.0,0.0,0.0,0.0,0.0,0.0,0.0,0.0,0.0,-3.7357,-3.944,0.0,-4.6396,-4.8866,-5.1834,-5.4189,-5.545,-5.6506,-5.6645,-5.5349,-5.62,-5.7002,-5.7124,-5.7828,-5.8121,-5.7633,-5.8231,-5.859,-5.862,-5.8919,-5.9548,-6.0565,-6.0185,-6.0261,-6.0871,-5.9966,-5.9623,-6.0005,-5.98,-5.9597,-5.9306,-5.8958,-5.8435,-5.7768,-5.7129,-5.6665,-5.6316,-5.5678,-5.5105,-5.4595,-5.3557,-5.2829,-5.2465,-5.2221,-5.2202,-5.2236,0.0,0.0,0.0,0.0,0.0,0.0,0.0,-2.3255,-2.5593,-2.8173,-3.1453,-3.3716,-3.426,-3.5189,-3.5125,-3.3459,-3.4936,-3.7303,-4.0504,-4.3165,-4.6021,-4.9239,-5.0745,-5.2056,-5.3123,-5.3384,-5.35,-5.35,-5.3384,-5.3384,-5.35,-5.3123,-5.2833,-5.2594,-5.1788,-5.1294,-5.1054,-5.0336,-5.0046,-5.0046,-4.9785,-4.9058,-4.7992,-4.7444,-4.7022,-4.6755,-4.6132,-4.5203,-4.4097,-4.3058,-4.1844,-4.0467,-3.8927,-3.7513,-3.609,-3.4273,-3.3203,0.0,0.0,0.0,0.0,0.0,0.0,0.0,0.0,-3.4328,-3.4879,-3.7861,-3.976,-4.1587,-4.3914,-4.6855,-4.9761,-5.2079,-5.4131,-5.5925,-5.7213,-5.7882,-5.7859,-5.7054,-5.7458,-5.797,-5.8338,-5.9014,-5.9105,-5.8351,-5.9308,-5.9727,-5.9308,-5.9787,-6.0446,-6.1283,-6.1194,-6.1294,-6.1783,-6.0931,-6.0643,-6.0882,-6.0617,-6.0178,-5.9655,-5.9539,-5.9132,-5.8464,-5.7652,-5.7303,-5.7216,-5.6084,-5.5591,-5.5478,-5.4297,-5.3426,-5.2698,-5.2535,-5.2456,-5.2321,0.0,0.0,0.0,0.0,0.0,0.0,0.0,0.0,-2.4532,-2.7209,-2.941,-3.1238,-3.2526,-3.2813,-3.2982,-3.3262,-3.6473,-3.966,-4.249,-4.4475,-4.67,-4.9219,-5.0565,-5.1417,-5.1817,-5.2949,-5.35,-5.35,-5.2949,-5.2949,-5.3471,-5.1788,-5.1606,-5.2565,-5.1323,-5.1381,-5.2362,-5.1672,-5.141,-5.1294,-5.0191,-4.8943,-4.7683,-4.6538,-4.6312,-4.6565,-4.5886,-4.4921,-4.3942,-4.3209,-4.2225,-4.119,-4.0528,-3.942,-3.8008,-3.615,-3.482,-3.3631,-3.2118,-3.1732,-3.219,-3.394,-3.397,-3.5212,0.0,-4.1617,-4.1352,-4.4749,-4.6142,-4.6933,-4.7855,-5.0316,-5.2594,-5.3835,-5.5743,-5.7525,-5.8611,-5.8854,-5.9045,-5.9486,-5.8934,-5.8716,-5.9295,-5.9231,-5.9123,-5.9009,-5.9129,-5.9428,-5.9937,-6.0057,-6.0655,-6.1942,-6.1433,-6.1533,-6.2496,-6.1785,-6.1466,-6.1496,-6.1437,-6.1289,-6.0961,-6.038,-5.9771,-5.9132,-5.7855,-5.7303,-5.7245,-5.6578,-5.6287,-5.6174,-5.5207,-5.4809,-5.4558,-5.3809,-5.3867,-5.4288,0.0,0.0,0.0,0.0,0.0,0.0,0.0,0.0,0.0,-2.6133,-2.8056,-2.9069,-2.8659,-2.8605,-2.8858,-2.9476,-3.3607,-3.7349,-4.0079,-4.3816,-4.6957,-4.919,-5.0319,-5.1135,-5.1614,-5.2136,-5.2397,-5.2397,-5.2136,-5.2165,-5.2397,-5.1585,-5.1323,-5.149,-5.0967,-5.1025,-5.1461,-5.0772,-5.0714,-5.0946,-4.9669,-4.8362,-4.7085,-4.5808,-4.4749,-4.403,-4.4246,-4.3673,0.0,-4.2535,-4.1739,-4.0793,-4.0561,-3.9337,-3.7751,-3.6685,-3.5755,-3.5,-3.4755,-3.4965,-3.5507,-3.6907,-3.8485,-4.0654,-4.4228,-4.4742,-4.521,-4.7865,-4.9251,-5.0205,-5.0882,-5.2883,-5.4714,-5.5603,-5.7138,-5.85,-5.9348,-5.9808,-6.0022,-5.9878,-5.9762,-5.9599,-5.9499,-6.0223,-6.0289,-5.9159,-6.0176,-6.0805,-6.0685,-6.1044,-6.1702,-6.263,-6.275,-6.2812,-6.2905,-6.282,-6.2587,-6.2175,-6.1791,-6.1554,-6.1405,-6.0178,-5.9103,-5.8116,-5.7536,-5.7303,-5.7245,-5.6665,-5.6403,-5.6319,-5.5752,-5.5555,-5.5442,-5.4513,-5.4261,-5.4318,0.0,0.0,0.0,0.0,0.0,0.0,0.0,0.0,0.0,0.0,-2.6637,-2.7001,-2.5849,-2.554,-2.5765,-2.6553,-3.0965,-3.486,-3.7583,-4.2608,-4.6489,-4.8672,-4.9762,-5.0664,-5.1352,-5.1527,-5.1614,-5.1614,-5.1439,-5.1439,-5.1614,-5.1265,-5.0946,-5.0705,-5.0481,-5.056,-5.0705,-5.0211,-5.0133,-5.0307,-4.9001,-4.7608,-4.6127,-4.4472,-4.2673,-4.1145,-4.1948,-4.1655,-4.0787,-4.0469,-4.0033,-3.9529,-3.9379,-3.8452,-3.7315,-3.7,-3.6315,-3.5744,-3.6258,-3.7074,-3.8107,-3.9707,-4.2241,-4.48,-4.6339,-4.7096,-4.7989,-4.9866,-5.1159,-5.2175,-5.2852,-5.4483,-5.5992,-5.6933,-5.8073,-5.907,-5.9963,-6.0332,-6.0332,-5.9839,-5.9901,-5.9836,-5.9493,-6.0705,-6.0935,-5.9591,-6.095,-6.1702,-6.1403,-6.1852,-6.248,-6.3318,-6.3767,-6.3767,-6.3318,-6.3563,-6.3297,-6.2615,-6.2116,-6.1791,-6.1555,-5.9975,-5.8668,-5.7565,-5.739,-5.7303,-5.7274,-5.6839,-5.6665,-5.658,-5.6357,-5.6301,-5.6187,-5.5559,-5.5051,-5.4658,0.0,0.0,0.0,0.0,0.0,0.0,0.0,0.0,0.0,0.0,0.0,0.0,0.0,-2.4626,-2.4767,-2.6013,-2.9989,-3.36,-3.6269,-4.1114,-4.4943,-4.7357,-4.8672,-4.98,-5.0685,-5.1294,-5.1614,-5.1614,-5.1004,-5.1033,-5.1585,-5.0336,-5.0075,-5.0705,-4.9988,-5.0124,-5.0734,-5.0705,-5.0307,-4.964,-4.8333,-4.665,-4.4676,-4.2179,-4.0002,-3.8405,-3.9073,-3.8719,-3.7758,-3.6497,-3.6709,-3.7404,-3.6776,-3.6985,-3.7404,-3.7375,-3.6477,-3.5522,-3.5686,-3.6745,-3.8629,-4.2014,-4.4128,-4.6107,-4.8943,-4.9589,-4.9989,-5.1374,-5.2206,-5.2883,-5.356,-5.4791,-5.6146,-5.7549,-5.8331,-5.9255,-6.0578,-6.0209,-5.9809,-5.9778,-5.9224,-5.9,-5.9389,-6.0092,-6.0524,-6.0494,-6.0911,-6.1403,-6.2032,-6.2091,-6.266,-6.3917,-6.3977,-6.3977,-6.3977,-6.3977,-6.3502,-6.2615,-6.2556,-6.2234,-6.1555,-5.9975,-5.8929,-5.8232,-5.7594,-5.7303,-5.7303,-5.7274,-5.7274,-5.7274,-5.7274,-5.7274,-5.7274,-5.7245,-5.6708,-5.5905,0.0,0.0,0.0,0.0,0.0,0.0,0.0,0.0,0.0,0.0,0.0,0.0,0.0,0.0,0.0,0.0,-2.9444,-3.2567,-3.5174,-3.9739,-4.3342,-4.5446,-4.7333,-4.8644,-4.9378,-4.9582,-4.9901,-5.0336,-5.0104,-5.0133,-5.0307,-4.9872,-4.9785,-5.0037,-4.9834,-4.9814,-5.0017,-4.9582,-4.9001,-4.8275,-4.6563,-4.4966,-4.3398,-4.125,-3.8725,-3.617,0.0,-3.4689,-3.4548,-3.4109,-3.4006,-3.4137,-3.4951,-3.4319,-3.354,-3.453,-3.513,-3.5911,-3.7828,-3.9642,-4.1714,-4.4547,-4.7364,-4.9806,-5.1331,-5.2052,-5.2637,-5.3529,-5.3529,-5.3437,-5.3683,-5.4791,-5.5992,-5.6994,-5.8423,-5.9778,-6.0671,-6.1379,-6.1132,-5.9347,-6.0116,-6.0311,-5.9123,-5.9657,-6.0204,-6.0494,-6.1301,-6.1852,-6.2091,-6.251,-6.2959,-6.3378,-6.3767,-6.3797,-6.3378,-6.3797,-6.3619,-6.2905,-6.2285,-6.1584,-6.097,-5.9538,-5.8666,-5.8261,-5.7594,-5.7303,-5.7303,-5.7303,-5.7303,-5.7303,-5.7303,-5.7303,-5.7303,-5.7303,-5.6851,-5.6308,0.0,0.0,0.0,0.0,0.0,0.0,0.0,0.0,0.0,0.0,0.0,0.0,0.0,0.0,0.0,0.0,0.0,-3.0997,-3.3378,-3.7365,-4.0648,-4.2896,-4.4298,-4.5547,-4.665,-4.6243,-4.6534,-4.7637,-4.7869,-4.8188,-4.8653,-4.8653,-4.8653,-4.8653,-4.842,-4.8333,-4.8304,-4.7637,-4.6998,-4.6243,-4.4037,-4.2411,-4.1018,-3.8638,-3.606,0.0,-3.1235,-3.0514,-3.0572,-3.0571,-3.0894,-3.1424,-3.2138,-3.2408,-3.2616,-3.3573,-3.531,-3.7439,-4.0088,-4.2312,-4.4546,-4.7476,-5.0051,-5.2119,-5.3176,-5.3406,-5.3468,-5.3883,-5.3283,-5.2637,-5.2637,-5.3345,-5.4453,-5.6163,-5.7685,-5.9193,-6.0609,-6.1532,-6.1379,-5.9378,-6.0086,-6.0301,-5.9255,-5.9521,-6.0077,-6.0959,-6.1799,-6.2415,-6.275,-6.2959,-6.3288,-6.3767,-6.3917,-6.3797,-6.3408,-6.3797,-6.3677,-6.3079,-6.2342,-6.1553,-6.0852,-5.9886,-5.9013,-5.829,-5.8116,-5.7739,-5.7332,-5.7565,-5.7507,-5.7303,-5.7303,-5.7303,-5.7303,-5.7303,-5.7109,-5.6881,0.0,0.0,0.0,0.0,0.0,0.0,0.0,0.0,0.0,0.0,0.0,0.0,0.0,0.0,0.0,0.0,0.0,0.0,-3.1077,-3.4133,-3.709,-3.9799,-4.0002,-4.0931,-4.2847,-4.1715,-4.2005,-4.3892,-4.4472,-4.5401,-4.6575,-4.6546,-4.6546,-4.6546,-4.5982,-4.5663,-4.5605,-4.4937,-4.4269,-4.3427,-4.0873,-3.9102,-3.7622,-3.4608,-3.2254,-3.0249,-2.7779,-2.6597,-2.6184,-2.6297,-2.7784,-2.9518,-2.8939,-3.1448,-3.4593,-3.4715,-3.7019,-4.0081,-4.2357,-4.4546,-4.7087,-5.0594,-5.2164,-5.316,-5.4345,-5.3683,-5.2729,-5.2637,-5.1498,-5.0513,-5.0389,-5.0513,-5.1682,-5.4914,-5.6238,-5.7857,-6.0486,-6.0886,-6.064,-5.9932,-5.9347,-5.9224,-5.9778,-5.9696,-6.0241,-6.1838,-6.2263,-6.2916,-6.3917,-6.3438,-6.3707,-6.4934,-6.4306,-6.3947,-6.3947,-6.3947,-6.3647,-6.3079,-6.2759,-6.2142,-6.126,-6.0852,-5.9859,-5.8377,-5.9016,-5.8552,-5.7361,-5.8029,-5.7913,-5.7303,-5.7303,-5.7303,-5.7303,-5.7303,-5.7482,-5.7657,0.0,0.0,0.0,0.0,0.0,0.0,0.0,0.0,0.0,0.0,0.0,0.0,0.0,0.0,0.0,0.0,0.0,0.0,-2.9957,-3.2593,-3.5091,-3.7186,-3.8667,-4.0118,-4.1541,-4.1279,-4.1599,-4.2586,-4.2731,-4.3195,-4.395,-4.3515,-4.3544,-4.395,-4.334,-4.2789,-4.2266,-4.1599,-4.0437,-3.887,-3.7281,-3.5857,-3.4578,-3.3238,-3.1555,-2.9726,-2.8594,-2.7304,-2.623,-2.7329,-2.9822,-3.2258,-3.1177,-3.2976,-3.581,-3.7455,-3.9879,-4.2705,-4.5462,-4.771,-4.9769,-5.1857,-5.3299,-5.4129,-5.3976,-5.3714,-5.3037,-5.1528,-4.9712,-4.7927,-4.6419,-4.8235,-5.0389,-5.1744,-5.5499,-5.9039,-6.1255,-6.1994,-6.1871,-6.0671,-6.1286,-6.144,-6.064,-6.1418,-6.2135,-6.2597,-6.2535,-6.2916,-6.3917,-6.3857,-6.3917,-6.4246,-6.3647,-6.3318,-6.3318,-6.3318,-6.3228,-6.3079,-6.2513,-6.2223,-6.2201,-6.0935,-5.9943,-5.9363,-5.9335,-5.8552,-5.7361,-5.8029,-5.7913,-5.7303,-5.7303,-5.7303,-5.7303,-5.7303,-5.7482,-5.7801,0.0,0.0,0.0,0.0,0.0,0.0,0.0,0.0,0.0,0.0,0.0,0.0,0.0,0.0,0.0,0.0,0.0,0.0,0.0,-3.0775,-3.2672,-3.4339,-3.5409,-3.6539,-3.782,-3.7223,-3.7506,-3.8725,-3.9015,-3.9596,-4.0495,-4.0147,-4.0176,-4.0466,-3.9828,-3.9363,-3.8928,-3.7999,-3.6983,0.0,0.0,-3.2864,-3.2109,-3.0858,-2.9726,-2.8652,-2.7752,-2.7769,-2.8454,-3.0004,-3.1841,-3.3605,-3.4148,-3.5778,-3.802,-4.0532,-4.294,-4.5352,-4.7996,-4.9934,-5.1631,-5.3343,-5.4006,-5.4022,-5.3203,-5.2479,-5.1128,-4.8173,-4.6172,-4.4449,-4.2663,-4.5157,-4.805,-4.9959,-5.4545,-5.8824,-6.144,-6.2394,-6.2548,-6.1779,-6.2364,-6.2517,-6.1748,-6.2364,-6.3009,-6.3518,-6.3001,-6.3086,-6.3917,-6.3737,-6.3707,-6.3977,-6.3408,-6.3079,-6.3079,-6.3079,-6.3079,-6.3079,-6.269,-6.2547,-6.2585,-6.1669,-6.082,-6.015,-6.0268,-5.9481,-5.8232,-5.8871,-5.8755,-5.8145,-5.7855,-5.7739,-5.771,-5.7419,-5.7799,-5.8436,0.0,0.0,0.0,0.0,0.0,0.0,0.0,0.0,0.0,0.0,0.0,0.0,0.0,0.0,0.0,0.0,0.0,0.0,0.0,0.0,-3.0279,-3.1691,-3.1688,-3.2271,-3.3527,-3.2317,-3.2483,-3.4167,-3.4719,-3.5595,-3.6664,-3.6577,-3.6548,-3.6519,-3.5851,-3.559,-3.559,-3.4399,-3.3906,-3.3703,-3.138,-3.0423,-3.0162,0.0,-2.7839,-2.7721,-2.664,-2.8314,-3.1308,-3.3394,-3.4265,-3.4926,-3.753,-3.9385,-4.1146,-4.4013,-4.6123,-4.8012,-5.0363,-5.1678,-5.2902,-5.4746,-5.4452,-5.3404,-5.2113,-5.0449,-4.8029,-4.3901,-4.1894,-4.0539,-3.9339,-4.1894,-4.5372,-4.8974,-5.3468,-5.7826,-6.1492,-6.2417,-6.2817,-6.3002,-6.3002,-6.3033,-6.3071,-6.3102,-6.3548,-6.4621,-6.3731,-6.3434,-6.4183,-6.3586,-6.3438,-6.3977,-6.3408,-6.3109,-6.3199,-6.3109,-6.3079,-6.3079,-6.3079,-6.2963,-6.2673,-6.2615,-6.1967,-6.0853,-6.138,-6.0734,-5.9394,-5.9945,-5.9829,-5.9248,-5.8668,-5.8435,-5.8377,-5.7884,-5.8435,-5.9364,0.0,0.0,0.0,0.0,0.0,0.0,0.0,0.0,0.0,0.0,-2.7598,0.0,0.0,0.0,0.0,0.0,0.0,0.0,0.0,0.0,0.0,-3.0366,-3.0896,-3.1689,-3.2852,-3.2616,-3.2579,-3.2832,-3.2948,-3.3122,-3.3325,-3.2742,-3.2513,-3.2452,-3.1845,-3.1874,-3.2309,-3.1555,-3.1266,-3.1179,-3.019,-2.9464,-2.8999,-2.8791,0.0,0.0,-2.8766,-2.947,-3.1128,-3.5561,-3.8129,-3.9636,-4.091,-4.3069,-4.5633,-4.805,-4.9351,-5.0641,-5.3223,-5.3714,-5.3822,-5.5238,-5.4792,-5.3262,-5.0691,-4.8244,-4.5356,-4.1098,-3.8692,-3.7307,-3.7061,-3.9801,-4.3587,-4.8081,-5.2329,-5.6902,-6.2279,-6.2641,-6.2796,-6.391,-6.4034,-6.4174,-6.4487,-6.4549,-6.4961,-6.5998,-6.4845,-6.4471,-6.5198,-6.4333,-6.3887,-6.4006,-6.3408,-6.3318,-6.3827,-6.3318,-6.3079,-6.3079,-6.3079,-6.3079,-6.3021,-6.2731,-6.22,-6.1462,-6.1557,-6.0882,-5.9625,-6.0063,-5.9829,-5.9306,-5.9161,-5.9132,-5.9161,-5.9568,-5.9829,-6.006,0.0,0.0,0.0,0.0,0.0,0.0,0.0,0.0,0.0,-3.1429,-3.1114,-3.0287,0.0,0.0,0.0,0.0,0.0,0.0,0.0,0.0,0.0,0.0,-3.0835,-3.1427,-3.1957,-3.1804,-3.1712,-3.1772,0.0,-3.1505,-3.1244,-3.1275,-3.1069,-3.0599,-3.0687,-3.0832,-3.0974,-3.0335,-3.0133,-3.0192,-2.9493,-2.8935,-2.8492,0.0,0.0,0.0,0.0,-3.095,-3.2794,-3.5711,-3.9017,-4.2273,-4.456,-4.6203,-4.7854,-5.05,-5.1498,-5.2175,-5.4129,-5.473,-5.4869,-5.5457,-5.4543,-5.2392,-4.8323,-4.5532,-4.2266,-3.6908,-3.5306,-3.4783,-3.4414,-3.7738,-4.1709,-4.5403,-4.9519,-5.4174,-5.9692,-6.0515,-6.1495,-6.378,-6.4707,-6.5207,-6.538,-6.575,-6.6155,-6.6598,-6.5596,-6.4923,-6.4983,-6.4362,-6.4156,-6.4515,-6.4246,-6.4246,-6.4545,-6.3887,-6.3558,-6.3558,-6.3228,-6.3079,-6.3079,-6.2905,-6.261,-6.2081,-6.1969,-6.1439,-6.0706,-6.0702,-6.0555,-6.0293,-6.0293,-6.009,-5.98,-6.009,-6.0206,-6.0176,0.0,0.0,0.0,0.0,0.0,0.0,0.0,-3.0548,-3.1735,-3.4376,-3.4507,-3.3584,-3.1559,-3.0245,-2.9087,0.0,0.0,0.0,0.0,0.0,0.0,0.0,0.0,0.0,0.0,0.0,0.0,-3.1309,-3.1013,0.0,0.0,0.0,0.0,0.0,-3.0338,-3.0572,-3.0454,-2.993,-2.9871,0.0,0.0,-2.9248,0.0,0.0,0.0,0.0,0.0,-3.1722,-3.3811,-3.5625,-3.8698,-4.2467,-4.6477,-4.814,-4.9071,-5.1392,-5.2483,-5.3191,-5.4345,-5.5238,-5.575,-5.5627,-5.4134,-5.1386,-4.6427,-4.2985,-3.9237,-3.3607,-3.2625,-3.2749,-3.2628,-3.5953,-3.9838,-4.3291,-4.7088,-5.1599,-5.717,-5.8907,-6.0721,-6.358,-6.5152,-6.6021,-6.6119,-6.6457,-6.6888,-6.7319,-6.6388,-6.5467,-6.4561,-6.424,-6.4454,-6.5203,-6.5114,-6.5114,-6.5233,-6.4425,-6.4006,-6.3977,-6.3378,-6.3079,-6.3079,-6.3079,-6.2905,-6.2556,-6.2234,-6.1998,-6.1818,-6.1488,-6.1483,-6.16,-6.1454,-6.1077,-6.0584,-6.0467,-6.0409,-6.035,0.0,0.0,0.0,0.0,0.0,0.0,0.0,-3.1044,-3.2997,-3.6061,-3.6093,-3.5503,-3.4727,-3.3165,-3.1206,0.0,0.0,0.0,0.0,0.0,0.0,0.0,0.0,0.0,0.0,0.0,0.0,-3.1898,-3.1368,0.0,0.0,0.0,0.0,0.0,0.0,-3.0159,-3.013,-3.0071,0.0,0.0,0.0,0.0,0.0,0.0,0.0,0.0,0.0,-3.0756,-3.1798,-3.637,-3.7839,-3.8766,-4.4127,-4.7588,-4.9651,-4.9897,-5.1713,-5.3775,-5.4468,-5.5379,-5.6061,-5.603,-5.385,-5.0579,-4.6209,-4.1346,-3.6743,-3.3311,-3.165,-3.1345,-3.3026,-3.4809,-3.7962,-4.382,-4.6788,-5.0725,-5.7478,-6.0142,-6.2115,-6.4026,-6.5428,-6.64,-6.6765,-6.6334,-6.6735,-6.8581,-6.7856,-6.6503,-6.4563,-6.4445,-6.493,-6.5892,-6.5353,-6.5323,-6.5922,-6.4635,-6.4006,-6.3977,-6.3378,-6.3079,-6.3079,-6.3079,-6.2905,-6.2556,-6.2234,-6.2262,-6.246,-6.2128,-6.2383,-6.2848,-6.2238,-6.1977,-6.1861,-6.1309,-6.1106,-6.1046,0.0,0.0,0.0,0.0,0.0,0.0,0.0,-3.1557,-3.322,-3.7102,-3.7045,-3.6411,-3.5883,-3.4888,-3.289,0.0,0.0,0.0,0.0,0.0,0.0,0.0,0.0,0.0,0.0,0.0,-3.202,-3.2288,-3.2376,0.0,0.0,0.0,0.0,0.0,0.0,-3.0776,-3.0719,-3.0719,0.0,0.0,0.0,0.0,0.0,0.0,0.0,0.0,0.0,0.0,-3.2762,-3.409,-3.5737,-3.7573,-3.9521,-4.254,-4.6088,-4.948,-5.1927,-5.3844,-5.5364,-5.6637,-5.7307,-5.62,-5.374,-5.0285,-4.519,-4.0567,-3.6272,-3.2749,-3.1584,-3.1553,-3.2709,-3.3668,-3.5798,-4.0303,-4.2004,-4.488,-5.106,-5.3903,-5.673,-6.0557,-6.3232,-6.5337,-6.6765,-6.7381,-6.7689,-6.7689,-6.6959,-6.63,-6.5687,-6.5674,-6.6071,-6.6884,-6.6462,-6.634,-6.661,-6.5682,-6.5203,-6.5203,-6.4545,-6.4036,-6.3647,-6.3472,-6.3118,-6.2556,-6.2057,-6.2113,-6.2547,-6.2215,-6.2238,-6.2499,-6.2645,-6.2238,-6.1571,-6.1687,-6.1745,-6.1626,0.0,0.0,0.0,0.0,0.0,0.0,-3.1375,-3.1997,-3.3522,-3.744,-3.7279,-3.6751,-3.6599,-3.5357,-3.3499,-3.0974,0.0,0.0,0.0,0.0,0.0,0.0,0.0,0.0,0.0,0.0,-3.2586,-3.3095,-3.3482,-3.3571,0.0,0.0,-3.2885,-3.1961,0.0,0.0,0.0,0.0,0.0,0.0,0.0,0.0,0.0,0.0,0.0,0.0,0.0,0.0,0.0,0.0,0.0,-3.6136,-3.6414,-3.8633,-4.2217,-4.7592,-5.0858,-5.3072,-5.4799,-5.6481,-5.7293,-5.5597,-5.2984,-4.9433,-4.4275,-3.9942,-3.5987,-3.2453,-3.1689,-3.188,-3.2563,-3.3191,-3.4649,-3.7837,-3.9182,-4.1744,-4.7225,-5.0184,-5.3486,-5.7949,-6.1101,-6.3656,-6.5534,-6.7473,-6.812,-6.7012,-6.6827,-6.6805,-6.6851,-6.6995,-6.7215,-6.7457,-6.7304,-6.7121,-6.6999,-6.634,-6.5922,-6.5712,-6.5054,-6.4366,-6.3737,-6.3533,-6.3119,-6.2439,-6.2145,-6.2286,-6.2718,-6.2506,-6.2499,-6.2674,-6.2761,-6.2238,-6.1454,-6.1513,-6.1658,-6.1774,0.0,0.0,0.0,0.0,0.0,0.0,0.0,-3.2277,-3.4172,-3.6947,-3.6722,-3.6577,-3.7215,-3.4457,-3.2774,-3.3416,0.0,0.0,0.0,0.0,0.0,0.0,0.0,0.0,0.0,0.0,-3.3155,-3.4474,-3.4503,-3.4801,-3.5459,-3.5459,-3.4771,-3.3484,0.0,0.0,0.0,0.0,0.0,0.0,0.0,0.0,0.0,0.0,0.0,0.0,0.0,0.0,0.0,0.0,0.0,0.0,0.0,-3.7094,-3.877,-4.3578,-4.7858,-5.1251,-5.2168,-5.4116,-5.5516,-5.406,-5.1316,-4.7846,-4.3643,-3.9346,-3.5417,-3.2652,-3.1956,-3.2039,-3.2752,-3.3548,-3.4955,-3.756,-4.0037,-4.3308,-4.8199,-5.1386,-5.4431,-5.7475,-5.9593,-6.1379,-6.2733,-6.5934,-6.7658,-6.6981,-6.812,-6.8581,-6.7935,-6.8227,-6.8089,-6.7548,-6.7487,-6.7365,-6.6999,-6.634,-6.5682,-6.5024,-6.4336,-6.3677,-6.3079,-6.3079,-6.2731,-6.2145,-6.2824,-6.311,-6.308,-6.308,-6.3457,-6.3893,-6.2616,-6.2093,-6.1948,-6.0671,-6.0642,-6.1222,0.0,0.0,0.0,0.0,0.0,0.0,0.0,-3.0266,-3.1572,-3.4341,-3.452,-3.4603,-3.527,-3.4428,-3.3736,-3.3667,0.0,0.0,0.0,0.0,0.0,0.0,0.0,0.0,0.0,0.0,-3.4981,-3.5881,-3.6716,-3.7494,-3.8153,-3.7255,-3.6357,-3.5489,-3.4593,-3.3544,0.0,0.0,0.0,0.0,0.0,0.0,0.0,0.0,0.0,0.0,0.0,0.0,0.0,0.0,0.0,0.0,0.0,0.0,0.0,-3.9699,-4.4475,-4.8866,-4.9787,-5.1568,-5.2744,-5.0884,-4.8218,-4.5155,-4.1866,-3.8621,-3.5814,-3.3846,-3.3069,-3.2891,-3.3576,-3.3862,-3.5183,-3.8809,-4.0601,-4.3078,-4.7619,-5.118,-5.4245,-5.6827,-6.1748,-6.5319,-6.6211,-6.7289,-6.7843,-6.7627,-6.7997,-6.815,-6.7935,-6.8434,-6.8535,-6.8119,-6.7699,-6.7487,-6.7365,-6.6462,-6.5892,-6.5682,-6.5024,-6.4366,-6.3707,-6.3503,-6.2972,-6.2116,-6.2085,-6.2166,-6.2412,-6.2412,-6.2529,-6.2674,-6.2267,-6.1832,-6.1425,-6.1019,-6.1571,-6.2354,0.0,0.0,0.0,0.0,0.0,0.0,0.0,-2.9607,-3.0564,-3.2483,-3.2745,-3.3151,-3.4283,-3.3761,-3.3474,-3.3955,0.0,0.0,0.0,0.0,0.0,0.0,0.0,0.0,0.0,-3.4622,-3.6058,-3.7195,-3.8512,-3.9499,-4.0157,-3.929,-3.8153,-3.6776,-3.5729,-3.4352,0.0,0.0,0.0,0.0,0.0,0.0,-3.2826,0.0,0.0,0.0,0.0,0.0,0.0,0.0,0.0,0.0,0.0,0.0,0.0,0.0,-4.0024,-4.4454,-4.6937,-4.9008,-5.0089,-4.8478,-4.6202,-4.3542,-4.0635,-3.8087,-3.588,-3.4411,-3.3567,-3.35,-3.475,-3.4474,-3.5143,-3.8466,-3.9942,-4.214,-4.6337,-5.0134,-5.3827,-5.7536,-6.2548,-6.6027,-6.6704,-6.7258,-6.775,-6.8243,-6.8058,-6.8027,-6.8274,-6.8427,-6.8403,-6.8227,-6.7754,-6.7336,-6.7095,-6.6252,-6.5622,-6.5233,-6.4844,-6.4306,-6.3647,-6.3502,-6.3001,-6.2322,-6.2558,-6.2613,0.0,-6.2599,-6.2509,-6.2247,-6.1922,-6.1513,-6.1193,-6.1193,-6.1687,-6.2267,0.0,0.0,0.0,0.0,0.0,0.0,0.0,0.0,0.0,0.0,-3.1438,-3.2135,-3.3935,-3.26,-3.2278,0.0,0.0,0.0,0.0,0.0,0.0,0.0,0.0,0.0,0.0,-3.5011,-3.6656,-3.8601,-3.9948,-4.0965,-4.1692,-4.1624,-4.0187,-3.7674,-3.6985,-3.5519,-3.3484,-3.2228,-3.2407,-3.3574,-3.3574,-3.3544,0.0,0.0,0.0,0.0,0.0,0.0,0.0,0.0,0.0,0.0,0.0,0.0,0.0,0.0,0.0,0.0,0.0,-4.5992,-4.7081,-4.6329,-4.4618,-4.2437,-3.966,-3.749,0.0,-3.438,-3.3594,-3.381,-3.6032,-3.5331,-3.5114,-3.7301,-3.8904,-4.1204,-4.5065,-4.9219,-5.3951,-5.9602,-6.2517,-6.4395,-6.5042,-6.6273,-6.7566,-6.8797,-6.8335,-6.8243,-6.8858,-6.8274,-6.7935,-6.7935,-6.7491,-6.7052,-6.6492,-6.5769,-6.493,-6.4006,-6.3947,-6.3617,-6.3079,-6.3079,-6.2935,-6.2733,-6.3892,-6.3891,-6.3117,-6.3434,-6.3195,-6.2431,-6.1604,-6.1222,-6.1193,-6.1193,-6.1193,-6.1193,0.0,0.0,0.0,0.0,0.0,0.0,0.0,0.0,0.0,0.0,-3.048,-3.1004,-3.1438,-3.1961,-3.2454,0.0,0.0,0.0,0.0,0.0,0.0,0.0,0.0,0.0,0.0,-3.6806,-3.8691,-4.0666,-4.2013,-4.324,-4.4377,-4.3868,-4.2491,-4.0397,-3.923,-3.7075,-3.4233,-3.3903,-3.3994,-3.4264,-3.4264,-3.3901,0.0,0.0,0.0,0.0,-3.1503,-3.1828,0.0,0.0,0.0,0.0,0.0,0.0,0.0,0.0,-3.3166,-3.4395,-3.6659,0.0,-4.0882,-3.9754,-3.8716,-3.7676,0.0,-3.5524,-3.4672,-3.4324,-3.3729,-3.4045,-3.6753,-3.609,-3.669,-4.1398,-4.2882,-4.4831,-4.8788,-5.4559,-5.9967,-6.4282,-6.627,-6.7296,-6.7196,-6.7935,-6.8551,-6.8858,-6.8735,-6.8735,-6.8889,-6.8274,-6.7935,-6.7935,-6.6862,-6.6212,-6.6151,-6.5192,-6.4479,-6.4006,-6.3528,-6.3228,-6.3079,-6.3079,-6.3174,-6.3357,-6.3149,-6.3091,-6.3089,-6.3176,-6.2673,-6.1876,-6.2197,-6.187,-6.1193,-6.1193,-6.1193,-6.1193,0.0,0.0,0.0,0.0,0.0,0.0,0.0,0.0,0.0,0.0,0.0,0.0,0.0,0.0,0.0,0.0,0.0,0.0,0.0,0.0,0.0,0.0,0.0,0.0,-3.5938,-3.7554,-3.9379,-4.1422,-4.3,-4.4317,-4.5274,-4.4915,-4.3389,-4.0816,-3.8272,-3.6148,-3.4474,-3.4174,-3.4171,-3.4347,-3.4049,0.0,0.0,0.0,0.0,0.0,-3.1448,-3.1742,0.0,-3.2752,-3.3111,-3.3045,0.0,0.0,0.0,0.0,-3.1081,-3.1809,-3.2523,-3.5604,-3.8435,-3.7746,-3.7307,-3.6837,-3.6209,-3.5071,-3.4179,-3.4125,-3.3648,-3.4081,-3.6975,-3.6566,-3.7294,-4.1968,-4.3832,-4.6975,-5.3507,-5.889,-6.3402,-6.6627,-6.8106,-6.8648,-6.8166,-6.8301,-6.8581,-6.8858,-6.8612,-6.8458,-6.8458,-6.7812,-6.7319,-6.7012,-6.5996,-6.5525,-6.5711,-6.4728,-6.4108,-6.3732,-6.3286,-6.3079,-6.3079,-6.3079,-6.32,-6.3384,-6.3294,-6.3177,-6.3149,-6.3269,-6.2765,-6.1821,-6.2053,-6.193,-6.16,-6.16,-6.16,-6.16,0.0,0.0,0.0,0.0,0.0,0.0,0.0,0.0,0.0,0.0,0.0,0.0,0.0,0.0,0.0,0.0,0.0,0.0,0.0,0.0,0.0,0.0,0.0,-3.5222,-3.6746,-3.7823,-3.9469,-4.1683,-4.3539,-4.4855,-4.5603,-4.5693,-4.3898,-4.0397,-3.6836,-3.5043,-3.4623,-3.4053,-3.4019,-3.4307,-3.3654,0.0,0.0,0.0,0.0,0.0,0.0,0.0,0.0,-3.3213,-3.3482,-3.314,-3.233,0.0,0.0,0.0,0.0,0.0,-3.0725,-3.4154,-3.753,-3.7249,-3.7343,-3.728,-3.6411,-3.5094,-3.4046,-3.3907,-3.3615,-3.4289,-3.7328,-3.73,-3.8056,-4.1869,-4.4618,-4.9347,-5.8075,-6.2223,-6.5229,-6.7714,-6.8924,-6.9255,-6.8639,-6.8289,-6.8363,-6.8858,-6.8304,-6.7935,-6.7935,-6.7196,-6.6488,-6.5934,-6.5257,-6.5053,-6.5294,-6.4462,-6.3849,-6.3538,-6.3252,-6.3137,-6.3079,-6.3079,-6.3139,-6.3228,-6.3677,-6.3617,-6.3258,-6.3534,-6.3061,-6.2116,-6.1909,-6.1961,-6.2154,-6.2093,-6.2093,-6.2093,0.0,0.0,0.0,0.0,0.0,0.0,0.0,0.0,0.0,0.0,0.0,0.0,0.0,0.0,0.0,0.0,0.0,0.0,0.0,0.0,0.0,0.0,-3.5162,-3.5642,-3.8033,-3.8302,-3.9918,-4.2991,-4.4436,-4.5783,-4.701,-4.7549,-4.5454,-4.1145,-3.9439,-3.7434,-3.534,-3.525,-3.5153,-3.499,-3.4337,0.0,0.0,0.0,0.0,0.0,0.0,0.0,0.0,-3.1981,-3.2792,-3.3275,-3.1189,0.0,0.0,0.0,0.0,0.0,-3.2167,-3.438,-3.5488,-3.3844,-3.4335,-3.492,-3.3761,-3.3724,-3.3911,-3.3883,-3.4285,-3.5625,-3.8997,-3.9625,-4.1231,-4.5913,-5.0506,-5.526,-6.0312,-6.3502,-6.6238,-6.8743,-6.9722,-6.9901,-6.929,-6.9232,-6.9089,-6.8948,-6.8304,-6.7935,-6.7935,-6.6735,-6.6027,-6.5903,-6.5257,-6.4949,-6.4986,-6.4585,-6.4075,-6.3538,-6.3481,-6.3309,-6.3079,-6.3079,-6.3378,-6.3827,-6.3408,-6.3468,-6.3857,-6.3918,-6.3414,-6.2557,-6.2765,-6.2761,-6.2487,-6.2215,-6.2093,-6.2093,0.0,0.0,0.0,0.0,0.0,0.0,0.0,0.0,0.0,0.0,0.0,0.0,0.0,0.0,0.0,0.0,0.0,0.0,0.0,0.0,0.0,-3.8571,-3.7315,-3.7165,-3.8362,-3.9835,-4.1624,-4.3828,-4.6262,-4.7758,-4.8327,-4.683,-4.4186,-4.0606,-3.8579,-3.6786,-3.5326,-3.5326,-3.5228,-3.4945,0.0,0.0,0.0,0.0,0.0,0.0,0.0,0.0,0.0,0.0,-3.2945,-3.3457,-3.1721,0.0,0.0,0.0,0.0,0.0,-3.1597,-3.3556,-3.4813,-3.4316,-3.5736,-3.7156,-3.66,-3.5948,-3.5635,-3.635,-3.6474,-3.7375,-4.0489,-4.2018,-4.4679,-5.0545,-5.5008,-5.894,-6.2554,-6.5132,-6.748,-6.9832,-7.0231,-7.0035,-6.9407,-6.9059,-6.8617,-6.8073,-6.7592,-6.7227,-6.6858,-6.6242,-6.575,-6.538,-6.5072,-6.4888,-6.4888,-6.4777,-6.4356,-6.3766,-6.3595,-6.3367,-6.3079,-6.3079,-6.3228,-6.3498,-6.3199,-6.3228,-6.3498,-6.3498,-6.3383,-6.3149,-6.2883,-6.3147,-6.3541,-6.2884,-6.2848,-6.2993,0.0,0.0,0.0,0.0,0.0,0.0,0.0,0.0,0.0,0.0,0.0,0.0,0.0,0.0,0.0,0.0,0.0,0.0,0.0,0.0,-3.8392,-4.0098,-3.932,-3.908,-3.9529,-4.1422,-4.3339,-4.5244,-4.7938,-4.9389,-4.9434,-4.6284,-4.3249,-4.0226,-3.7901,-3.6327,-3.5436,-3.532,-3.5218,-3.5019,0.0,0.0,0.0,0.0,0.0,0.0,0.0,0.0,0.0,0.0,0.0,0.0,0.0,0.0,0.0,-3.0603,-2.992,-2.9968,-3.1671,-3.3347,-3.4877,-3.5953,-3.7523,-3.8939,-3.9367,-3.8297,-3.7589,-3.929,-3.9197,-3.9663,-4.2341,-4.5005,-4.8662,-5.4272,-5.8217,-6.1464,-6.4149,-6.6343,-6.8359,-7.0312,-7.0363,-6.991,-6.9139,-6.865,-6.8086,-6.7291,-6.7033,-6.6611,-6.5934,-6.5903,-6.5596,-6.4918,-6.4888,-6.4888,-6.4888,-6.4888,-6.461,-6.4075,-6.3766,-6.3481,-6.3194,-6.3137,-6.3079,-6.3079,-6.3079,-6.3079,-6.3079,-6.3228,-6.3381,-6.3445,-6.2971,-6.3326,-6.398,-6.3349,-6.3283,-6.337,0.0,0.0,0.0,0.0,0.0,0.0,0.0,0.0,0.0,0.0,0.0,0.0,0.0,0.0,0.0,0.0,0.0,0.0,0.0,0.0,-3.8661,-3.9469,-3.9978,-4.1115,-4.2901,-4.2581,-4.4237,-4.7997,-4.891,-4.9583,-5.0076,-4.7614,-4.4507,-4.0969,-3.9505,-3.7872,-3.6089,-3.566,-3.5588,-3.576,-3.5049,0.0,0.0,0.0,0.0,0.0,0.0,0.0,0.0,0.0,0.0,0.0,0.0,0.0,-3.2401,-3.1185,-3.0816,-3.1387,-3.4179,-3.4942,-3.5491,-3.7735,-3.7492,-3.7184,-3.9059,-3.8908,-3.9123,-4.1771,-4.2263,-4.2879,-4.4949,-4.9285,-5.333,-5.5952,-5.9742,-6.2924,-6.4474,-6.6472,-6.8283,-6.9688,-6.9875,-6.948,-6.8541,-6.8422,-6.7972,-6.7007,-6.6919,-6.6611,-6.5934,-6.5903,-6.5596,-6.4918,-6.4888,-6.4888,-6.4888,-6.4888,-6.4721,-6.4382,-6.4075,-6.3823,-6.3481,-6.3194,-6.3079,-6.3079,-6.3079,-6.3079,-6.3109,-6.3707,-6.3617,-6.3141,-6.3416,-6.3178,-6.2752,-6.3,-6.2732,-6.2209,0.0,0.0,0.0,0.0,0.0,0.0,0.0,0.0,0.0,0.0,0.0,0.0,0.0,0.0,0.0,0.0,0.0,0.0,0.0,0.0,-3.9679,-4.1175,-4.1542,-4.2342,-4.3858,-4.5334,-4.7189,-4.9494,-5.0432,-5.053,-4.9719,-4.6889,-4.3844,-4.0683,-3.9047,-3.7695,-3.6601,-3.5853,-3.5706,-3.5819,-3.4626,-3.3758,0.0,0.0,0.0,0.0,0.0,0.0,0.0,0.0,-3.2348,-3.2946,-3.1898,-3.2317,-3.3036,-3.2135,-3.1377,-3.1157,-3.2667,-3.4,-3.5429,-3.714,-3.8522,-3.9879,-4.1643,-4.2479,-4.3679,-4.6449,-4.6665,-4.6973,-4.9004,-5.1986,-5.4869,-5.7149,-6.0614,-6.34,-6.4546,-6.648,-6.8133,-6.9069,-6.9163,-6.8857,-6.809,-6.7454,-6.6759,-6.5967,-6.5769,-6.5565,-6.5288,-6.5288,-6.5165,-6.4918,-6.4888,-6.4888,-6.4888,-6.4888,-6.4832,-6.4691,-6.4412,-6.3963,-6.3538,-6.3424,-6.3252,-6.3079,-6.3079,-6.2839,-6.251,-6.3169,-6.3288,-6.3169,-6.3862,-6.3506,-6.2647,-6.2996,-6.2699,-6.2113,0.0,0.0,0.0,0.0,0.0,0.0,0.0,0.0,0.0,0.0,0.0,0.0,0.0,0.0,0.0,0.0,0.0,0.0,-3.7764,-3.8601,-3.9798,-4.1354,-4.1871,-4.289,-4.4586,-4.704,-4.8925,-5.0196,-5.1435,-5.0935,-4.8634,-4.5959,-4.3325,-4.0822,-3.9202,-3.8237,-3.7735,-3.6575,-3.6099,-3.5982,-3.4589,-3.3809,0.0,0.0,0.0,0.0,0.0,0.0,0.0,0.0,-3.2169,-3.2796,-3.2288,-3.2766,-3.3365,-3.2706,-3.2256,-3.1981,-3.2071,-3.3427,-3.518,-3.6609,-3.9082,-4.1754,-4.4212,-4.5518,-4.7065,-5.002,-5.0266,-5.0359,-5.1744,-5.3683,-5.5608,-5.7483,-6.0979,-6.3756,-6.4652,-6.6361,-6.7759,-6.8443,-6.8318,-6.7946,-6.7262,-6.6598,-6.5967,-6.5503,-6.5306,-6.5226,-6.5226,-6.5226,-6.5103,-6.4918,-6.4888,-6.4888,-6.4888,-6.4888,-6.4888,-6.4888,-6.4635,-6.4244,-6.3622,-6.3538,-6.3246,-6.278,-6.278,-6.2391,-6.1852,-6.251,-6.278,-6.2869,-6.3356,-6.2941,-6.2022,-6.2322,-6.2057,-6.1526,0.0,0.0,0.0,0.0,0.0,0.0,0.0,0.0,0.0,0.0,0.0,0.0,0.0,0.0,0.0,0.0,0.0,0.0,-3.6537,-3.7674,-3.8691,-3.9379,-4.0696,-4.2611,-4.5214,-4.7219,-4.8925,-5.0196,-5.1736,-5.0573,-4.6915,-4.4951,-4.3186,-4.1735,-4.0389,-3.9799,-3.966,-3.7955,-3.698,-3.6512,-3.5224,-3.4218,-3.3445,0.0,0.0,0.0,0.0,0.0,0.0,0.0,-3.1931,-3.175,-3.3066,-3.3484,-3.3395,-3.2706,-3.3455,-3.4235,-3.3006,-3.3577,-3.4896,-3.6511,-3.9009,-4.2186,-4.6366,-4.7487,-4.8604,-5.2052,-5.2729,-5.2729,-5.2729,-5.436,-5.593,-5.6717,-6.0763,-6.4087,-6.4795,-6.6057,-6.7165,-6.7843,-6.7319,-6.6642,-6.5965,-6.5903,-6.5903,-6.5903,-6.5903,-6.5903,-6.5903,-6.5903,-6.5596,-6.4918,-6.4888,-6.4888,-6.4888,-6.4888,-6.4888,-6.4888,-6.4888,-6.4554,-6.3993,-6.3652,-6.3006,-6.2091,-6.2091,-6.1732,-6.1164,-6.1822,-6.2091,-6.2091,-6.1719,-6.1189,-6.0627,-6.0965,-6.0701,-6.0229,0.0,0.0,0.0,0.0,0.0,0.0,0.0,0.0,0.0,0.0,0.0,0.0,0.0,0.0,0.0,0.0,0.0,0.0,-3.6537,-3.7674,-3.8691,-3.9379,-4.1115,-4.2261,-4.2521,-4.4945,-4.767,-5.0602,-5.0152,-4.837,-4.528,-4.3938,-4.2401,-4.0803,-4.1048,-4.0577,-3.9492,-3.7916,-3.7301,-3.7184,-3.5764,-3.5049,-3.4753,0.0,0.0,0.0,0.0,0.0,0.0,0.0,0.0,0.0,-3.2617,-3.3784,-3.4592,-3.2976,-3.3125,-3.3425,-3.1627,-3.3126,-3.5642,-3.7511,-4.1475,-4.5798,-4.9144,-5.0223,-5.1313,-5.4206,-5.4822,-5.4668,-5.416,-5.5407,-5.6871,-5.7993,-6.1348,-6.4087,-6.4795,-6.6457,-6.7535,-6.7258,-6.7042,-6.6642,-6.5965,-6.5472,-6.538,-6.5873,-6.5472,-6.5411,-6.5873,-6.5442,-6.5103,-6.4918,-6.4888,-6.4777,-6.4579,-6.4579,-6.4468,-6.4275,-6.4275,-6.4162,-6.3993,-6.388,-6.3233,-6.2091,-6.2091,-6.1433,-6.0416,-6.0595,-6.0954,-6.1403,-6.1291,-6.0872,-6.0309,-6.0909,-6.0674,-6.0257,0.0,0.0,0.0,0.0,0.0,0.0,0.0,0.0,0.0,0.0,-3.6237,-3.6686,0.0,0.0,0.0,0.0,0.0,0.0,0.0,0.0,-3.8691,-3.9379,-4.0816,-4.1893,-4.2521,-4.4885,-4.6655,-4.7822,-4.7689,-4.6267,-4.3596,-4.3567,-4.2895,-4.1882,-4.2946,-4.2286,-4.0323,-3.9174,-3.8222,-3.7397,-3.6503,-3.6002,-3.5712,0.0,0.0,0.0,0.0,0.0,0.0,0.0,0.0,0.0,-3.2079,-3.2916,-3.3754,-3.2796,-3.2976,-3.3335,-3.2677,-3.4532,-3.7195,-3.9409,-4.3347,-4.7649,-5.1759,-5.3224,-5.433,-5.6484,-5.6484,-5.6084,-5.5961,-5.6607,-5.7672,-5.8947,-6.1809,-6.4087,-6.4795,-6.6396,-6.7381,-6.6981,-6.6673,-6.6365,-6.5934,-6.5288,-6.5165,-6.5842,-6.5288,-6.5195,-6.5873,-6.5257,-6.4888,-6.4888,-6.4888,-6.4777,-6.4579,-6.4743,-6.4575,-6.4132,-6.4049,-6.3785,-6.3399,-6.3399,-6.2755,-6.1672,-6.1134,-6.0446,-5.9697,-5.9697,-6.0086,-6.0715,-6.0715,-6.0625,-6.0505,-6.0655,-6.0625,-6.0625,0.0,0.0,-3.5522,-3.5522,0.0,0.0,0.0,0.0,0.0,0.0,-3.6537,-3.7015,0.0,0.0,0.0,0.0,0.0,0.0,0.0,0.0,-3.8751,-3.9343,-4.0217,-4.1773,-4.4167,-4.6022,-4.5663,-4.3021,-4.4691,-4.4282,-4.198,-4.3531,-4.4162,-4.3972,-4.531,-4.4324,-4.1637,-4.0831,-3.9279,-3.7302,-3.7244,-3.6838,-3.6257,-3.5712,0.0,0.0,0.0,0.0,0.0,0.0,0.0,0.0,-3.1512,-3.163,-3.175,-3.2258,-3.3006,-3.3933,-3.51,-3.6956,-3.923,-4.2081,-4.506,-4.8779,-5.4365,-5.6322,-5.7285,-5.8516,-5.7888,-5.7241,-5.7795,-5.7949,-5.8362,-5.9686,-6.2056,-6.3995,-6.4795,-6.5996,-6.6827,-6.6827,-6.6273,-6.5873,-6.5811,-6.5257,-6.5165,-6.5842,-6.5288,-6.5195,-6.5873,-6.5257,-6.4888,-6.4888,-6.4888,-6.4888,-6.4832,-6.5111,-6.4911,-6.427,-6.4019,-6.3403,-6.2427,-6.2423,-6.1894,-6.0954,-5.9668,-5.9099,-5.9099,-5.9159,-5.9518,-5.9997,-6.0116,-6.0535,-6.0954,-6.0386,-6.0565,-6.1134,0.0,0.0,-3.5718,-3.5846,0.0,0.0,0.0,0.0,0.0,0.0,0.0,0.0,0.0,0.0,0.0,0.0,0.0,0.0,0.0,0.0,-3.926,-3.9373,-4.1496,-4.2931,-4.3499,-4.3917,-4.315,-4.1025,-4.2882,-4.2762,-4.0801,-4.32,-4.3924,-4.3248,-4.4626,-4.356,-4.0666,-3.8994,-3.7908,-3.7273,-3.6722,-3.6431,-3.6286,-3.617,-3.5241,0.0,0.0,0.0,0.0,0.0,0.0,0.0,-3.199,-3.2587,-3.2765,-3.1959,-3.3335,-3.5011,-3.4771,-3.7285,-4.0846,-4.4556,-4.9194,-5.3809,-5.7395,-5.8105,-5.8174,-5.8731,-5.8978,-5.9008,-5.8639,-5.9008,-5.9624,-6.0455,-6.1963,-6.3472,-6.4734,-6.5596,-6.6119,-6.6119,-6.5996,-6.5688,-6.5165,-6.498,-6.5165,-6.5842,-6.5288,-6.5195,-6.5873,-6.5257,-6.4888,-6.4888,-6.4888,-6.4666,-6.4218,-6.4258,-6.4001,-6.3367,-6.3309,-6.2892,-6.2175,-6.1859,-6.1202,-6.0266,-5.9458,-5.9099,-5.9129,-5.9668,-5.9668,-5.9428,-6.0475,-6.0655,-6.0356,-6.0745,-6.0984,-6.1194,0.0,0.0,0.0,0.0,0.0,0.0,0.0,0.0,0.0,0.0,0.0,0.0,0.0,0.0,0.0,0.0,-3.8691,0.0,0.0,0.0,0.0,-4.0816,-4.3359,-4.4127,-4.291,-4.314,-4.2183,-3.9918,-4.0965,-4.1085,-4.0457,-4.3011,-4.4124,-4.4154,-4.5084,-4.369,-4.0577,-3.9463,-3.8376,-3.7448,-3.7629,-3.7405,-3.6895,-3.6467,-3.5125,-3.3412,-3.2809,0.0,0.0,0.0,0.0,0.0,0.0,0.0,-3.1367,-3.1841,-3.2915,-3.4377,-3.6294,-3.926,-4.3,-4.7908,-5.2107,-5.562,-5.7567,-5.8237,-5.846,-5.8712,-5.907,-5.9285,-5.9255,-5.9285,-5.9747,-6.1071,-6.1871,-6.2702,-6.3749,-6.4795,-6.5411,-6.5411,-6.5719,-6.578,-6.5411,-6.5103,-6.4888,-6.4918,-6.4888,-6.4888,-6.4918,-6.4888,-6.4888,-6.4888,-6.4888,-6.4666,-6.4188,-6.4323,-6.4069,-6.3309,-6.3194,-6.2391,-6.1134,-6.0911,-6.0401,-5.9608,-5.9249,-5.9099,-5.9159,-5.9817,-6.0086,-6.0146,-6.0835,-6.1283,-6.1493,-6.1224,-6.1523,-6.2061,0.0,0.0,0.0,0.0,0.0,0.0,0.0,0.0,0.0,0.0,0.0,0.0,0.0,0.0,-3.9028,0.0,0.0,0.0,0.0,0.0,0.0,0.0,-4.4676,-4.4855,-4.244,-4.288,0.0,-3.9373,-3.9529,-3.9978,-4.0786,-4.3021,-4.4542,-4.5442,-4.5603,-4.3879,-4.086,-4.0176,-3.8889,-3.7441,-3.8256,-3.8031,-3.7119,-3.6299,-3.4603,-3.2658,-3.2394,-3.1642,-3.083,-3.1449,0.0,0.0,0.0,0.0,-2.9655,-3.1573,-3.2199,-3.3241,-3.7396,-4.1159,-4.5323,-5.096,-5.3969,-5.5842,-5.69,-5.7649,-5.8206,-5.8508,-5.8701,-5.8978,-5.9655,-5.9347,-5.9532,-6.1348,-6.1625,-6.1871,-6.2548,-6.3749,-6.458,-6.4703,-6.5319,-6.5719,-6.5719,-6.5103,-6.4457,-6.3872,-6.4364,-6.4395,-6.3687,-6.4334,-6.4672,-6.4549,-6.4549,-6.4353,-6.399,-6.4258,-6.3974,-6.3063,-6.2714,-6.1702,-6.0086,-5.9967,-5.9608,-5.9099,-5.9099,-5.9099,-5.9159,-5.9937,-6.0535,-6.0954,-6.1313,-6.2061,-6.278,-6.1822,-6.2151,-6.2989,0.0,0.0,0.0,0.0,0.0,0.0,0.0,0.0,0.0,0.0,-4.032,-4.0496,0.0,0.0,0.0,-3.8848,-3.9329,0.0,0.0,0.0,0.0,0.0,-4.3778,-4.3898,-4.244,-4.25,0.0,-3.9373,-3.9978,-4.0905,-4.2171,-4.3589,-4.4851,-4.5875,-4.4775,-4.3205,-4.1253,-3.851,-3.7051,-3.6438,-3.6172,-3.5939,-3.563,-3.4922,-3.4109,-3.3213,-3.2048,-3.1495,-3.1322,-3.1039,-3.0805,0.0,0.0,0.0,-3.0069,-3.0477,-3.1513,-3.2826,-3.4431,-4.062,-4.7642,-5.2007,-5.4181,-5.5711,-5.7455,-5.7365,-5.695,-5.7503,-5.8212,-5.8978,-5.9655,-5.9716,-5.9932,-6.0794,-6.0948,-6.1163,-6.184,-6.261,-6.3318,-6.3903,-6.4611,-6.5042,-6.5042,-6.4395,-6.3933,-6.3787,-6.3903,-6.3656,-6.2979,-6.3595,-6.3687,-6.3102,-6.3102,-6.2832,-6.2318,-6.2354,-6.2077,-6.1429,-6.083,-6.0356,-6.0057,-5.9488,-5.9189,-5.9099,-5.9099,-5.9099,-5.9189,-6.0446,-6.0685,-6.0386,-6.2121,-6.257,-6.2271,-6.266,-6.2929,-6.3079,0.0,0.0,0.0,0.0,0.0,0.0,0.0,0.0,0.0,0.0,0.0,-4.1056,0.0,0.0,0.0,-3.9481,0.0,0.0,0.0,0.0,0.0,0.0,0.0,-4.297,-4.1332,-4.1662,-4.1205,-3.9978,-3.9888,-4.1294,-4.4058,-4.4586,-4.5532,-4.6629,-4.4691,-4.2799,-4.093,-3.8245,-3.6675,-3.5968,-3.5991,-3.6254,-3.6435,-3.4612,-3.3935,-3.3732,-3.1729,-3.1003,-3.0945,-3.0774,-3.0628,-3.0569,-3.0456,0.0,0.0,0.0,-3.0655,-3.2855,-3.751,-4.2882,-4.8089,-5.1738,-5.3922,-5.546,-5.6405,-5.6617,-5.6607,-5.6594,-5.6946,-5.7614,-5.8787,-5.8869,-5.9205,-6.035,-6.0586,-6.0678,-6.0985,-6.1704,-6.2464,-6.2924,-6.3262,-6.3653,-6.4022,-6.3439,-6.2941,-6.2733,-6.3041,-6.2979,-6.2302,-6.2887,-6.3133,-6.2825,-6.2825,-6.261,-6.2208,-6.2044,-6.1715,-6.1104,-6.0581,-6.0251,-6.0057,-5.9398,-5.9099,-5.9129,-5.9488,-5.9458,-5.9249,-6.0954,-6.1283,-6.0835,-6.245,-6.2899,-6.269,-6.2959,-6.3079,-6.3079,0.0,0.0,0.0,0.0,0.0,0.0,0.0,0.0,0.0,0.0,0.0,0.0,0.0,0.0,0.0,0.0,-3.996,0.0,0.0,0.0,0.0,0.0,0.0,0.0,-4.0427,-4.0876,-4.0876,-4.0397,-4.0247,-4.2102,-4.5813,-4.6142,-4.701,-4.8207,-4.5819,-4.3785,-4.1873,-3.9337,-3.7682,-3.6734,-3.6704,-3.6967,-3.7126,-3.5199,-3.4748,-3.4806,-3.2254,-3.1353,-3.1266,-3.0772,-3.0598,-3.0511,-2.9988,-2.9403,0.0,0.0,0.0,-3.2168,-3.8799,-4.2951,-4.6326,-5.0062,-5.2576,-5.4331,-5.4959,-5.5531,-5.5913,-5.5679,-5.5709,-5.6274,-5.7912,-5.8085,-5.851,-6.0058,-6.0272,-6.0272,-6.0272,-6.1063,-6.1729,-6.2011,-6.2195,-6.2469,-6.3012,-6.2408,-6.1905,-6.1629,-6.2112,-6.2165,-6.1489,-6.2126,-6.2487,-6.2302,-6.2302,-6.2142,-6.1905,-6.171,-6.1478,-6.1216,-6.0691,-6.0306,-6.0057,-5.9398,-5.9099,-5.9129,-5.9787,-5.9817,-5.9488,-6.1343,-6.1822,-6.1493,-6.263,-6.3079,-6.3109,-6.3258,-6.3318,-6.3318,0.0,0.0,0.0,0.0,0.0,0.0,0.0,0.0,0.0,0.0,0.0,0.0,-4.0566,-4.0505,-4.0159,-3.9314,-3.9895,-4.0152,-3.9762,-4.0329,0.0,0.0,0.0,0.0,-4.0427,-4.0427,-4.0427,-4.0397,-4.1662,-4.3928,-4.7219,-4.852,-4.9763,-5.0883,-4.8745,-4.6917,-4.525,-4.2179,-4.0402,-3.9483,-3.823,-3.7298,-3.6681,-3.6997,-3.7128,-3.6838,-3.4288,-3.3358,-3.3067,-3.1237,-3.0598,-3.0481,-2.9813,-2.9289,-2.8788,0.0,0.0,0.0,-3.4456,-3.7961,-4.1486,-4.6326,-4.9523,-5.1815,-5.3363,-5.4029,-5.4411,-5.4597,-5.501,-5.575,-5.7351,-5.7828,-5.8459,-5.9773,-6.0016,-6.0016,-6.0016,-6.0616,-6.1065,-6.1072,-6.1619,-6.2014,-6.2044,-6.1467,-6.1041,-6.1065,-6.131,-6.1194,-6.0521,-6.1344,-6.1563,-6.0917,-6.0886,-6.0813,-6.0499,-6.0577,-6.0886,-6.1433,-6.0551,-6.0141,-6.0057,-5.9398,-5.9099,-5.9129,-5.9787,-6.0057,-6.0146,-6.1523,-6.2061,-6.2121,-6.281,-6.3079,-6.3139,-6.3737,-6.3947,-6.3947,0.0,0.0,0.0,0.0,0.0,0.0,0.0,0.0,0.0,0.0,0.0,0.0,0.0,-4.0505,-4.0347,-4.0067,-3.978,-3.9699,-3.9879,-3.9586,0.0,0.0,0.0,0.0,-4.1025,-4.0606,-4.0606,-4.1025,-4.1085,-4.2791,-4.6052,-4.7369,-4.8716,-4.9883,-4.7702,-4.5994,-4.4454,-4.063,-3.8877,-3.8597,-3.8538,-3.8826,-3.9223,-3.8561,-3.8751,-3.899,-3.6118,-3.4635,-3.3939,-3.2902,-3.1968,-3.1003,-2.9929,-2.9317,-2.8925,-2.8385,-2.916,-3.0808,-3.3674,-3.6882,-4.0248,-4.3737,-4.7282,-5.0138,-5.0709,-5.2564,-5.4102,-5.38,-5.4151,-5.502,-5.644,-5.7114,-5.791,-5.9425,-5.969,-5.969,-5.969,-6.0221,-6.0685,-6.0897,-6.0936,-6.1157,-6.1561,-6.0982,-6.0508,-6.0236,-6.0154,-6.0083,-6.0024,-6.0187,-6.0454,-6.0794,-6.0363,-6.0045,-5.9787,-6.0624,-6.0971,-6.0856,-6.0505,-6.0251,-6.0057,-5.9398,-5.9338,-5.9787,-6.0446,-6.0505,-6.0236,-6.2002,-6.248,-6.2151,-6.281,-6.3079,-6.3109,-6.3318,-6.3647,-6.4006,0.0,0.0,0.0,0.0,0.0,-4.0166,-3.9964,0.0,0.0,0.0,0.0,0.0,0.0,0.0,-4.1089,-4.0909,-4.0374,-4.0047,-3.998,-3.9481,-3.939,-4.0038,0.0,0.0,-4.1025,-4.0636,-4.0726,-4.1422,-4.0935,-4.2282,-4.5304,-4.6441,-4.7788,-4.9209,-4.6582,-4.5585,-4.5615,-4.2179,-4.044,-4.0054,-4.0186,-4.0541,-4.0888,-4.0849,-4.0998,-4.0911,-3.8472,-3.7011,-3.6003,-3.4785,-3.355,-3.2317,-3.0742,-2.9493,-2.8578,-2.8245,-2.9253,-3.0836,-3.2485,-3.527,-3.8489,-4.1662,-4.4415,-4.6843,-4.885,-5.081,-5.2336,-5.2755,-5.3563,-5.461,-5.5927,-5.6496,-5.7258,-5.8633,-5.91,-5.9214,-5.9002,-5.947,-5.9984,-6.0229,-6.0266,-6.0311,-6.0555,-6.0319,-5.9893,-5.9429,-5.9427,-5.9405,-5.9399,-5.9582,-5.9982,-6.0455,-6.0024,-5.985,-5.9859,-6.0569,-6.092,-6.102,-6.056,-6.0306,-6.0057,-5.9398,-5.9458,-6.0116,-6.0805,-6.0984,-6.0864,-6.245,-6.281,-6.248,-6.2899,-6.3079,-6.3109,-6.3318,-6.3797,-6.4336,0.0,-4.1221,-4.1288,-4.1182,-4.1148,-4.0613,-3.9144,-3.9843,-4.0293,-3.9677,0.0,0.0,0.0,0.0,0.0,-4.174,-4.1678,-4.1194,-4.0107,-4.0041,-3.9864,-3.9469,0.0,0.0,-4.0487,-4.0457,-4.0756,-4.1422,-4.1392,-4.2671,-4.5214,-4.5933,-4.7309,-4.9015,-4.5813,-4.6172,-4.903,-4.698,-4.5382,-4.4216,-4.3369,-4.2268,-4.1525,-4.3844,-4.3938,-4.267,-4.1371,-4.0486,-3.9475,-3.6764,-3.5375,-3.4376,-3.2198,-2.9755,-2.7724,-2.7724,-2.8652,-2.9842,0.0,0.0,0.0,-3.9892,-4.0614,-4.1833,-4.7682,-4.858,-4.8865,-5.1528,-5.3114,-5.4461,-5.5837,-5.6158,-5.6419,-5.7226,-5.8179,-5.8629,-5.7992,-5.8477,-5.8871,-5.8902,-5.953,-5.9682,-5.8962,-5.9267,-5.9198,-5.8595,-5.9138,-5.9228,-5.8625,-5.9779,-6.0227,-5.9809,-5.9839,-6.0147,-6.0763,-6.025,-6.06,-6.1959,-6.0691,-6.0116,-6.0057,-5.9398,-5.9458,-6.0116,-6.0805,-6.1493,-6.2151,-6.281,-6.3079,-6.3079,-6.3079,-6.3079,-6.3139,-6.3737,-6.4425,-6.5024,-4.0637,-4.1584,-4.2244,-4.204,-4.204,-4.2037,-4.1991,-4.1389,-4.1196,0.0,0.0,0.0,-4.254,-4.3464,-4.3956,-4.3771,-4.3659,-4.2768,-4.0866,-4.0601,-4.0631,-4.0853,-4.0995,-4.1534,-4.2453,-4.1594,-4.1205,-4.1422,-4.0905,-4.1428,-4.2942,-4.4236,-4.5341,-4.6198,-4.6386,-4.6172,-4.5484,-4.2581,-4.2491,-4.4227,-4.305,-4.3489,-4.4851,-4.5049,-4.5441,-4.5628,-4.4252,-4.3201,-4.2133,-4.0442,-3.836,-3.5979,-3.2666,-3.0162,-2.8447,-2.8531,-2.9697,-3.0946,-3.0835,0.0,0.0,0.0,0.0,0.0,-4.1534,-4.309,-4.5046,-4.8626,-4.9673,-5.075,-5.3503,-5.46,-5.4959,-5.4688,-5.6323,-5.7513,-5.7333,-5.7691,-5.82,-5.8893,-5.8711,-5.8754,-5.9183,-5.8732,-5.8546,-5.8767,-5.8851,-5.8829,-5.8827,-5.9801,-6.0123,-5.9553,-6.0628,-6.0886,-6.0086,-6.0921,-6.1267,-6.1176,-6.0962,-6.0565,-6.0057,-5.9398,-5.9458,-6.0116,-6.0805,-6.1493,-6.2151,-6.281,-6.3079,-6.3079,-6.3079,-6.3079,-6.3109,-6.3258,-6.4066,-6.5024,-4.0925,-4.2157,-4.3166,-4.3346,-4.3308,-4.3396,-4.3698,-4.297,-4.2739,0.0,0.0,0.0,-4.4541,-4.5895,-4.6357,-4.5495,-4.508,-4.3876,-4.1596,-4.1025,-4.0751,-4.0546,-4.1085,-4.1863,-4.291,-4.2231,-4.1841,-4.1841,-4.1145,-4.098,-4.1373,-4.2841,-4.3598,-4.3823,-4.4154,-4.3916,-4.3031,-3.9757,-4.0487,-4.3928,-4.4287,-4.5185,-4.6399,-4.7399,-4.767,-4.7523,-4.7197,-4.634,-4.5122,-4.3965,-4.1113,-3.7418,-3.3656,-3.1646,-3.0539,-2.9813,-3.1093,-3.2603,-3.2151,-3.3157,-3.4646,-3.5611,0.0,0.0,-4.021,-4.1294,-4.286,-4.7369,-4.8506,-4.9434,-5.1917,-5.305,-5.3447,-5.3086,-5.465,-5.5999,-5.6173,-5.6889,-5.7556,-5.8073,-5.8094,-5.8115,-5.8359,-5.8529,-5.8503,-5.8352,-5.8874,-5.9084,-5.8805,-5.9179,-5.9265,-5.8971,-5.9993,-6.0178,-5.9378,-6.0219,-6.0448,-6.0054,-6.021,-6.0057,-5.9668,-5.9279,-5.9458,-6.0116,-6.0505,-6.1074,-6.1732,-6.2391,-6.2839,-6.3079,-6.3079,-6.3079,-6.3109,-6.3378,-6.4126,-6.5054,0.0,-4.2789,-4.4053,-4.4812,-4.489,-4.4944,-4.507,-4.4799,-4.4909,0.0,0.0,-4.6261,-4.8039,-4.922,-4.9158,0.0,-4.6388,-4.4872,-4.2545,-4.162,0.0,-3.9805,-4.0935,-4.1901,-4.25,-4.25,-4.247,-4.241,-4.1752,-4.1115,-4.0599,-4.1743,-4.2145,-4.1793,-4.0545,-4.0499,-4.1204,-3.8516,-3.9676,-4.3578,-4.5938,-4.6834,-4.7103,-5.003,-5.012,-4.8895,-5.0014,-4.9443,-4.8058,-4.6992,-4.3474,-3.8986,-3.5305,-3.4055,-3.3561,-3.1586,-3.2774,-3.4637,-3.4167,-3.4593,-3.5642,-3.748,-3.5985,0.0,-4.1047,-4.1167,-4.1564,-4.6411,-4.7981,-4.888,-5.0301,-5.1109,-5.1528,-5.1439,-5.2755,-5.404,-5.4891,-5.6051,-5.69,-5.7163,-5.7537,-5.7597,-5.7132,-5.8308,-5.8693,-5.7527,-5.8877,-5.9387,-5.8603,-5.8192,-5.8105,-5.8359,-5.8704,-5.8854,-5.8743,-5.8826,-5.8902,-5.8849,-5.9068,-5.9099,-5.9099,-5.9099,-5.9428,-5.9967,-6.0057,-6.0446,-6.1074,-6.1792,-6.245,-6.2989,-6.3049,-6.3079,-6.3139,-6.3767,-6.4425,-6.5114,-4.1588,-4.3169,-4.4907,-4.6171,-4.686,-4.7618,-4.8653,-4.7896,-4.7757,-4.9393,-4.978,-5.0463,-5.1865,-5.1598,-5.1159,0.0,0.0,0.0,0.0,0.0,-4.2296,-4.21,-4.2629,-4.2961,-4.315,-4.315,-4.288,-4.241,-4.1752,-4.1488,-4.1683,-4.1607,-4.1105,-4.0229,-3.9654,-3.9185,-3.8971,-3.9892,-4.1644,-4.3801,-4.4181,-4.6563,-4.9961,-5.0378,-5.098,-5.1522,-5.1621,-5.1111,-4.9988,-4.7561,-4.4763,-4.1773,-3.8957,-3.7389,-3.617,-3.4225,-3.5125,-3.6642,-3.6149,-3.6512,-3.6869,-3.6463,-3.6788,0.0,-3.6186,-3.7421,-3.9379,-4.1504,-4.2462,-4.3629,-4.6022,-4.701,-4.7279,-4.6741,-4.9105,-5.1947,-5.476,-5.536,-5.6242,-5.8044,-5.7256,-5.6835,-5.7432,-5.7084,-5.6959,-5.7146,-5.7506,-5.7812,-5.8165,-5.8088,-5.8003,-5.8054,-5.9063,-5.9215,-5.8491,-5.8775,-5.8827,-5.8648,-5.8961,-5.9099,-5.9099,-5.9099,-5.9189,-5.9338,-5.9847,-6.0146,-6.0386,-6.1583,-6.2181,-6.2331,-6.2869,-6.3079,-6.3139,-6.3767,-6.4425,-6.5114,-4.2126,-4.3832,-4.5792,-4.753,0.0,-4.8983,-5.069,-4.997,-4.9985,-5.1947,-5.3109,-5.381,-5.4061,-5.3678,-5.2956,-5.1805,0.0,0.0,0.0,0.0,-4.3007,-4.2236,-4.2608,-4.315,-4.3768,-4.3469,-4.318,-4.292,-4.2231,-4.1496,-4.0688,-4.0726,-4.0472,-3.989,-3.895,-3.8677,-3.8863,-3.8863,-4.0507,-4.3384,-4.6107,-4.8752,-5.1216,-5.2417,-5.3044,-5.3339,-5.3539,-5.3143,-5.1938,-4.8486,-4.6446,-4.4705,-4.0873,-4.0118,-4.006,-3.7157,-3.7754,-3.9119,-3.8025,-3.8017,-3.8325,-3.8398,-3.7866,0.0,0.0,-3.7297,-3.8058,-4.0315,-4.0524,-4.1002,-4.33,-4.3717,-4.3926,-4.4706,-4.7309,-4.9972,-5.1947,-5.3354,-5.475,-5.6251,-5.57,-5.5619,-5.6762,-5.6749,-5.6915,-5.7573,-5.7304,-5.7124,-5.7154,-5.7311,-5.7466,-5.7517,-5.8358,-5.8508,-5.792,-5.8288,-5.8313,-5.8083,-5.8428,-5.88,-5.9099,-5.9099,-5.9099,-5.9129,-5.9458,-5.9608,-5.9697,-6.1044,-6.1613,-6.1702,-6.269,-6.3258,-6.3617,-6.4276,-6.4934,-6.5622,-4.2663,-4.4369,-4.636,-4.8162,0.0,0.0,0.0,0.0,-5.1664,-5.3895,-5.5743,-5.6684,-5.6093,-5.5752,-5.4854,-5.3281,0.0,0.0,-4.6854,-4.5401,-4.4079,-4.2795,-4.2775,-4.3379,-4.4466,-4.3828,-4.3419,-4.321,-4.268,-4.1474,-3.9725,-3.9847,-3.9892,-3.9795,-3.8339,-3.8363,-3.9455,-3.7982,-3.9788,-4.4131,-4.9043,-5.0991,-5.1209,-5.3796,-5.4531,-5.4244,-5.506,-5.4931,-5.3815,-4.9999,-4.8624,-4.7695,-4.2905,-4.2934,-4.4008,-4.0379,-4.0818,-4.2088,-4.0479,-4.025,-4.0503,-4.0808,-3.9357,-3.8002,0.0,0.0,0.0,-3.9572,-3.9334,-3.9281,-4.0842,-4.0783,-4.0999,-4.2682,-4.5293,-4.7236,-4.7742,-4.9928,-5.2067,-5.3623,-5.4042,-5.4581,-5.5508,-5.5688,-5.6226,-5.7304,-5.6496,-5.5957,-5.5987,-5.6436,-5.6738,-5.6848,-5.7266,-5.7365,-5.7117,-5.7416,-5.7505,-5.7437,-5.7648,-5.8231,-5.9099,-5.8979,-5.8979,-5.9129,-5.9249,-5.9279,-5.9398,-6.0745,-6.1373,-6.1583,-6.266,-6.3468,-6.4066,-6.4784,-6.5443,-6.6101,-4.2568,-4.4369,-4.6076,-4.6898,0.0,0.0,0.0,0.0,-5.2828,-5.5544,-5.7493,-5.8829,-5.9362,-5.7978,-5.7301,-5.8293,-5.4684,-5.2236,-5.1884,-4.8753,-4.6773,-4.6405,-4.5082,-4.4639,-4.5155,-4.4526,-4.3629,-4.25,-4.244,-4.1876,-4.088,0.0,-3.9135,-3.8892,-3.7409,-3.7849,-3.9791,-3.9962,-4.3211,-4.846,-5.0876,-5.0867,-4.9618,-5.202,-5.3198,-5.3727,-5.4973,-5.5674,-5.5732,-5.3001,-5.1643,-5.0598,-4.7097,-4.665,-4.6824,-4.4124,-4.4676,-4.594,-4.4879,-4.4821,-4.4384,-4.1331,-4.1576,-4.1204,-3.5878,0.0,-3.8264,-3.6297,0.0,-3.7456,-3.7488,0.0,0.0,-3.8026,-4.071,-4.2684,-4.2342,-4.4047,-4.71,-5.1858,-5.3473,-5.4042,-5.3563,-5.2007,-5.1989,-5.4461,-5.2935,-5.2875,-5.5179,-5.5802,-5.61,-5.61,-5.6396,-5.6445,-5.615,-5.5962,-5.6263,-5.7146,-5.6667,-5.7334,-5.9069,-5.8501,-5.856,-5.9129,-5.9727,-5.9967,-6.0086,-6.1433,-6.2331,-6.2869,-6.3019,-6.3468,-6.4066,-6.4784,-6.5443,-6.6101,-4.2537,-4.4022,-4.5507,-4.6613,0.0,0.0,0.0,0.0,-5.5997,-5.7617,-5.9489,-6.098,-6.172,-6.0246,-5.9358,-5.9799,-5.7294,-5.4822,-5.2852,-5.0419,-4.8645,-4.76,-4.5697,-4.503,-4.5873,-4.4107,-4.295,-4.241,-4.1205,-4.027,0.0,0.0,-3.8727,-4.0038,-3.9469,-4.0586,-4.2913,-4.2878,-4.4131,-4.6292,-4.8621,-4.9058,-4.8883,-5.3989,-5.6055,-5.6403,-5.7332,-5.7594,-5.71,-5.4546,-5.3268,-5.2368,-5.0229,-4.9262,-4.8595,-4.7172,-4.6858,-4.6716,-4.5566,-4.5859,-4.5771,-4.2843,-4.239,-4.1489,-3.7034,-3.6374,-3.6419,-3.5608,0.0,0.0,0.0,0.0,0.0,0.0,-3.8299,-3.9498,-3.9056,-4.0964,-4.4016,-4.8252,-4.8925,-4.9673,-5.1319,-5.1079,-5.1439,-5.2935,-5.1917,-5.2037,-5.3922,-5.5159,-5.578,-5.578,-5.6028,-5.6028,-5.578,-5.6073,-5.6504,-5.7094,-5.7244,-5.7932,-5.9099,-5.883,-5.883,-5.9129,-5.9398,-5.9727,-6.0146,-6.1134,-6.1912,-6.257,-6.3318,-6.4246,-6.5203,-6.5503,-6.6011,-6.661,-4.2505,-4.3643,-4.4812,-4.6013,-4.6992,0.0,-5.1164,-5.4718,-5.7682,-5.9207,-6.0795,-6.2305,-6.3543,-6.2297,-6.1574,-6.196,-6.0259,-5.7962,-5.513,-5.2993,-5.1206,-4.9708,-4.705,-4.5985,-4.683,-4.4436,-4.295,-4.241,-4.083,-3.9875,-3.9397,0.0,0.0,-4.1202,-4.1587,-4.316,-4.5639,-4.5933,-4.6533,-4.7456,-4.9572,-5.1033,-5.2397,-5.6287,-5.8203,-5.8871,-5.919,-5.8987,-5.8232,-5.6026,-5.4836,-5.4081,-5.2804,-5.1759,-5.0801,-4.9814,-4.9184,-4.8512,-4.6969,-4.7225,-4.7169,-4.3952,-4.2637,-4.1155,-3.7608,-3.6324,-3.5947,-3.6073,-3.5956,0.0,0.0,0.0,-3.4844,-3.5751,0.0,-3.7329,-3.6674,-3.8074,-4.0561,-4.4246,-4.5024,-4.6386,-4.9343,-4.9224,-4.9612,-5.1165,-5.0226,-5.0631,-5.3054,-5.4349,-5.5219,-5.5581,-5.578,-5.578,-5.5581,-5.6193,-5.6672,-5.7094,-5.7603,-5.8291,-5.9099,-5.8919,-5.8949,-5.9129,-5.9488,-5.9817,-6.0176,-6.1224,-6.1942,-6.248,-6.3558,-6.4814,-6.6011,-6.6011,-6.643,-6.6999,-4.241,-4.3263,-4.3924,-4.4654,-4.5918,-4.8225,-5.2396,-5.4249,-5.6428,-5.9886,-6.0961,-6.2347,-6.4748,-6.4173,-6.4284,-6.5947,-6.3973,-6.2056,-6.064,-5.7408,-5.4986,-5.3871,-4.9998,-4.7994,-4.8251,-4.6232,-4.4287,-4.241,-4.2088,-4.1941,-4.195,-4.0224,0.0,0.0,-4.2808,-4.4523,-4.6683,-4.8952,-5.2076,-5.5616,-5.6601,-5.9248,-6.2151,-5.8029,-5.8,-6.0061,-5.951,-5.9306,-5.9074,-5.7681,-5.681,-5.6084,-5.4836,-5.44,-5.3994,-5.2078,-5.2368,-5.2798,-5.0564,-5.0262,-4.9291,-4.4036,-4.2392,-4.0848,-3.6065,-3.6764,-3.8171,-3.7587,-3.9428,-4.0733,-3.9344,-3.9015,-3.8248,0.0,-3.619,0.0,0.0,-3.4587,-3.5811,-4.0091,-4.323,-4.5815,-4.7867,-4.5161,-4.4864,-4.8729,-4.6821,-4.7728,-5.2905,-5.3477,-5.4255,-5.5551,-5.5631,-5.5631,-5.5581,-5.599,-5.6547,-5.7094,-5.7124,-5.7812,-5.9069,-5.8441,-5.8501,-5.9189,-6.0475,-6.0685,-6.0236,-6.2211,-6.3019,-6.3109,-6.3737,-6.4814,-6.6011,-6.6011,-6.643,-6.6999,-4.1873,-4.2884,-4.3769,-4.4022,-4.4812,-4.6992,-5.167,-5.4735,-5.7927,-6.1909,-6.3426,-6.5281,-6.8202,-6.8082,-6.7872,-6.8329,-6.7028,-6.5042,-6.2302,-5.9378,-5.7426,-5.6697,-5.2366,-5.026,-5.084,-4.7668,-4.5214,-4.3658,-4.2264,-4.1492,-4.1338,-4.0364,-4.0752,-4.2383,-4.4275,-4.6845,-4.9988,-5.1748,-5.3604,-5.5435,-5.6747,-5.9626,-6.2935,-6.1396,-6.1367,-6.2035,-6.1396,-6.1135,-6.1019,-6.0177,-5.89,-5.7739,-5.8145,-5.6549,-5.4546,-5.4749,-5.4168,-5.3239,-5.2035,-5.2253,-5.1516,-4.6149,-4.4208,-4.2339,-3.7572,-3.7761,-3.8655,-3.7579,-3.9761,-4.1448,-4.0031,-3.9479,-3.8676,0.0,0.0,0.0,0.0,-3.281,-3.391,-3.7025,-4.0246,-4.2534,-4.3337,-4.3575,-4.4489,-4.6373,-4.619,0.0,-5.105,-5.2162,-5.332,-5.464,-5.467,-5.491,-5.533,-5.6308,-5.6885,-5.7094,-5.7992,-5.865,-5.9099,-5.889,-5.889,-5.9129,-5.9578,-5.9907,-6.0176,-6.1313,-6.2032,-6.254,-6.3588,-6.4545,-6.5413,-6.5862,-6.643,-6.6999,-4.2979,-4.3011,-4.3169,-4.3959,-4.5444,-4.7877,-5.1796,-5.5557,-5.938,-6.3331,-6.529,-6.7373,-7.0167,-7.025,-7.0112,-6.9952,-6.9346,-6.7535,-6.4149,-6.2165,-6.049,-5.9075,-5.5577,-5.367,-5.3593,-5.0421,-4.7638,-4.5394,-4.4026,-4.3041,-4.2406,-4.1636,-4.202,-4.3413,-4.5602,-4.831,-5.1461,-5.4069,-5.5818,-5.695,-5.8666,-6.099,-6.3457,-6.369,-6.3486,-6.2993,-6.2325,-6.2238,-6.2354,-6.1716,-6.0526,-5.9422,-6.0032,-5.8203,-5.5939,-5.6287,-5.5358,-5.3994,-5.3152,-5.3367,-5.2741,-4.8417,-4.6628,-4.4821,-4.0411,-4.0535,-4.1279,-4.0205,-4.2005,-4.3573,-4.2934,-4.157,-3.9973,0.0,0.0,0.0,0.0,-3.2213,-3.3304,-3.5251,-3.7958,-4.0094,-4.1192,-4.1616,-4.2644,-4.4702,-4.4665,0.0,0.0,-5.078,-5.2217,-5.3803,-5.4072,-5.4521,-5.5179,-5.6226,-5.6885,-5.7094,-5.8231,-5.889,-5.9099,-5.9099,-5.9099,-5.9129,-5.9338,-5.9548,-5.9817,-6.0984,-6.1583,-6.1882,-6.3169,-6.4216,-6.5114,-6.5772,-6.643,-6.6999,-4.5412,-4.3611,-4.2505,-4.4559,-4.7593,-5.0563,-5.287,-5.6663,-6.0581,-6.4152,-6.6459,-6.8611,-7.0781,-7.1004,-7.0959,-7.1043,-7.0982,-6.9597,-6.6365,-6.5718,-6.4214,-6.1413,-5.9606,-5.7986,-5.6547,-5.4371,-5.1409,-4.7549,-4.7181,-4.6351,-4.503,-4.3931,-4.3818,-4.4663,-4.6683,-4.8827,-5.1256,-5.5753,-5.8707,-6.0496,-6.2395,-6.3516,-6.4033,-6.4706,-6.4183,-6.3051,-6.2412,-6.2587,-6.2993,-6.2325,-6.1687,-6.1077,-6.0438,-5.9364,-5.8116,-5.6897,-5.6055,-5.5242,-5.3994,-5.3646,-5.3088,-5.0758,-4.9494,-4.7887,-4.434,-4.4894,-4.5924,-4.5169,-4.6127,-4.723,-4.7608,-4.5198,-4.2266,0.0,0.0,0.0,-3.2048,-3.2629,-3.3744,-3.4668,-3.643,-3.8583,-4.1116,-3.9231,-3.9483,-4.3415,-4.2285,0.0,0.0,-4.9374,-5.099,-5.3054,-5.3803,-5.4491,-5.5179,-5.5867,-5.6526,-5.7094,-5.7812,-5.8501,-5.9099,-5.9099,-5.9099,-5.9129,-5.9757,-5.9668,-5.9249,-6.1224,-6.1672,-6.1253,-6.26,-6.3917,-6.5144,-6.5802,-6.646,-6.6999,-4.3611,-4.4559,-4.595,-4.753,-4.7688,-4.9205,-5.3839,-5.7295,-6.0929,-6.548,-6.8355,-7.1005,-7.3622,-7.3437,-7.3164,-7.3199,-7.2275,-7.1105,-6.972,-6.792,-6.6653,-6.6179,-6.3165,-6.1172,-6.0595,-5.6705,-5.3443,-5.093,-4.8462,-4.6718,-4.5713,-4.4305,-4.3791,-4.4223,-4.6018,-4.8711,-5.2091,-5.5705,-5.9466,-6.3117,-6.4085,-6.4328,-6.4004,-6.4212,-6.4067,-6.3777,-6.3603,-6.3341,-6.2993,-6.2325,-6.1687,-6.1164,-6.099,-6.0061,-5.8987,-5.8668,-5.7739,-5.6636,-5.5881,-5.5678,-5.5155,-5.3117,-5.1403,-4.9669,-4.7742,-4.8439,-4.902,-4.7375,-4.9204,-5.0133,-4.694,-4.5692,-4.3834,-3.9857,0.0,0.0,-3.3126,-3.2425,-3.298,-3.5572,-3.6441,-3.6822,-3.6738,-3.7967,-3.9017,-3.9631,-4.0771,0.0,-4.7339,-4.7399,-4.8895,-5.2336,-5.3084,-5.4012,-5.5179,-5.6286,-5.6944,-5.7094,-5.8291,-5.8949,-5.9099,-5.9099,-5.9099,-5.9129,-5.9279,-5.9249,-5.9219,-6.0745,-6.1253,-6.1283,-6.3079,-6.4575,-6.5832,-6.649,-6.6849,-6.6999,-4.4938,-4.7182,-4.9426,-5.0532,-5.0816,-5.2175,-5.5936,-5.8338,-6.1403,-6.6017,-6.8657,-7.0865,-7.2907,-7.3534,-7.3788,-7.4,-7.3291,-7.2183,-7.0582,-6.9823,-6.8971,-6.8,-6.5678,-6.4122,-6.3378,-5.9697,-5.6226,-5.3084,-5.0361,-4.7955,-4.5981,-4.4406,-4.3637,-4.3653,-4.5677,-4.8045,-5.084,-5.5827,-6.001,-6.3294,-6.4493,-6.4619,0.0,-6.4584,-6.4706,-6.4444,-6.4444,-6.4038,-6.3399,-6.2761,-6.2122,-6.1483,-6.0932,-6.009,-5.9248,-5.8958,-5.7942,-5.6897,-5.681,-5.6607,-5.62,-5.5387,-5.4168,-5.2833,-5.1556,-5.1585,-5.1614,-5.0511,-5.1062,-5.1199,-4.9175,-4.6766,-4.3485,-3.8725,-3.5648,-3.3823,-3.3532,-3.3064,-3.3474,-3.5379,-3.6283,-3.604,-3.4289,-3.6378,-3.7729,-3.7476,-3.9074,-4.1414,0.0,-4.6292,-4.8476,-5.1259,-5.2546,-5.3952,-5.5598,-5.6346,-5.6974,-5.7543,-5.8321,-5.8979,-5.9548,-5.9548,-5.9548,-5.9548,-5.9548,-5.9548,-5.9608,-6.0356,-6.1194,-6.2181,-6.4126,-6.5353,-6.6071,-6.6759,-6.6999,-6.6999,-4.7782,-5.0469,-5.2586,-5.3123,-5.5114,-5.72,-5.9016,-6.0392,-6.2635,-6.6438,-6.8658,-7.0292,-7.1319,-7.2732,-7.385,-7.437,-7.4214,-7.3106,-7.0705,-7.1533,-7.1005,-6.8547,-6.7696,-6.667,-6.5443,-6.26,-5.8919,-5.4461,-5.2187,-4.9238,-4.5756,-4.427,-4.3382,-4.3129,-4.5483,-4.7614,-4.9867,-5.6527,-6.0555,-6.2646,-6.4468,-6.4856,-6.4415,-6.5519,-6.5489,-6.4851,-6.4851,-6.4444,-6.3835,-6.3283,-6.2587,-6.1774,-6.0671,-5.9858,-5.919,-5.861,-5.7536,-5.6636,-5.7158,-5.6926,-5.6665,-5.7158,-5.6926,-5.6229,-5.5126,-5.4429,-5.3994,-5.3907,-5.2514,-5.1468,-5.2078,-4.7579,-4.2208,-3.7447,-3.5619,-3.469,-3.4404,-3.4603,-3.4903,-3.5249,-3.6593,0.0,-3.3522,-3.5044,-3.619,-3.6085,-3.7195,-3.8931,-4.1422,-4.5334,-4.8386,-5.0255,-5.2366,-5.4311,-5.6166,-5.6436,-5.7094,-5.8112,-5.8291,-5.8979,-6.0086,-6.0176,-6.0206,-6.0206,-6.0206,-6.0206,-6.0236,-6.0326,-6.1523,-6.3498,-6.5203,-6.5981,-6.6191,-6.6789,-6.6999,-6.6999,-4.9394,-5.2229,-5.4407,-5.4008,-5.6599,-6.0012,-6.376,-6.5448,-6.689,-6.8508,-7.1499,-7.3803,-7.4563,-7.4439,-7.4933,-7.6338,-7.5476,-7.4615,-7.4153,-7.3303,-7.2341,-7.1339,-6.9592,-6.8286,-6.7478,-6.3288,-5.9368,-5.5837,-5.2187,-4.8402,-4.4564,-4.3586,-4.314,-4.3339,-4.5221,-4.9624,-5.5786,-5.9303,-6.2175,-6.459,-6.5772,-6.5979,-6.5635,-6.6189,-6.5484,-6.4212,-6.4212,-6.3806,-6.3225,-6.3138,-6.2325,-6.1309,-6.1106,-6.0235,-5.9277,-5.9161,-5.8174,-5.7158,-5.7274,-5.7216,-5.7158,-5.7274,-5.7216,-5.71,-5.6868,-5.6723,-5.649,-5.5997,-5.5184,-5.3675,-5.0772,-4.5953,-4.1599,-3.9102,-3.7622,-3.7302,-3.8725,-3.7709,-3.7186,-3.8269,-3.9711,-3.9023,-3.496,-3.5707,-3.5723,-3.3988,-3.468,-3.7259,-4.1961,-4.301,-4.5753,0.0,-5.3503,-5.5269,0.0,0.0,-5.8441,-5.8141,-5.9219,-5.9847,-6.0116,-6.0685,-6.0924,-6.0924,-6.0924,-6.0924,-6.0984,-6.1523,-6.2899,-6.4725,-6.5054,-6.5862,-6.6819,-6.6939,-6.6999,-6.6999,-5.245,-5.4861,-5.701,-5.7737,-6.0487,-6.3489,-6.6207,-6.891,-7.0413,-6.9866,-7.1214,-7.254,-7.3261,-7.385,-7.4712,-7.5846,-7.5384,-7.4643,-7.3746,-7.3605,-7.3126,-7.2266,-7.0457,-6.9183,-6.8525,-6.4635,-6.0655,-5.6645,-5.2695,-4.8716,-4.4796,-4.3577,-4.2952,-4.297,-4.5908,-5.0687,-5.6743,-5.907,-6.1792,-6.4619,-6.6113,-6.6374,-6.5983,-6.6497,-6.5763,-6.4473,-6.4091,-6.3632,-6.3051,-6.2703,-6.1948,-6.1135,-6.0787,-6.0264,-5.9713,-5.9393,-5.861,-5.7884,-5.8232,-5.7826,-5.739,-5.7739,-5.7565,-5.7303,-5.7303,-5.7303,-5.7216,-5.6926,-5.6084,-5.4226,-5.0394,-4.633,-4.3137,-4.1889,-4.0031,-3.9421,-4.1337,-4.0263,-3.9509,-4.0118,-4.0898,-3.9836,-3.581,-3.6259,-3.5747,-3.3094,-3.3872,-3.636,-4.0606,0.0,-4.5633,0.0,0.0,0.0,-5.6645,0.0,-5.9458,-5.9159,-6.0146,-6.0805,-6.1134,-6.1463,-6.1613,-6.1613,-6.1613,-6.1613,-6.1732,-6.3079,-6.3977,-6.4605,-6.5652,-6.643,-6.6999,-6.6999,-6.6999,-6.6999,-5.5873,-5.7832,-5.9886,-6.1561,-6.4279,-6.6649,-6.785,-7.1074,-7.2818,-7.1101,-7.0921,-7.1189,-7.1809,-7.3138,-7.4276,-7.4953,-7.5138,-7.4518,-7.2821,-7.354,-7.3456,-7.2249,-7.0783,-6.9662,-6.9004,-6.5862,-6.1942,-5.7304,-5.3503,-4.9464,-4.5274,0.0,-4.3409,-4.3848,-4.7788,-5.2247,-5.6974,-5.8892,-6.1645,-6.4858,-6.6318,-6.6643,-6.6287,-6.673,-6.6025,-6.4706,-6.4212,-6.3545,-6.279,-6.2267,-6.1687,-6.1106,-6.0584,-6.0322,-6.0119,-5.9626,-5.9016,-5.8639,-5.9161,-5.8523,-5.7855,-5.8377,-5.8116,-5.7739,-5.7739,-5.7623,-5.7507,-5.7507,-5.6403,-5.4284,-5.0569,-4.7927,-4.5837,-4.4414,-4.2789,-4.2208,-4.3602,-4.2818,-4.2005,-4.1744,-4.1499,-3.9993,-3.6634,-3.636,-3.5525,-3.3304,-3.3724,-3.5639,-3.9194,0.0,-4.5633,-4.9837,-5.3533,-5.5807,-5.6675,0.0,-6.0356,-6.0086,-6.0924,-6.1583,-6.2091,-6.2241,-6.2301,-6.2301,-6.2301,-6.2391,-6.263,-6.4336,-6.4784,-6.4575,-6.6161,-6.6879,-6.6999,-6.6999,-6.7089,-6.7208,-5.878,-6.1119,-6.3046,-6.3236,-6.6112,-6.864,-6.9367,-7.1703,-7.3202,-7.2717,-7.2948,-7.3355,-7.3692,-7.3876,-7.4276,-7.4953,-7.5569,-7.5194,-7.3525,-7.3784,-7.3244,-7.1556,-7.0543,-6.9662,-6.9004,-6.634,-6.266,-5.8022,-5.464,-5.0361,-4.5274,-4.4515,-4.5484,-4.7908,-5.1887,-5.5598,-5.8955,-6.099,-6.3888,-6.7123,-6.7044,-6.7107,-6.723,-6.7054,-6.5802,-6.4125,-6.4004,-6.3225,-6.218,-6.2122,-6.1687,-6.1193,-6.1135,-6.07,-6.0177,-6.0119,-5.9684,-5.9219,-5.9277,-5.9219,-5.9132,-5.919,-5.9161,-5.9103,-5.9103,-5.8639,-5.8203,-5.8203,-5.6723,-5.4429,-5.1178,-5.0801,-4.964,-4.5488,-4.6069,-4.6911,-4.6488,-4.5866,-4.4995,-4.3863,-4.2221,-4.0188,-3.784,-3.555,-3.4505,-3.5158,-3.3664,-3.4651,-3.9134,-4.0846,-4.4018,-4.9239,-5.3792,-5.5837,-5.5359,-5.9727,-6.1283,-6.0116,-6.1403,-6.2032,-6.2121,-6.272,-6.2989,-6.2989,-6.2989,-6.3318,-6.3887,-6.4695,-6.5353,-6.5832,-6.6011,-6.646,-6.6999,-6.6999,-6.7358,-6.7897,-6.267,-6.3514,-6.4753,-6.6839,-6.8039,-6.9493,-7.1863,-7.3214,-7.3892,-7.3499,-7.3849,-7.4097,-7.4031,-7.3999,-7.4091,-7.4368,-7.4823,-7.4412,-7.2718,-7.3672,-7.3461,-7.1743,-7.1313,-7.0829,-7.0171,-6.7567,-6.4336,-6.0505,-5.6406,-5.2276,-4.8237,-4.7189,-4.8327,-5.1379,-5.497,-5.7962,-6.042,-6.2644,-6.484,-6.6889,-6.693,-6.7035,-6.7083,-6.6976,-6.6201,-6.5128,-6.4531,-6.4002,-6.3386,-6.2416,-6.1687,-6.1193,-6.1193,-6.1019,-6.0787,-6.0787,-6.0351,-5.9916,-6.0322,-5.9887,-5.9393,-5.9742,-5.9568,-5.9306,-5.9306,-5.8784,-5.829,-5.829,-5.7071,-5.5503,-5.382,-5.2484,-5.141,-5.0772,-5.0017,-4.9698,-5.0191,-4.874,-4.7114,-4.5837,-4.334,-4.0975,-3.9135,-3.6575,-3.5655,-3.7131,-3.3933,-3.3723,-3.7973,-3.9858,-4.2851,-4.7369,0.0,-5.6047,-5.5777,-6.0386,-6.2211,-6.1313,-6.2241,-6.269,-6.269,-6.2959,-6.3288,-6.3617,-6.3617,-6.4006,-6.4665,-6.5353,-6.5772,-6.6041,-6.643,-6.6759,-6.6999,-6.6999,-6.7418,-6.8016,-6.5869,-6.6027,-6.6997,-7.0062,-7.0322,-7.0929,-7.339,-7.4039,-7.4118,-7.3814,-7.4191,-7.4314,-7.3785,-7.3691,-7.3691,-7.3691,-7.4204,-7.3822,-7.2098,-7.332,-7.3383,-7.1667,-7.1607,-7.1278,-7.0649,-6.8615,-6.6071,-6.2959,-5.9099,-5.5418,-5.1947,-5.084,-5.1858,-5.476,-5.7902,-6.0296,-6.2064,-6.3981,-6.5616,-6.6927,-6.6819,-6.69,-6.7048,-6.6841,-6.6454,-6.5886,-6.5228,-6.463,-6.4038,-6.2919,-6.1922,-6.1193,-6.1193,-6.1193,-6.1193,-6.1193,-6.0874,-6.0584,-6.1077,-6.0526,-5.9974,-6.038,-6.0177,-5.9858,-5.9858,-5.9335,-5.8755,-5.8377,-5.7594,-5.6752,-5.6084,-5.4342,-5.3297,-5.4081,-5.3007,-5.2049,-5.2071,-5.0278,-4.8333,-4.6475,-4.3108,-4.0527,-3.9442,-3.7222,-3.6778,-3.9032,-3.6234,-3.5786,-3.899,-4.0487,-4.3269,-4.7595,-5.3414,-5.6526,-5.6735,-6.0954,-6.2839,-6.2391,-6.2839,-6.3288,-6.3647,-6.3647,-6.3887,-6.4306,-6.4515,-6.4874,-6.5383,-6.6011,-6.6311,-6.634,-6.6819,-6.6999,-6.6999,-6.7208,-6.7567,-6.8106,-6.7817,-6.8926,-7.0283,-7.2401,-7.3115,-7.3352,-7.3383,-7.3649,-7.3814,-7.3539,-7.4098,-7.4128,-7.3138,-7.2983,-7.2983,-7.2983,-7.3928,-7.3822,-7.2098,-7.2897,-7.2691,-7.0979,-7.0919,-7.062,-6.9991,-6.9333,-6.7657,-6.4934,-6.2989,-5.9997,-5.6077,-5.5418,-5.6166,-5.8171,-6.0864,-6.275,-6.4036,-6.5052,-6.6453,-6.7897,-6.6897,-6.6892,-6.7397,-6.6773,-6.6257,-6.6007,-6.6007,-6.4996,-6.3635,-6.3573,-6.2543,-6.1193,-6.1193,-6.1193,-6.1193,-6.1193,-6.1193,-6.1193,-6.1193,-6.1193,-6.1164,-6.1193,-6.1164,-6.1164,-6.1164,-6.0642,-5.9829,-5.8552,-5.829,-5.8087,-5.739,-5.6781,-5.5736,-5.3849,-5.4546,-5.4255,-5.1149,-5.0133,-4.8508,-4.5285,-4.096,-3.8306,-3.8493,-3.6981,-3.7399,-4.0812,-4.1181,-4.1833,-4.314,-4.323,-4.5681,-5.099,-5.4999,-5.7423,-5.8082,-6.1403,-6.3079,-6.3079,-6.3079,-6.3767,-6.4994,-6.4994,-6.4994,-6.4994,-6.5712,-6.5981,-6.6041,-6.67,-6.6969,-6.6969,-6.6999,-6.6999,-6.7059,-6.7717,-6.7956,-6.8166,-6.9208,-7.0671,-7.1964,-7.2396,-7.2971,-7.3481,-7.3711,-7.3841,-7.3814,-7.357,-7.4098,-7.4314,-7.3754,-7.4091,-7.4305,-7.405,-7.4459,-7.4254,-7.3048,-7.3894,-7.3776,-7.2325,-7.2265,-7.1966,-7.1278,-7.0231,-6.9034,-6.7747,-6.5293,-6.254,-5.9548,-5.9787,-6.0475,-6.1583,-6.3797,-6.4994,-6.5443,-6.6667,-6.7266,-6.7328,-6.7444,-6.7384,-6.7205,-6.7444,-6.7202,-6.6629,-6.6444,-6.5991,-6.5424,-6.4487,-6.3892,-6.3272,-6.2154,-6.1513,-6.128,-6.1687,-6.1513,-6.1193,-6.1193,-6.1193,-6.1193,-6.1193,-6.1193,-6.1193,-6.1193,-6.0671,-5.9974,-5.9161,-5.8987,-5.8929,-5.8697,-5.8145,-5.7305,-5.601,-5.5808,-5.4826,-5.203,-5.0356,-4.8586,-4.643,-4.3398,-4.1564,-4.1766,-4.0871,-4.0646,-4.1469,-4.124,-4.1581,-4.2611,-4.5663,-4.8147,-4.9823,-5.5245,-5.8763,-6.0146,-6.2311,-6.3562,-6.3707,-6.4186,-6.4635,-6.4964,-6.4755,-6.5024,-6.5712,-6.568,-6.6337,-6.7328,-6.7089,-6.7268,-6.7657,-6.7657,-6.7657,-6.7747,-6.8435,-6.8675,-6.8794,-7.0219,-7.1504,-7.2643,-7.2692,-7.3083,-7.3528,-7.3691,-7.3631,-7.3508,-7.3293,-7.4128,-7.4528,-7.403,-7.5046,-7.544,-7.4562,-7.4754,-7.4516,-7.3455,-7.4114,-7.4031,-7.2954,-7.2654,-7.2325,-7.1906,-7.0859,-7.0021,-6.9363,-6.6939,-6.5054,-6.3707,-6.3857,-6.4276,-6.4964,-6.6191,-6.6759,-6.6789,-6.7627,-6.7597,-6.7059,-6.7717,-6.7567,-6.7029,-6.7448,-6.7358,-6.6999,-6.6753,-6.6451,-6.5999,-6.5153,-6.4549,-6.4071,-6.324,-6.2535,-6.1948,-6.2064,-6.1832,-6.16,-6.1832,-6.1716,-6.1542,-6.1542,-6.1367,-6.1193,-6.1193,-6.0874,-6.0409,-5.9771,-5.9626,-5.9568,-5.9335,-5.8755,-5.803,-5.7193,-5.6126,-5.4595,-5.2255,-5.0088,-4.8172,-4.6633,-4.4647,-4.3499,-4.386,-4.4266,-4.4469,-4.4536,-4.5872,-4.6725,-4.6672,-4.8551,-5.0541,-5.2516,-5.7623,-6.1055,-6.257,-6.3563,-6.4367,-6.4755,-6.5443,-6.5562,-6.5173,-6.52,-6.5737,-6.6576,-6.633,-6.7049,-6.8315,-6.7627,-6.7535,-6.7769,-6.7501,-6.7561,-6.7859,-6.8545,-6.8877,-6.9123,-7.075,-7.1612,-7.2477,-7.3136,-7.3376,-7.3447,-7.3478,-7.3169,-7.2983,-7.2983,-7.4153,-7.4769,-7.4122,-7.5846,-7.6392,-7.4837,-7.4876,-7.4607,-7.3575,-7.3814,-7.3702,-7.3073,-7.2355,-7.1966,-7.1966,-7.1278,-7.0649,-7.0111,-6.8196,-6.7567,-6.8166,-6.7508,-6.7508,-6.8046,-6.8046,-6.8046,-6.8046,-6.7986,-6.7627,-6.7119,-6.7717,-6.7567,-6.6999,-6.7029,-6.7029,-6.6999,-6.6999,-6.6397,-6.5616,-6.5555,-6.4803,-6.3869,-6.4396,-6.3943,-6.3084,-6.2354,-6.2122,-6.2209,-6.279,-6.2529,-6.2093,-6.2035,-6.16,-6.1193,-6.1193,-6.1193,-6.1019,-6.0409,-6.0235,-6.0032,-5.948,-5.8784,-5.8058,-5.7361,-5.5652,-5.3767,-5.1766,-4.9446,-4.7521,-4.6301,-4.5198,-4.4734,-4.5227,-4.7199,-4.8577,-4.908,-5.3216,-5.5181,-5.3832,-5.1768,-5.3017,-5.8171,-6.1493,-6.3857,-6.5144,-6.5114,-6.5473,-6.6221,-6.6789,-6.6546,-6.5674,-6.6266,-6.6859,-6.7397,-6.7456,-6.8032,-6.8821,-6.8196,-6.774,-6.7426,-6.68,-6.7011,-6.7634,-6.8318,-6.884,-6.9243,-7.013,-7.1093,-7.1967,-7.1917,-7.2268,-7.2736,-7.3077,-7.3045,-7.2983,-7.2983,-7.4153,-7.4953,-7.4769,-7.6123,-7.6976,-7.6829,-7.6124,-7.5516,-7.4962,-7.4744,-7.4706,-7.4827,-7.3417,-7.2684,-7.2684,-7.1517,-7.1068,-7.1427,-7.044,-7.0051,-7.0201,-6.9572,-6.9093,-6.8764,-6.8764,-6.8764,-6.8734,-6.8196,-6.7897,-6.7747,-6.7897,-6.7567,-6.7059,-6.7537,-6.7418,-6.6999,-6.6999,-6.6818,-6.6637,-6.6391,-6.6026,-6.5725,-6.5061,-6.4517,-6.3972,-6.3113,-6.2499,-6.2035,-6.1716,-6.1861,-6.1977,-6.1513,-6.1309,-6.1193,-6.1193,-6.1193,-6.1164,-6.099,-6.0555,-6.0148,-6.0003,-5.9074,-5.7885,-5.6501,-5.5143,-5.3328,-5.0882,-5.0018,-4.9424,-4.8885,-4.9378,-4.9698,-4.9349,-5.0697,-5.0581,-4.833,-5.0194,-5.195,-5.3157,-5.4687,-5.7036,-6.0271,-6.2877,-6.4964,-6.652,-6.6276,-6.6872,-6.8286,-6.7585,-6.7222,-6.704,-6.7123,-6.7039,-6.6773,-6.6967,-6.7356,-6.779,-6.7135,-6.6978,-6.7137,-6.7491,-6.7826,-6.8347,-6.9246,-6.9625,-6.9807,-6.988,-7.0544,-7.1267,-7.134,-7.1591,-7.1997,-7.2891,-7.2706,-7.2737,-7.3353,-7.4368,-7.5015,-7.5015,-7.6215,-7.6915,-7.6615,-7.6215,-7.5971,-7.5866,-7.5254,-7.5006,-7.5142,-7.3679,-7.3043,-7.3343,-7.2026,-7.1517,-7.1876,-7.1218,-7.0889,-7.0889,-7.056,-7.0201,-6.9842,-6.9273,-6.9183,-6.9393,-6.8734,-6.8256,-6.8048,-6.8315,-6.7867,-6.7029,-6.7388,-6.7298,-6.6999,-6.6999,-6.6999,-6.6999,-6.6814,-6.6629,-6.6384,-6.5875,-6.5241,-6.4517,-6.3564,-6.2942,-6.2558,-6.2499,-6.2296,-6.1948,-6.1338,-6.1193,-6.1193,-6.1193,-6.1193,-6.1193,-6.1193,-6.0903,-6.0467,-5.9887,-5.9219,-5.8001,-5.5661,-5.4736,-5.3405,-5.0782,-5.0406,-5.0709,-5.1381,-5.2049,-5.2804,-5.3617,-5.4313,-5.3646,-5.1062,-5.3227,-5.4842,-5.5177,-5.8916,-6.1496,-6.2639,-6.4784,-6.6572,-6.7897,-6.771,-6.8035,-6.8721,-6.7846,-6.7267,-6.7014,-6.695,-6.6955,-6.6892,-6.7089,-6.7653,-6.8511,-6.7267,-6.7073,-6.7613,-6.7211,-6.755,-6.8269,-6.898,-6.9476,-6.9794,-6.9787,-7.0054,-7.0472,-7.1218,-7.1102,-7.1383,-7.2768,-7.2491,-7.2583,-7.3845,-7.4584,-7.5046,-7.5138,-7.6277,-7.67,-7.5946,-7.5922,-7.6038,-7.6296,-7.5442,-7.4937,-7.4937,-7.3702,-7.3313,-7.3881,-7.2684,-7.2086,-7.2176,-7.1427,-7.1098,-7.1188,-7.1009,-7.0889,-7.0859,-6.9782,-6.9602,-7.0081,-6.9423,-6.8764,-6.8166,-6.8645,-6.8106,-6.6999,-6.6999,-6.6999,-6.6999,-6.6999,-6.6999,-6.6999,-6.6999,-6.6814,-6.6568,-6.6568,-6.5967,-6.5005,-6.4024,-6.345,-6.3229,-6.3632,-6.2935,-6.1977,-6.1454,-6.128,-6.1193,-6.1193,-6.1193,-6.1193,-6.1193,-6.1106,-6.0729,-5.9626,-5.9277,-5.8174,-5.5126,-5.4575,-5.3617,-5.1033,-5.0917,-5.173,-5.3471,-5.3994,-5.5068,-5.7245,-5.7448,-5.681,-5.5213,-5.8,-5.9364,-5.8514,-6.2606,-6.4931,-6.4927,-6.6619,-6.8024,-6.8997,-6.9027,-6.8929,-6.8605,-6.8042,-6.7398,-6.6733,-6.6756,-6.6932,-6.723,-6.7347,-6.8158,-6.9244,-6.7594,-6.743,-6.8013,-6.6814,-6.7,-6.8036,-6.8383,-6.8961,-6.9524,-6.9875,-6.9681,-6.9856,-7.0795,-7.089,-7.1383,-7.2768,-7.2891,-7.3106,-7.3907,-7.4584,-7.523,-7.5784,-7.6554,-7.7134,-7.7596,-7.6375,-7.5739,-7.6008,-7.561,-7.5346,-7.5346,-7.4286,-7.3791,-7.3881,-7.3133,-7.3013,-7.3582,-7.2355,-7.2026,-7.2565,-7.1427,-7.0889,-7.0889,-7.0709,-7.0649,-7.0709,-7.0081,-6.9453,-6.8794,-6.8315,-6.7657,-6.6999,-6.6999,-6.6999,-6.6999,-6.6999,-6.6999,-6.6999,-6.6999,-6.6999,-6.6937,-6.6937,-6.6602,-6.6058,-6.4781,-6.4001,-6.3363,-6.259,-6.2238,-6.2064,-6.1977,-6.1571,-6.1193,-6.1193,-6.1193,-6.1193,-6.1193,-6.0758,-6.0293,-6.009,-5.919,-5.7768,-5.562,-5.4836,-5.3617,-5.1033,-5.2049,-5.3384,-5.4255,-5.6258,-5.771,-5.8116,-5.8145,-5.8029,-5.7739,-5.7739,-5.8813,-6.1282,-6.2154,-6.3939,-6.6832,-6.7565,-6.8165,-6.8879,-6.9203,-6.9471,-6.9641,-6.9222,-6.8672,-6.8108,-6.8332,-6.772,-6.6616,-6.7172,-6.723,-6.6914,-6.6622,-6.675,-6.7189,-6.745,-6.7881,-6.8379,-6.8669,-6.9236,-6.9722,-7.0574,-7.0264,-7.0289,-7.1531,-7.1257,-7.1383,-7.2768,-7.2983,-7.3353,-7.4399,-7.5138,-7.5815,-7.6492,-7.6831,-7.7139,-7.7447,-7.6792,-7.6283,-7.6258,-7.5352,-7.4917,-7.5142,-7.4308,-7.3881,-7.3881,-7.3612,-7.3582,-7.3881,-7.2924,-7.2415,-7.2355,-7.1727,-7.1248,-7.0859,-7.0201,-7.026,-7.0799,-6.9482,-6.8944,-6.8944,-6.8256,-6.7567,-6.6999,-6.6999,-6.6999,-6.6999,-6.6999,-6.6999,-6.6999,-6.6999,-6.6999,-6.6999,-6.6999,-6.6637,-6.6036,-6.5107,-6.394,-6.284,-6.1895,-6.1832,-6.2006,-6.1687,-6.1396,-6.1193,-6.1193,-6.1193,-6.1193,-6.1193,-6.0961,-6.0642,-6.0264,-5.9451,-5.8319,-5.6694,-5.562,-5.4575,-5.3384,-5.3994,-5.5039,-5.6403,-5.7913,-5.9248,-6.0235,-6.0061,-5.9858,-5.9858,-5.9887,-6.0526,-6.2006,-6.3399,-6.506,-6.7087,-6.8341,-6.9198,-6.969,-6.969,-6.9641,-6.9537,-6.9052,-6.8531,-6.8136,-6.8256,-6.7907,-6.7262,-6.7553,-6.7662,-6.7633,-6.697,-6.716,-6.7899,-6.772,-6.7976,-6.843,-6.8722,-6.8972,-6.9068,-7.1101,-7.0914,-7.1058,-7.2086,-7.1688,-7.1567,-7.2798,-7.2983,-7.3476,-7.483,-7.5446,-7.6092,-7.6923,-7.7016,-7.7016,-7.7016,-7.6892,-7.673,-7.6523,-7.5316,-7.4788,-7.4976,-7.4458,-7.4121,-7.4121,-7.4121,-7.4121,-7.4121,-7.3313,-7.2654,-7.2116,-7.1816,-7.1308,-7.0649,-6.9662,-6.9782,-7.059,-6.9093,-6.8645,-6.8944,-6.8435,-6.7717,-6.6999,-6.6999,-6.6999,-6.6999,-6.6999,-6.6999,-6.6999,-6.6999,-6.6999,-6.6999,-6.6999,-6.664,-6.607,-6.5433,-6.4209,-6.2846,-6.2016,-6.2099,-6.2302,-6.1571,-6.1396,-6.1396,-6.1396,-6.1309,-6.1251,-6.1367,-6.1396,-6.1222,-6.0555,-6.0061,-5.9219,-5.7565,-5.649,-5.5736,-5.5445,-5.5794,-5.6752,-5.8523,-5.9451,-6.0526,-6.1948,-6.1803,-6.1571,-6.1425,-6.2122,-6.2558,-6.2558,-6.4561,-6.6135,-6.7116,-6.8862,-6.9869,-7.0068,-6.9869,-6.9537,-6.9203,-6.8706,-6.8369,-6.8102,-6.8102,-6.8015,-6.787,-6.787,-6.816,-6.8538,-6.7522,-6.7783,-6.8741,-6.8019,-6.8064,-6.8539,-6.8804,-6.8738,-6.856,-7.0933,-7.1378,-7.1827,-7.2028,-7.1998,-7.2152,-7.286,-7.2983,-7.3476,-7.483,-7.5046,-7.5569,-7.6892,-7.7016,-7.7016,-7.7016,-7.6461,-7.6208,-7.6493,-7.5846,-7.5388,-7.5384,-7.5044,-7.4809,-7.4809,-7.4809,-7.4809,-7.4809,-7.3522,-7.2894,-7.2804,-7.1547,-7.0649,-7.0051,-6.9961,-6.9961,-7.0051,-6.9901,-6.9512,-6.9004,-6.8944,-6.8136,-6.6999,-6.6999,-6.6999,-6.6999,-6.6999,-6.6999,-6.6999,-6.6999,-6.6999,-6.6999,-6.6999,-6.6969,-6.6789,-6.613,-6.5202,-6.4305,-6.3608,-6.3453,-6.3246,-6.227,-6.2035,-6.2035,-6.2035,-6.16,-6.1367,-6.1919,-6.2035,-6.1832,-6.1222,-6.1077,-6.0235,-5.771,-5.7216,-5.6752,-5.5591,-5.6955,-5.8581,-5.9887,-6.1135,-6.1948,-6.2093,-6.2616,-6.2703,-6.2064,-6.3196,-6.383,-6.383,-6.4648,-6.5956,-6.783,-6.8862,-6.9203,-6.8895,-6.9203,-6.9136,-6.8828,-6.877,-6.877,-6.8741,-6.8741,-6.845,-6.787,-6.787,-6.7899,-6.7957,-6.7841,-6.8218,-6.8828,-6.8712,-6.8712,-6.8741,-6.8837,-6.8808,-6.877,-7.2324,-7.2464,-7.2571,-7.286,-7.2737,-7.2675,-7.2952,-7.3322,-7.3937,-7.4892,-7.5015,-7.5353,-7.6277,-7.64,-7.6215,-7.5815,-7.6308,-7.6335,-7.5621,-7.5916,-7.5881,-7.5414,-7.4684,-7.427,-7.427,-7.3881,-7.3672,-7.3672,-7.3163,-7.2684,-7.2265,-7.1757,-7.0979,-6.9961,-6.9542,-6.9602,-6.9931,-6.9093,-6.8761,-6.8691,-6.821,-6.7495,-6.6691,-6.6691,-6.6814,-6.6999,-6.6999,-6.6999,-6.6999,-6.6999,-6.6999,-6.6999,-6.6999,-6.6999,-6.6788,-6.5978,-6.5286,-6.4774,-6.4529,-6.405,-6.3515,-6.3129,-6.2887,-6.2703,-6.2703,-6.2529,-6.2441,-6.2674,-6.2703,-6.2645,-6.2412,-6.2035,-6.1425,-6.0438,-5.9306,-5.8493,-5.8406,-5.9016,-5.98,-6.07,-6.1948,-6.2877,-6.3254,-6.3516,-6.3719,-6.3864,-6.4357,-6.4619,-6.4619,-6.5606,-6.6824,-6.8187,-6.8765,-6.9165,-6.947,-6.9136,-6.8963,-6.8828,-6.8828,-6.8828,-6.8828,-6.8828,-6.8683,-6.8479,-6.8479,-6.8479,-6.8479,-6.8479,-6.8596,-6.8828,-6.8828,-6.8828,-6.8828,-6.8828,-6.8828,-6.8828,-7.2791,-7.2842,-7.2854,-7.3231,-7.3169,-7.2983,-7.2983,-7.3568,-7.4245,-7.4922,-7.5199,-7.5569,-7.6246,-7.6154,-7.5907,-7.5661,-7.6092,-7.6184,-7.5661,-7.6165,-7.6033,-7.5113,-7.4459,-7.3926,-7.3582,-7.3163,-7.2924,-7.2924,-7.2684,-7.2355,-7.1876,-7.1667,-7.1009,-6.9961,-6.9512,-6.9572,-6.9931,-6.9004,-6.8545,-6.847,-6.8024,-6.7215,-6.6319,-6.6319,-6.6568,-6.6876,-6.6876,-6.6937,-6.6999,-6.6999,-6.6999,-6.6999,-6.6999,-6.6999,-6.6848,-6.6032,-6.5638,-6.5485,-6.5485,-6.4882,-6.4191,-6.3924,-6.3681,-6.3495,-6.3399,-6.3225,-6.3138,-6.3341,-6.3399,-6.3312,-6.3138,-6.2877,-6.2558,-6.2151,-6.1019,-6.0322,-6.0729,-6.099,-6.1338,-6.2006,-6.3051,-6.3777,-6.3946,-6.4212,-6.4444,-6.4677,-6.488,-6.5083,-6.5257,-6.6302,-6.7371,-6.8371,-6.8681,-6.9068,-6.9737,-6.9098,-6.8828,-6.8828,-6.8828,-6.8828,-6.8828,-6.8828,-6.8828,-6.8828,-6.8828,-6.8828,-6.8828,-6.8828,-6.8828,-6.8828,-6.8828,-6.8828,-6.8828,-6.8828,-6.8828,-6.8828,-7.1842,-7.214,-7.2519,-7.2922,-7.2983,-7.2983,-7.2983,-7.3537,-7.4214,-7.4922,-7.5569,-7.6246,-7.6923,-7.64,-7.6277,-7.6954,-7.5784,-7.5569,-7.6923,-7.6656,-7.5886,-7.4486,-7.4389,-7.3954,-7.2924,-7.2894,-7.2894,-7.2894,-7.2206,-7.1876,-7.1876,-7.1218,-7.056,-6.9991,-6.9991,-6.9991,-6.9991,-6.9991,-6.9411,-6.85,-6.85,-6.7475,-6.6007,-6.6007,-6.6195,-6.6506,-6.6506,-6.6691,-6.6999,-6.6999,-6.6999,-6.6999,-6.6999,-6.6999,-6.6937,-6.6629,-6.6506,-6.6506,-6.6506,-6.6007,-6.5329,-6.4685,-6.4539,-6.4414,-6.4101,-6.3574,-6.3283,-6.3922,-6.3975,-6.3864,-6.3225,-6.3603,-6.3603,-6.2296,-6.2093,-6.2093,-6.2093,-6.2674,-6.3341,-6.3888,-6.459,-6.4735,-6.4033,-6.4619,-6.4735,-6.4033,-6.4648,-6.5257,-6.5896,-6.6535,-6.74,-6.8371,-6.8681,-6.8963,-6.927,-6.8963,-6.8828,-6.8828,-6.8828,-6.8828,-6.8828,-6.8828,-6.8828,-6.8828,-6.8828,-6.8828,-6.8828,-6.8828,-6.8828,-6.8828,-6.8828,-6.8828,-6.8828,-6.8828,-6.8828,-6.8828,-7.3154,-7.3257,-7.3107,-7.3015,-7.2983,-7.2983,-7.2983,-7.3168,-7.3691,-7.4861,-7.4769,-7.4861,-7.5538,-7.5846,-7.5723,-7.4953,-7.5384,-7.5877,-7.6277,-7.5747,-7.5184,-7.4515,-7.396,-7.3329,-7.2535,-7.1888,-7.1517,-7.1517,-7.1308,-7.1188,-7.1188,-7.0979,-7.056,-6.9991,-6.9991,-6.9991,-6.9991,-6.9991,-6.9253,-6.8146,-6.8146,-6.7157,-6.5664,-6.5664,-6.5882,-6.6192,-6.6635,-6.7034,-6.7436,-6.782,-6.8187,-6.8405,-6.8405,-6.8405,-6.8343,-6.7998,-6.7935,-6.7935,-6.7935,-6.7745,-6.7441,-6.679,-6.6265,-6.5885,-6.5786,-6.5962,-6.5868,-6.4915,-6.5054,-6.517,-6.4532,-6.459,-6.427,-6.2993,-6.3167,-6.3138,-6.2238,-6.3051,-6.3835,-6.3946,-6.459,-6.4909,-6.4735,-6.488,-6.4909,-6.4706,-6.5286,-6.5722,-6.5925,-6.697,-6.7866,-6.8401,-6.8681,-6.8963,-6.927,-6.8963,-6.8828,-6.8828,-6.8828,-6.8828,-6.8828,-6.8828,-6.8828,-6.8828,-6.8828,-6.8828,-6.8828,-6.8828,-6.8828,-6.8828,-6.8828,-6.8828,-6.8828,-6.8828,-6.8828,-6.8828,-7.325,-7.3197,-7.2922,-7.3015,-7.2983,-7.2983,-7.2983,-7.3199,-7.3691,-7.4491,-7.4491,-7.4645,-7.5323,-7.5292,-7.5199,-7.5199,-7.5692,-7.5784,-7.523,-7.5076,-7.4797,-7.436,-7.375,-7.2962,-7.2038,-7.1423,-7.1018,-7.0889,-7.0889,-7.0889,-7.0889,-7.0889,-7.0709,-7.035,-7.035,-7.035,-7.035,-7.035,-6.964,-6.8595,-6.8401,-6.7495,-6.6206,-6.5816,-6.6031,-6.6549,-6.6638,-6.7098,-6.7682,-6.7957,-6.827,-6.8645,-6.8914,-6.8877,-6.8721,-6.8593,-6.8373,-6.8338,-6.8436,-6.8373,-6.8343,-6.8478,-6.7889,-6.7236,-6.7107,-6.7243,-6.7107,-6.6154,-6.5902,-6.5809,-6.5431,-6.5141,-6.4735,-6.398,-6.4154,-6.4125,-6.3341,-6.3922,-6.4415,-6.4415,-6.4764,-6.5083,-6.5344,-6.5141,-6.5083,-6.5344,-6.5489,-6.5896,-6.6651,-6.7202,-6.7858,-6.8552,-6.8692,-6.9012,-6.9515,-6.9012,-6.8828,-6.8828,-6.8828,-6.8828,-6.8828,-6.8828,-6.8828,-6.8828,-6.8828,-6.8828,-6.8828,-6.8828,-6.8828,-6.8828,-6.8828,-6.8828,-6.8828,-6.8828,-6.8828,-6.8828,-7.2688,-7.2517,-7.2306,-7.2798,-7.2952,-7.2952,-7.2891,-7.3476,-7.3937,-7.4061,-7.4615,-7.5261,-7.5938,-7.4922,-7.4892,-7.6677,-7.6277,-7.5384,-7.4091,-7.4584,-7.4645,-7.403,-7.3685,-7.284,-7.15,-7.1435,-7.1242,-7.0889,-7.0889,-7.0889,-7.0889,-7.0889,-7.0889,-7.0889,-7.0889,-7.0889,-7.0889,-7.0889,-7.0366,-6.9476,-6.9122,-6.8383,-6.7318,-6.6439,-6.6585,-6.7282,-6.6727,-6.7125,-6.7953,-6.7834,-6.7942,-6.8345,-6.8974,-6.8899,-6.8615,-6.8678,-6.8422,-6.823,-6.8615,-6.8487,-6.8506,-6.9773,-6.9411,-6.8615,-6.8235,-6.7848,-6.7588,-6.7406,-6.6708,-6.6099,-6.6012,-6.5548,-6.5141,-6.5083,-6.5112,-6.5141,-6.5083,-6.5112,-6.5141,-6.5141,-6.5112,-6.5315,-6.5954,-6.5489,-6.5373,-6.5896,-6.546,-6.5925,-6.7696,-6.726,-6.7551,-6.877,-6.8828,-6.9089,-6.967,-6.9118,-6.8857,-6.8915,-6.8857,-6.8828,-6.8828,-6.8886,-6.8886,-6.8828,-6.8886,-6.8886,-6.8828,-6.8828,-6.8828,-6.8828,-6.8886,-6.8886,-6.8828,-6.8886,-6.8886,-6.8828,-7.2875,-7.3072,-7.2953,-7.2337,-7.2645,-7.2798,-7.2275,-7.2768,-7.3568,-7.4645,-7.4922,-7.5261,-7.5938,-7.5754,-7.5538,-7.5446,-7.5292,-7.4861,-7.403,-7.4122,-7.4153,-7.3999,-7.3413,-7.2699,-7.1913,-7.1564,-7.1242,-7.0889,-7.0889,-7.0889,-7.0889,-7.0889,-7.0889,-7.0889,-7.0889,-7.0889,-7.0889,-7.0889,-7.0366,-6.9476,-6.9411,-6.8802,-6.7795,-6.7295,-6.7195,-6.7464,-6.7516,-6.7881,-6.8422,-6.9459,-6.9838,-6.9968,-7.0376,-7.0435,-7.0341,-7.0371,-7.0146,-6.9951,-7.0276,-7.0176,-7.0011,-7.055,-7.0525,-7.0157,-6.9327,-6.9204,-6.9031,-6.7647,-6.7436,-6.7289,-6.6767,-6.6564,-6.6302,-6.5809,-6.6157,-6.6302,-6.5809,-6.6157,-6.6476,-6.6476,-6.6041,-6.5983,-6.6622,-6.6564,-6.6331,-6.5954,-6.6273,-6.6651,-6.7057,-6.7463,-6.8015,-6.8799,-6.8828,-6.8886,-6.9031,-6.8886,-6.906,-6.9554,-6.906,-6.8828,-6.8828,-6.935,-6.9292,-6.8857,-6.935,-6.9292,-6.8828,-6.8828,-6.8828,-6.8886,-6.9379,-6.9263,-6.8886,-6.9379,-6.9263,-6.8828,-7.3584,-7.3535,-7.3324,-7.2829,-7.2892,-7.286,-7.2521,-7.2768,-7.3229,-7.3937,-7.403,-7.443,-7.5415,-7.4953,-7.443,-7.4061,-7.4338,-7.4245,-7.3568,-7.3814,-7.3999,-7.3999,-7.3968,-7.3468,-7.2493,-7.2573,-7.2068,-7.0889,-7.0889,-7.0889,-7.0889,-7.0889,-7.0889,-7.0889,-7.0889,-7.0889,-7.0889,-7.0889,-7.058,-7.0152,-6.9856,-6.9388,-6.8838,-6.7991,-6.7786,-6.8078,-6.7936,-6.8202,-6.8818,-6.9861,-7.0189,-7.0271,-7.0734,-7.0759,-7.0724,-7.0854,-7.0629,-7.0462,-7.0629,-7.0528,-7.0397,-7.0397,-7.0462,-7.0373,-7.0146,-6.9999,-6.9663,-6.8788,-6.8239,-6.7783,-6.7434,-6.7347,-6.726,-6.6912,-6.7144,-6.7231,-6.6912,-6.6622,-6.6535,-6.6854,-6.6331,-6.6186,-6.6825,-6.7173,-6.7086,-6.6418,-6.668,-6.7028,-6.7347,-6.7696,-6.8189,-6.8799,-6.8828,-6.8973,-6.9263,-6.8973,-6.9292,-7.0221,-6.9583,-6.9292,-6.9292,-6.9931,-6.9873,-6.9292,-6.9641,-6.9583,-6.9263,-6.8944,-6.9002,-6.9292,-6.9321,-6.9292,-6.9292,-6.9321,-6.9118,-6.8828,-7.4168,-7.3934,-7.357,-7.3446,-7.3231,-7.3077,-7.2953,-7.2984,-7.3014,-7.3137,-7.3168,-7.363,-7.4861,-7.3907,-7.3168,-7.3168,-7.366,-7.3814,-7.3353,-7.3845,-7.4153,-7.4153,-7.4707,-7.4418,-7.329,-7.3772,-7.2988,-7.0984,-7.1009,-7.1009,-7.0954,-7.0919,-7.0889,-7.0889,-7.0889,-7.0889,-7.0889,-7.0889,-7.0854,-7.0759,-7.0265,-7.0002,-6.981,-6.8714,-6.8564,-6.8876,-6.8285,-6.8444,-6.9031,-6.9693,-6.991,-7.0003,-7.0759,-7.0683,-7.0426,-7.0927,-7.0641,-7.0295,-7.0384,-7.0325,-7.02,-6.9936,-6.9869,-7.0097,-7.0712,-7.0414,-7.0009,-7.0127,-6.9182,-6.8363,-6.8363,-6.8363,-6.8334,-6.8218,-6.8189,-6.816,-6.8073,-6.7115,-6.6622,-6.7144,-6.6738,-6.6593,-6.6999,-6.7667,-6.7725,-6.6941,-6.6999,-6.7231,-6.7696,-6.7812,-6.8189,-6.8799,-6.8828,-6.9089,-6.9612,-6.9205,-6.9583,-7.0715,-7.0308,-7.0047,-6.996,-7.0599,-7.0541,-6.9931,-7.0047,-7.0047,-6.9902,-6.935,-6.9408,-6.9757,-6.9437,-6.9437,-6.9554,-6.9002,-6.876,-6.8692,-7.3694,-7.3951,-7.3991,-7.3125,-7.3258,-7.3231,-7.2611,-7.2768,-7.3199,-7.3783,-7.3845,-7.4153,-7.4922,-7.4307,-7.3845,-7.3845,-7.3937,-7.4214,-7.4707,-7.4799,-7.4861,-7.4861,-7.4953,-7.4761,-7.4283,-7.4115,-7.3118,-7.1341,-7.1588,-7.1588,-7.1371,-7.1048,-7.0889,-7.0889,-7.0889,-7.0889,-7.0889,-7.0889,-7.0694,-7.0528,-7.0694,-7.0397,-6.9869,-6.9715,-6.9648,-6.967,-6.8914,-6.8779,-6.8914,-6.9641,-6.9678,-6.9604,-7.0918,-7.0674,-7.0209,-7.136,-7.062,-6.9654,-7.0481,-7.0082,-6.9537,-6.9803,-6.9869,-7.0083,-7.0711,-7.0493,-7.0399,-7.0985,-7.0671,-7.0337,-7.0337,-7.0337,-7.0163,-6.9612,-6.9525,-6.9321,-6.877,-6.8538,-6.8479,-6.8567,-6.8479,-6.8247,-6.7783,-6.8334,-6.8189,-6.697,-6.7405,-6.7522,-6.7057,-6.758,-6.8189,-6.8799,-6.8828,-6.8857,-6.8944,-6.9408,-7.0018,-7.0715,-7.1179,-7.1121,-7.0628,-7.1237,-7.1179,-7.0628,-7.1179,-7.1092,-7.057,-7.0512,-7.0192,-6.9873,-7.0889,-7.0337,-6.8944,-6.8857,-6.8625,-6.845,-7.3836,-7.3785,-7.3575,-7.2735,-7.2907,-7.2979,-7.2486,-7.2922,-7.3355,-7.3446,-7.3414,-7.3691,-7.4368,-7.4184,-7.3845,-7.3445,-7.3414,-7.3722,-7.4399,-7.4799,-7.5323,-7.6092,-7.6492,-7.6327,-7.5667,-7.5668,-7.4734,-7.2811,-7.2589,-7.2182,-7.1653,-7.1523,-7.1248,-7.0889,-7.0694,-7.0658,-7.0593,-7.0462,-7.0265,-7.0134,-7.0068,-6.9803,-6.9537,-6.9337,-6.9299,-6.9203,-6.8895,-6.9098,-6.9404,-6.9537,-6.9737,-6.9995,-7.0423,-7.0371,-7.0311,-7.099,-7.0737,-7.0279,-7.0887,-7.0789,-7.0361,-6.9913,-7.0088,-7.0439,-7.0702,-7.0915,-7.1079,-7.1257,-7.1021,-7.0715,-7.0715,-7.1005,-7.1034,-7.0395,-7.0308,-7.0076,-6.9437,-6.8741,-6.816,-6.7783,-6.8392,-6.8421,-6.7434,-6.7899,-6.7899,-6.6941,-6.7492,-6.7754,-6.7463,-6.8044,-6.8712,-6.935,-6.935,-6.9525,-6.9873,-7.0163,-7.0489,-7.0915,-7.1204,-7.1316,-7.1266,-7.1557,-7.1528,-7.1237,-7.1179,-7.1179,-7.1208,-7.086,-7.0773,-7.0831,-7.0657,-6.9735,-6.8547,-6.8659,-6.8567,-6.8556]},{"header":{"parameterUnit":"m.s-1","parameterCategory":1,"la1":30.6,"la2":28.766,"lo1":-90.7593,"lo2":-88.6598,"dy":0.0162,"dx":0.0183,"nx":116,"ny":114,"refTime":"2024-03-22T12:00:00:Z","depth":0,"parameterNumber":3,"parameterNumberName":"V-component_of_WINDS"},"data":[0.0,0.0,0.0,0.0,0.0,0.0,0.0,0.0,0.0,0.0,0.0,0.0,0.0,0.0,0.0,0.0,0.0,0.0,0.0,0.0,0.0,0.0,0.0,0.0,0.0,0.0,0.0,0.0,0.0,0.0,0.0,0.0,0.0,0.0,0.0,0.0,0.0,0.0,0.0,0.0,0.0,0.0,0.0,0.0,0.0,0.0,0.0,0.0,0.0,0.0,0.0,0.0,0.0,0.0,0.0,0.0,0.0,0.0,0.0,0.0,0.0,0.0,0.0,0.0,0.0,0.0,0.0,0.0,0.0,0.0,0.0,0.0,0.0,0.0,0.0,0.0,0.0,0.0,0.0,0.0,0.0,0.0,0.0,0.0,0.0,0.0,0.0,0.0,0.0,0.0,0.0,0.0,0.0,0.0,0.0,0.0,0.0,0.0,0.0,0.0,0.0,0.0,0.0,0.0,0.0,0.0,0.0,0.0,0.0,0.0,0.0,0.0,0.0,0.0,0.0,0.0,0.0,0.0,0.0,0.0,0.0,0.0,0.0,0.0,0.0,0.0,0.0,0.0,0.0,0.0,0.0,0.0,0.0,0.0,0.0,0.0,0.0,0.0,0.0,0.0,0.0,0.0,0.0,0.0,0.0,0.0,0.0,0.0,0.0,0.0,0.0,0.0,0.0,0.0,0.0,0.0,0.0,0.0,0.0,0.0,0.0,0.0,0.0,0.0,0.0,0.0,0.0,0.0,0.0,0.0,0.0,0.0,0.0,0.0,0.0,0.0,0.0,0.0,0.0,0.0,0.0,0.0,0.0,0.0,0.0,0.0,0.0,0.0,0.0,0.0,0.0,0.0,0.0,0.0,0.0,0.0,0.0,0.0,0.0,0.0,0.0,0.0,0.0,0.0,0.0,0.0,0.0,0.0,0.0,0.0,0.0,0.0,0.0,0.0,0.0,0.0,0.0,0.0,0.0,0.0,0.0,0.0,0.0,0.0,0.0,0.0,0.0,0.0,0.0,0.0,0.0,0.0,0.0,0.0,0.0,0.0,0.0,0.0,0.0,0.0,0.0,0.0,0.0,0.0,0.0,0.0,0.0,0.0,0.0,0.0,0.0,0.0,0.0,0.0,0.0,0.0,0.0,0.0,0.0,0.0,0.0,0.0,0.0,0.0,0.0,0.0,0.0,0.0,0.0,0.0,0.0,0.0,0.0,0.0,0.0,0.0,0.0,0.0,0.0,0.0,0.0,0.0,0.0,0.0,0.0,0.0,0.0,0.0,0.0,0.0,0.0,0.0,0.0,0.0,0.0,0.0,0.0,0.0,0.0,0.0,0.0,0.0,0.0,0.0,0.0,0.0,0.0,0.0,0.0,0.0,0.0,0.0,0.0,0.0,0.0,0.0,0.0,0.0,0.0,0.0,0.0,0.0,0.0,0.0,0.0,0.0,0.0,0.0,0.0,0.0,0.0,0.0,0.0,0.0,0.0,0.0,0.0,0.0,0.0,0.0,0.0,0.0,0.0,0.0,0.0,0.0,0.0,0.0,0.0,0.0,0.0,0.0,0.0,0.0,0.0,0.0,0.0,0.0,0.0,0.0,0.0,0.0,0.0,0.0,0.0,0.0,0.0,0.0,0.0,0.0,0.0,0.0,0.0,0.0,0.0,0.0,0.0,0.0,0.0,0.0,0.0,0.0,0.0,0.0,0.0,0.0,0.0,0.0,0.0,0.0,0.0,0.0,0.0,0.0,0.0,0.0,0.0,0.0,0.0,0.0,0.0,0.0,0.0,0.0,0.0,0.0,0.0,0.0,0.0,0.0,0.0,0.0,0.0,0.0,0.0,0.0,0.0,0.0,0.0,0.0,0.0,0.0,0.0,0.0,0.0,0.0,0.0,0.0,0.0,0.0,0.0,0.0,0.0,0.0,0.0,0.0,0.0,0.0,0.0,0.0,0.0,0.0,0.0,0.0,0.0,0.0,0.0,0.0,0.0,0.0,0.0,0.0,0.0,0.0,0.0,0.0,0.0,0.0,0.0,0.0,0.0,0.0,0.0,0.0,0.0,0.0,0.0,0.0,0.0,0.0,0.0,0.0,0.0,0.0,0.0,0.0,0.0,0.0,0.0,0.0,0.0,0.0,0.0,0.0,0.0,0.0,0.0,0.0,0.0,0.0,0.0,0.0,0.0,0.0,0.0,0.0,0.0,0.0,0.0,0.0,0.0,0.0,0.0,0.0,0.0,0.0,0.0,0.0,0.0,0.0,0.0,0.0,0.0,0.0,0.0,0.0,0.0,0.0,0.0,0.0,0.0,0.0,0.0,0.0,0.0,0.0,0.0,0.0,0.0,0.0,0.0,0.0,0.0,0.0,0.0,0.0,0.0,0.0,0.0,0.0,0.0,0.0,0.0,0.0,0.0,0.0,0.0,0.0,0.0,0.0,0.0,0.0,0.0,0.0,0.0,0.0,0.0,0.0,0.0,0.0,0.0,0.0,0.0,0.0,0.0,0.0,0.0,0.0,0.0,0.0,0.0,0.0,0.0,0.0,0.0,0.0,0.0,0.0,0.0,0.0,0.0,0.0,0.0,0.0,0.0,0.0,0.0,0.0,0.0,0.0,0.0,0.0,0.0,0.0,0.0,0.0,0.0,0.0,0.0,0.0,0.0,0.0,0.0,0.0,0.0,0.0,0.0,0.0,0.0,0.0,0.0,0.0,0.0,0.0,0.0,0.0,0.0,0.0,0.0,0.0,0.0,0.0,0.0,0.0,0.0,0.0,0.0,0.0,0.0,0.0,0.0,0.0,0.0,0.0,0.0,0.0,0.0,0.0,0.0,0.0,0.0,0.0,0.0,0.0,0.0,0.0,0.0,0.0,0.0,0.0,0.0,0.0,0.0,0.0,0.0,0.0,0.0,0.0,0.0,0.0,0.0,0.0,0.0,0.0,0.0,0.0,0.0,0.0,0.0,0.0,0.0,0.0,0.0,0.0,0.0,0.0,0.0,0.0,0.0,0.0,0.0,0.0,0.0,0.0,0.0,0.0,0.0,0.0,0.0,0.0,0.0,0.0,0.0,0.0,0.0,0.0,0.0,0.0,0.0,0.0,0.0,0.0,0.0,0.0,0.0,0.0,0.0,0.0,0.0,0.0,0.0,0.0,0.0,0.0,0.0,0.0,0.0,0.0,0.0,0.0,0.0,0.0,0.0,0.0,0.0,0.0,0.0,0.0,0.0,0.0,0.0,0.0,0.0,0.0,0.0,0.0,0.0,0.0,0.0,0.0,0.0,0.0,0.0,0.0,0.0,0.0,0.0,0.0,0.0,0.0,0.0,0.0,0.0,0.0,0.0,0.0,0.0,0.0,0.0,0.0,0.0,0.0,0.0,0.0,0.0,0.0,0.0,0.0,0.0,0.0,0.0,0.0,0.0,0.0,0.0,0.0,0.0,0.0,0.0,0.0,0.0,0.0,0.0,0.0,0.0,0.0,0.0,0.0,0.0,0.0,0.0,0.0,0.0,0.0,0.0,0.0,0.0,0.0,0.0,0.0,0.0,0.0,0.0,0.0,0.0,0.0,0.0,0.0,0.0,0.0,0.0,0.0,0.0,0.0,0.0,0.0,0.0,0.0,0.0,0.0,0.0,0.0,0.0,0.0,0.0,0.0,0.0,0.0,0.0,0.0,0.0,0.0,0.0,0.0,0.0,0.0,0.0,0.0,0.0,0.0,0.0,0.0,0.0,0.0,0.0,0.0,0.0,0.0,0.0,0.0,0.0,0.0,0.0,0.0,0.0,0.0,0.0,0.0,0.0,0.0,0.0,0.0,0.0,0.0,0.0,0.0,0.0,0.0,0.0,0.0,0.0,0.0,0.0,0.0,0.0,0.0,0.0,0.0,0.0,0.0,0.0,0.0,0.0,0.0,0.0,0.0,0.0,0.0,0.0,0.0,0.0,0.0,0.0,0.0,0.0,0.0,0.0,0.0,0.0,0.0,0.0,0.0,0.0,0.0,0.0,0.0,0.0,0.0,0.0,0.0,0.0,0.0,0.0,0.0,0.0,0.0,0.0,0.0,0.0,0.0,0.0,0.0,0.0,0.0,0.0,0.0,0.0,0.0,0.0,0.0,0.0,0.0,0.0,0.0,0.0,0.0,0.0,0.0,0.0,0.0,0.0,0.0,0.0,0.0,0.0,0.0,0.0,0.0,0.0,0.0,0.0,0.0,0.0,0.0,0.0,0.0,0.0,0.0,0.0,0.0,0.0,0.0,0.0,0.0,0.0,0.0,0.0,0.0,0.0,0.0,0.0,0.0,0.0,0.0,0.0,0.0,0.0,0.0,0.0,0.0,0.0,0.0,0.0,0.0,0.0,0.0,0.0,0.0,0.0,0.0,0.0,0.0,0.0,0.0,0.0,0.0,0.0,0.0,0.0,0.0,0.0,0.0,0.0,0.0,0.0,0.0,0.0,0.0,0.0,0.0,0.0,0.0,0.0,0.0,0.0,0.0,0.0,0.0,0.0,0.0,0.0,0.0,0.0,0.0,0.0,0.0,0.0,0.0,0.0,0.0,0.0,0.0,0.0,0.0,0.0,0.0,0.0,0.0,0.0,0.0,0.0,0.0,0.0,0.0,0.0,0.0,0.0,0.0,0.0,0.0,0.0,0.0,0.0,0.0,0.0,0.0,0.0,0.0,0.0,0.0,0.0,0.0,0.0,0.0,0.0,0.0,0.0,0.0,0.0,0.0,0.0,0.0,0.0,0.0,0.0,0.0,0.0,0.0,0.0,0.0,0.0,0.0,0.0,0.0,0.0,0.0,0.0,0.0,0.0,0.0,0.0,0.0,0.0,0.0,0.0,0.0,0.0,0.0,0.0,0.0,0.0,0.0,0.0,0.0,0.0,0.0,0.0,0.0,0.0,0.0,0.0,0.0,0.0,0.0,0.0,0.0,0.0,0.0,0.0,0.0,0.0,0.0,0.0,0.0,0.0,0.0,0.0,0.0,0.0,0.0,0.0,0.0,0.0,0.0,0.0,0.0,0.0,0.0,0.0,0.0,0.0,0.0,0.0,0.0,0.0,0.0,0.0,0.0,0.0,0.0,0.0,0.0,0.0,0.0,0.0,0.0,0.0,0.0,0.0,0.0,0.0,0.0,0.0,0.0,0.0,0.0,0.0,0.0,0.0,0.0,0.0,0.0,0.0,0.0,0.0,0.0,0.0,0.0,0.0,0.0,0.0,0.0,0.0,0.0,0.0,0.0,0.0,0.0,0.0,0.0,0.0,0.0,0.0,0.0,0.0,0.0,0.0,0.0,0.0,0.0,0.0,0.0,0.0,0.0,0.0,0.0,0.0,0.0,0.0,0.0,0.0,0.0,0.0,0.0,0.0,0.0,0.0,0.0,0.0,0.0,0.0,0.0,0.0,0.0,0.0,0.0,0.0,0.0,0.0,0.0,0.0,0.0,0.0,0.0,0.0,0.0,0.0,0.0,0.0,0.0,0.0,0.0,0.0,0.0,0.0,0.0,0.0,0.0,0.0,0.0,0.0,0.0,0.0,0.0,0.0,0.0,0.0,0.0,0.0,0.0,0.0,0.0,0.0,0.0,0.0,0.0,0.0,0.0,0.0,0.0,0.0,0.0,0.0,0.0,0.0,0.0,0.0,0.0,0.0,0.0,0.0,0.0,0.0,0.0,0.0,0.0,0.0,0.0,0.0,0.0,0.0,0.0,0.0,0.0,0.0,0.0,0.0,0.0,0.0,0.0,0.0,0.0,0.0,0.0,0.0,0.0,0.0,0.0,0.0,0.0,0.0,0.0,0.0,0.0,0.0,0.0,0.0,0.0,0.0,0.0,0.0,0.0,0.0,0.0,0.0,0.0,0.0,0.0,0.0,0.0,0.0,0.0,0.0,0.0,0.0,0.0,0.0,0.0,0.0,0.0,0.0,0.0,0.0,0.0,0.0,0.0,0.0,0.0,0.0,0.0,0.0,0.0,0.0,0.0,0.0,0.0,0.0,0.0,0.0,0.0,0.0,0.0,0.0,0.0,0.0,0.0,0.0,0.0,0.0,0.0,0.0,0.0,0.0,0.0,0.0,0.0,0.0,0.0,0.0,0.0,2.4513,2.3393,0.0,0.0,0.0,0.0,0.0,0.0,0.0,0.0,0.0,0.0,0.0,0.0,0.0,0.0,0.0,0.0,0.0,0.0,0.0,0.0,0.0,0.0,0.0,0.0,0.0,0.0,2.3027,2.342,2.4021,2.3757,0.0,0.0,0.0,0.0,2.1468,2.0496,2.0524,2.161,2.1026,2.1468,2.2864,2.2184,2.0863,1.9079,0.0,0.0,0.0,0.0,0.0,0.0,0.0,0.0,0.0,0.0,0.0,0.0,0.0,0.0,0.0,0.0,0.0,0.0,0.0,0.0,0.0,0.0,0.0,0.0,0.0,0.0,0.0,0.0,0.0,0.0,0.0,0.0,0.0,0.0,0.0,0.0,0.0,0.0,0.0,0.0,0.0,0.0,0.0,0.0,0.0,0.0,0.0,0.0,0.0,0.0,0.0,0.0,0.0,0.0,0.0,0.0,0.0,0.0,0.0,0.0,0.0,0.0,0.0,0.0,0.0,0.0,0.0,0.0,0.0,0.0,2.8395,2.7104,0.0,0.0,0.0,0.0,0.0,0.0,0.0,0.0,0.0,0.0,0.0,0.0,0.0,0.0,0.0,0.0,0.0,0.0,0.0,0.0,0.0,0.0,0.0,2.2166,2.2846,2.3631,2.4495,2.5044,2.5149,2.5044,2.4788,2.4351,2.3842,2.3178,2.2472,2.2166,2.2379,2.3141,2.3107,2.3997,2.5711,2.6567,2.5061,2.1574,2.0929,0.0,0.0,0.0,0.0,0.0,0.0,0.0,0.0,0.0,0.0,0.0,0.0,0.0,0.0,0.0,0.0,0.0,0.0,0.0,0.0,0.0,0.0,0.0,0.0,0.0,0.0,0.0,0.0,0.0,0.0,0.0,0.0,0.0,0.0,0.0,0.0,0.0,0.0,0.0,0.0,0.0,0.0,0.0,0.0,0.0,0.0,0.0,0.0,0.0,0.0,0.0,0.0,0.0,0.0,0.0,0.0,0.0,0.0,0.0,0.0,0.0,0.0,0.0,3.3317,3.4362,3.4605,3.529,3.606,3.6685,3.3063,3.1892,3.2351,2.9727,0.0,0.0,0.0,0.0,0.0,0.0,0.0,0.0,0.0,0.0,0.0,0.0,0.0,0.0,0.0,0.0,0.0,0.0,0.0,0.0,0.0,2.2588,2.3762,2.5481,2.5262,2.5201,2.5636,2.528,2.4632,2.3756,2.3425,2.3151,2.2995,2.3242,2.3959,2.5192,2.758,2.9227,3.0138,3.0058,2.9554,2.8616,2.5768,2.4285,2.3785,0.0,0.0,0.0,0.0,0.0,0.0,0.0,0.0,0.0,0.0,0.0,0.0,0.0,0.0,0.0,0.0,0.0,0.0,0.0,0.0,0.0,0.0,0.0,0.0,0.0,0.0,0.0,0.0,0.0,0.0,0.0,0.0,0.0,0.0,0.0,0.0,0.0,0.0,0.0,0.0,0.0,2.2619,2.2769,0.0,0.0,0.0,0.0,0.0,0.0,0.0,0.0,0.0,0.0,0.0,0.0,0.0,3.1615,3.3352,3.5103,3.6279,3.6881,3.8155,3.9134,3.9796,3.9628,4.0261,4.1463,4.0673,0.0,3.5046,3.3159,0.0,0.0,0.0,0.0,0.0,0.0,0.0,0.0,0.0,0.0,0.0,0.0,0.0,0.0,0.0,0.0,0.0,0.0,0.0,0.0,0.0,2.4078,2.5853,2.6653,2.8165,2.8591,2.7479,2.6778,2.5913,2.4782,2.3687,2.3338,2.3882,2.4453,2.629,2.9434,3.2253,3.4034,3.4698,3.4432,3.4086,3.3568,3.178,2.9136,2.5884,2.429,0.0,0.0,0.0,0.0,0.0,0.0,0.0,0.0,0.0,0.0,0.0,0.0,0.0,0.0,0.0,0.0,0.0,0.0,0.0,0.0,0.0,0.0,0.0,0.0,0.0,0.0,0.0,0.0,0.0,0.0,0.0,0.0,0.0,0.0,0.0,0.0,0.0,0.0,0.0,2.3145,2.4374,2.4073,2.3847,2.315,0.0,0.0,0.0,0.0,0.0,0.0,0.0,0.0,0.0,3.2934,3.3822,3.5077,3.6802,3.8553,3.973,4.0305,4.1631,4.2573,4.3176,4.2926,4.3315,4.4164,4.3506,4.2178,4.0237,3.728,3.5357,3.4082,0.0,0.0,0.0,0.0,3.2969,3.3675,0.0,0.0,0.0,0.0,0.0,0.0,0.0,0.0,0.0,0.0,0.0,0.0,2.259,2.5852,2.8177,2.8638,3.0857,3.1532,2.9945,2.8358,2.7058,2.6071,2.4416,2.3968,2.4921,2.6742,2.9884,3.4263,3.658,3.8123,3.8883,3.8309,3.7781,3.72,3.6424,3.337,2.875,2.7351,2.5336,2.3027,0.0,0.0,0.0,0.0,0.0,0.0,0.0,0.0,0.0,0.0,0.0,0.0,0.0,0.0,0.0,0.0,0.0,0.0,0.0,0.0,0.0,0.0,0.0,0.0,0.0,0.0,0.0,0.0,0.0,0.0,0.0,0.0,0.0,0.0,0.0,0.0,0.0,2.5109,2.6038,2.5511,2.5837,2.5259,0.0,0.0,0.0,0.0,0.0,0.0,3.1484,3.2359,3.4084,3.6959,3.7586,3.871,4.0461,4.1768,4.2788,4.3493,4.4439,4.5202,4.5915,4.5474,4.5554,4.6113,4.542,4.4989,4.4481,4.0977,3.8939,3.7826,3.613,3.5547,3.571,3.6714,3.7392,3.7989,0.0,0.0,0.0,0.0,0.0,0.0,0.0,0.0,0.0,0.0,0.0,2.3366,2.4606,2.7761,3.0512,3.2347,3.2342,3.2405,3.2881,2.9486,2.7397,2.7211,2.5735,2.5283,2.6077,3.0881,3.5326,3.9334,4.0079,4.108,4.2345,4.0978,4.0031,3.9492,3.81,3.6037,3.342,3.1245,2.9615,2.8186,2.4429,0.0,0.0,0.0,0.0,0.0,0.0,0.0,0.0,0.0,0.0,0.0,0.0,0.0,0.0,0.0,0.0,0.0,0.0,0.0,0.0,0.0,0.0,0.0,0.0,0.0,0.0,0.0,0.0,0.0,0.0,0.0,0.0,0.0,0.0,0.0,0.0,0.0,0.0,2.7218,2.8574,0.0,0.0,0.0,0.0,2.8492,3.0261,3.259,3.5652,3.6907,3.8867,4.1793,4.2369,4.352,4.5271,4.5375,4.5921,4.7074,4.6578,4.7,4.8021,4.7179,4.7106,4.7717,4.764,4.7079,4.6115,4.3656,4.2304,4.1598,4.035,3.9888,3.9943,4.0621,4.0865,4.1055,0.0,0.0,0.0,0.0,0.0,0.0,0.0,0.0,1.8998,1.9337,2.2253,2.4879,2.6532,3.0848,3.4062,3.5129,3.6366,3.6545,3.5303,3.1235,2.932,3.0388,2.7302,2.7594,3.1967,3.5081,3.8183,4.1281,4.1879,4.2675,4.3666,4.2597,4.2029,4.1772,4.0594,3.9039,3.7172,3.406,3.1687,2.9765,2.7283,2.5194,0.0,0.0,0.0,0.0,0.0,0.0,0.0,0.0,0.0,0.0,0.0,0.0,0.0,0.0,0.0,0.0,0.0,0.0,0.0,0.0,0.0,0.0,0.0,0.0,0.0,0.0,0.0,0.0,0.0,0.0,0.0,0.0,0.0,0.0,0.0,0.0,0.0,3.0482,3.1637,0.0,2.9277,3.006,3.1331,3.2749,3.4221,3.6373,3.9544,4.0478,4.1982,4.433,4.4591,4.5166,4.6159,4.6917,4.7466,4.7885,4.8068,4.8381,4.8721,4.766,4.7241,4.7481,4.7271,4.7012,4.6692,4.625,4.5491,4.4573,4.4343,4.423,4.4257,4.4474,4.4556,4.4556,0.0,0.0,0.0,0.0,0.0,0.0,0.0,0.0,1.9582,2.0639,2.3932,2.7247,2.995,3.4229,3.7256,3.8043,3.9177,3.9177,3.7661,3.3153,3.1146,3.2458,2.9915,3.1052,3.6619,3.8808,4.1097,4.3677,4.4004,4.4568,4.5278,4.4336,4.3707,4.3367,4.2389,4.1336,4.0058,3.7222,3.4438,3.1863,3.0156,2.8398,2.6556,0.0,0.0,0.0,0.0,0.0,0.0,0.0,0.0,0.0,0.0,0.0,0.0,0.0,0.0,0.0,0.0,0.0,0.0,0.0,0.0,0.0,0.0,0.0,0.0,0.0,0.0,0.0,0.0,0.0,0.0,0.0,0.0,0.0,0.0,3.0708,3.2842,3.3043,3.4374,3.4625,3.2968,3.3909,3.533,3.6937,3.7998,3.9776,4.2548,4.317,4.4315,4.6252,4.6443,4.6865,4.7623,4.8381,4.8747,4.8773,4.9165,4.927,4.9061,4.8277,4.7806,4.7597,4.7573,4.7446,4.7389,4.8009,4.7777,4.7027,4.6948,4.6919,4.6919,4.6919,4.6919,4.6811,0.0,0.0,0.0,0.0,0.0,0.0,0.0,1.879,2.0557,2.2517,2.6253,3.0385,3.4799,3.7709,3.9834,4.1055,4.041,3.9895,3.9822,3.5249,3.2703,3.3119,3.3578,3.5678,3.9651,4.1951,4.4199,4.6473,4.6473,4.6761,4.7226,4.613,4.5184,4.4313,4.3473,4.2721,4.2131,4.0746,3.8133,3.4726,3.3018,3.1662,3.0382,0.0,0.0,0.0,0.0,0.0,0.0,0.0,0.0,0.0,0.0,0.0,0.0,0.0,0.0,0.0,0.0,0.0,0.0,0.0,0.0,0.0,0.0,0.0,0.0,0.0,0.0,0.0,0.0,0.0,0.0,0.0,0.0,0.0,3.0658,3.2641,3.4274,3.4826,3.6835,3.7538,3.5859,3.7713,3.96,4.0868,4.1451,4.2624,4.4663,4.5021,4.5964,4.7703,4.8049,4.8773,4.9871,4.9897,4.9923,4.9923,4.9923,4.9636,4.9139,4.9113,4.8773,4.8283,4.8574,4.8516,4.8257,4.8837,4.9068,4.9019,4.8152,4.7862,4.7862,4.7862,4.7862,4.7754,0.0,0.0,0.0,0.0,0.0,0.0,1.8079,1.9946,2.2031,2.3836,2.8502,3.2891,3.6086,3.9109,4.1295,4.2304,4.1415,4.0583,4.0123,3.5507,3.3081,3.3661,3.7179,4.0305,4.2657,4.4147,4.5428,4.6473,4.6473,4.6552,4.6708,4.6395,4.5869,4.5184,4.4531,4.3797,4.3067,4.2266,4.0747,3.8657,3.5999,3.3921,3.219,0.0,0.0,0.0,0.0,0.0,0.0,0.0,0.0,0.0,0.0,0.0,0.0,0.0,0.0,0.0,0.0,0.0,0.0,0.0,0.0,0.0,0.0,0.0,0.0,0.0,0.0,0.0,0.0,0.0,0.0,0.0,3.1019,3.3702,3.3093,3.5604,3.7864,3.8818,4.0526,4.1279,4.0425,4.1254,4.2187,4.2947,4.3148,4.4068,4.6137,4.6272,4.7036,4.8531,4.8885,4.9222,4.9533,5.0193,5.0551,5.0551,5.0551,5.0472,5.0315,4.9871,4.9374,4.8826,4.897,4.8708,4.823,4.8663,4.8895,4.9098,4.8836,4.8873,4.9099,4.9099,4.883,4.8373,0.0,0.0,0.0,0.0,0.0,0.0,1.8771,2.1013,2.3685,2.6272,3.0649,3.482,3.8211,4.0539,4.1934,4.2114,4.1517,4.054,3.9156,3.6222,3.5114,3.6495,3.9821,4.2709,4.4905,4.5872,4.663,4.7205,4.7205,4.7205,4.7205,4.7205,4.6891,4.626,4.5549,4.4921,4.4294,4.3331,4.2447,4.1595,3.931,3.7155,3.5158,3.3319,3.2047,3.1044,2.9924,2.9048,2.8226,2.6748,0.0,0.0,0.0,0.0,0.0,0.0,0.0,0.0,0.0,0.0,0.0,0.0,0.0,0.0,0.0,0.0,0.0,0.0,0.0,0.0,0.0,0.0,0.0,0.0,3.45,3.7111,3.7638,3.9221,4.0629,4.1455,4.261,4.3388,4.3595,4.384,4.4267,4.4819,4.507,4.5682,4.6844,4.7303,4.7932,4.9008,4.9369,4.9848,5.0499,5.0789,5.1002,5.1126,5.1387,5.1126,5.042,5.0551,5.0159,4.9427,4.9427,4.9218,4.8963,4.914,4.9244,4.9271,0.0,0.0,0.0,0.0,4.9341,4.9133,0.0,0.0,0.0,0.0,0.0,0.0,1.9426,2.1983,2.5214,2.8814,3.2465,3.6251,4.0211,4.159,4.1934,4.1245,4.1082,4.006,3.7876,3.7354,3.806,4.0251,4.1758,4.3782,4.6421,4.71,4.7675,4.8172,4.8172,4.8172,4.8172,4.812,4.7806,4.7252,4.6425,4.5905,4.5581,4.4242,4.3642,4.3512,4.2449,4.0593,3.8284,3.6502,3.5755,3.5382,3.377,3.2237,3.0661,2.8762,0.0,0.0,0.0,0.0,0.0,0.0,0.0,0.0,0.0,0.0,0.0,0.0,0.0,0.0,0.0,0.0,0.0,0.0,0.0,0.0,0.0,0.0,0.0,0.0,3.7514,4.0325,4.2911,4.3017,4.2916,4.3212,4.3815,4.4568,4.5573,4.5723,4.5974,4.6451,4.6954,4.7255,4.7305,4.8005,0.0,0.0,0.0,5.0561,5.2052,5.1508,5.1439,5.1805,5.2354,5.1779,5.0315,5.1256,5.11,5.008,5.0028,4.9949,4.9897,4.9897,4.9737,4.9488,4.9223,4.9125,4.9125,4.9125,4.9553,4.998,0.0,0.0,0.0,0.0,0.0,0.0,2.0069,2.272,2.5631,2.8099,3.2541,3.6429,3.8839,4.0193,4.1196,4.1761,4.0947,4.0069,3.9383,3.9039,3.9614,4.1225,4.3258,4.5012,4.6447,4.7492,4.8068,4.8172,4.8172,4.8172,4.8172,4.7702,4.744,4.7252,4.6678,4.6365,4.6264,4.5529,4.49,4.4405,4.3514,4.1569,3.9042,3.8231,3.7225,3.6157,3.583,3.5504,3.5006,3.3518,3.2035,3.0406,2.8372,2.6081,0.0,0.0,0.0,0.0,0.0,0.0,0.0,0.0,0.0,0.0,0.0,0.0,0.0,0.0,0.0,0.0,0.0,0.0,0.0,3.7245,4.0355,4.3056,4.4794,4.5673,4.5874,4.5095,4.5874,4.6577,4.6803,4.7179,4.7481,4.7581,4.7707,4.7958,4.8435,4.8624,4.919,5.0132,5.0052,5.0767,5.2217,5.1975,5.2244,5.3034,5.3164,0.0,5.272,5.2433,5.1936,5.1256,5.0812,5.0342,4.9897,4.9897,4.9737,4.9488,4.9223,4.9125,4.9125,4.9412,5.0023,5.0715,0.0,0.0,0.0,0.0,0.0,0.0,2.117,2.3606,2.6246,2.8524,3.2583,3.5582,3.64,3.7633,3.8015,3.719,3.7066,3.7563,3.881,3.9741,4.1205,4.3229,4.4804,4.6159,4.731,4.7885,4.8172,4.8172,4.8172,4.8172,4.8172,4.7885,4.7597,4.7252,4.6734,4.6316,4.6003,4.5428,4.5009,4.4642,4.4273,4.2837,4.0875,4.0185,3.9244,3.8236,3.7958,3.7407,3.6609,3.5273,3.3886,3.2468,3.0458,2.8523,2.6663,0.0,0.0,0.0,0.0,0.0,0.0,0.0,0.0,0.0,0.0,0.0,0.0,0.0,0.0,2.9715,3.1302,0.0,3.7487,3.9837,4.2256,4.4373,4.5608,4.6476,4.6799,4.6341,4.6845,4.7408,4.7933,4.8309,4.8446,4.836,4.8862,4.9163,4.9188,4.9439,4.9967,5.082,5.0726,5.1241,5.245,5.2243,5.2634,5.3557,5.3727,5.3661,5.34,5.3086,5.2616,5.2014,5.1439,5.1021,5.0707,5.0132,4.9835,4.9699,4.9616,4.948,4.9354,4.9556,4.9973,5.0444,0.0,0.0,0.0,0.0,0.0,0.0,0.0,2.4081,2.633,2.8669,3.1798,3.379,3.3741,3.458,3.4366,3.2381,3.3664,3.571,3.8353,4.0428,4.2634,4.5021,4.6094,4.6974,4.7832,4.8068,4.8172,4.8172,4.8068,4.8068,4.8172,4.7832,4.7571,4.7252,4.663,4.6186,4.5869,4.5323,4.5062,4.5062,4.4826,4.3882,4.2553,4.1699,4.0875,4.0109,3.9575,3.8437,3.7084,3.589,3.4724,3.3507,3.1875,3.0581,2.9421,2.7568,2.6529,0.0,0.0,0.0,0.0,0.0,0.0,0.0,0.0,2.7123,2.7496,2.9581,3.1274,3.2932,3.4775,3.7353,3.9848,4.1891,4.3639,4.5086,4.6227,4.6767,4.7167,4.7346,4.747,4.7893,4.8735,4.9082,4.9157,4.8962,4.9766,5.0117,4.9766,5.0167,5.072,5.1423,5.1348,5.1774,5.2768,5.2501,5.2833,5.3864,5.4103,5.4066,5.3713,5.3609,5.3243,5.2642,5.191,5.1596,5.1518,5.0498,5.0054,5.0062,5.0082,4.9929,4.9791,4.9963,5.0216,5.0525,0.0,0.0,0.0,0.0,0.0,0.0,0.0,0.0,2.4909,2.715,2.9091,3.0631,3.1548,3.1757,3.192,3.2191,3.5221,3.8049,4.0233,4.2113,4.3739,4.5101,4.6233,4.6807,4.6656,4.7675,4.8172,4.8172,4.7675,4.7675,4.8146,4.663,4.6365,4.7226,4.6212,4.6264,4.7043,4.6525,4.629,4.6186,4.5192,4.4068,4.284,4.1719,4.0974,4.0389,3.98,3.8707,3.7447,3.6742,3.5667,3.441,3.3557,3.2567,3.1332,2.947,2.8071,2.6932,2.6009,2.5926,2.6476,2.7854,2.7879,2.8705,0.0,3.2956,3.2599,3.504,3.605,3.675,3.7473,3.9399,4.1369,4.2822,4.4439,4.5963,4.7356,4.7553,4.7813,4.8386,4.8259,4.8401,4.8988,4.9371,4.95,4.9515,4.9615,4.9866,5.0293,5.0393,5.0896,5.1975,5.1548,5.1976,5.3376,5.2886,5.3196,5.4407,5.4474,5.4582,5.4889,5.4367,5.3818,5.3243,5.2093,5.1596,5.1544,5.0943,5.0681,5.069,5.0477,5.0333,5.0433,5.1287,5.1905,5.2425,0.0,0.0,0.0,0.0,0.0,0.0,0.0,0.0,0.0,2.5849,2.7571,2.8379,2.7736,2.7623,2.7868,2.8465,3.2453,3.5832,3.795,4.1218,4.3693,4.5074,4.5807,4.6245,4.6473,4.6944,4.7179,4.7179,4.6944,4.697,4.7179,4.6447,4.6212,4.626,4.579,4.5842,4.6234,4.5715,4.5663,4.5872,4.4722,4.3546,4.2396,4.1246,4.0028,3.8955,3.8888,3.7881,0.0,3.6328,3.5335,3.4154,3.3884,3.2789,3.1397,3.0174,2.9213,2.8532,2.8523,2.8759,2.9269,3.0087,3.1304,3.2847,3.4945,3.5113,3.5402,3.7397,3.8479,3.9224,3.9753,4.1317,4.2843,4.3735,4.4943,4.6118,4.6997,4.7361,4.753,4.7523,4.7857,4.837,4.9047,4.9644,4.9809,4.964,5.0494,5.1021,5.0921,5.1222,5.1774,5.2553,5.2653,5.2822,5.3136,5.3417,5.3691,5.3929,5.4309,5.4578,5.4686,5.4066,5.3217,5.2328,5.1805,5.1596,5.1544,5.1021,5.0786,5.0821,5.0864,5.0907,5.0914,5.1169,5.1492,5.1885,0.0,0.0,0.0,0.0,0.0,0.0,0.0,0.0,0.0,0.0,2.6062,2.6303,2.4854,2.4556,2.4772,2.553,2.9903,3.3517,3.5587,3.9994,4.3163,4.4599,4.5201,4.5718,4.6238,4.6395,4.6473,4.6473,4.6316,4.6316,4.6473,4.6159,4.5872,4.5555,4.5454,4.5425,4.5555,4.5111,4.514,4.5297,4.4121,4.2866,4.1533,4.0043,3.8423,3.6966,3.7358,3.645,3.5067,3.4717,3.3965,3.3169,3.3043,3.2265,3.1311,3.0773,3.0069,2.9596,2.9955,3.0562,3.1274,3.2154,3.4053,3.5795,3.6367,3.6795,3.7493,3.896,3.997,4.0763,4.1293,4.2567,4.3746,4.4381,4.5269,4.615,4.6848,4.7136,4.7136,4.6752,4.7116,4.7702,4.85,4.9487,5.0008,4.9671,5.103,5.1774,5.1523,5.19,5.2427,5.313,5.3507,5.3507,5.313,5.381,5.3942,5.3478,5.3997,5.4309,5.4459,5.3766,5.2825,5.1831,5.1675,5.1596,5.157,5.1178,5.1021,5.1057,5.1303,5.1365,5.1373,5.1134,5.1336,5.1755,0.0,0.0,0.0,0.0,0.0,0.0,0.0,0.0,0.0,0.0,0.0,0.0,0.0,2.342,2.3555,2.4739,2.8833,3.2235,3.4418,3.9016,4.2186,4.349,4.4599,4.5334,4.5637,4.6186,4.6473,4.6473,4.5924,4.595,4.6447,4.5323,4.5088,4.5555,4.5009,4.5033,4.5581,4.5555,4.5297,4.4696,4.352,4.2004,4.0226,3.7978,3.6018,3.458,3.5182,3.4406,3.2895,3.1727,3.1422,3.1386,3.0859,3.1035,3.1386,3.1361,3.0608,2.974,2.9482,3.0223,3.1561,3.4023,3.5259,3.6348,3.8238,3.8743,3.9056,4.0138,4.0787,4.1317,4.1846,4.2808,4.3866,4.4861,4.5573,4.6295,4.7329,4.704,4.6728,4.6704,4.6271,4.6303,4.7134,4.8879,4.9892,4.9867,5.0772,5.1523,5.2051,5.2101,5.2578,5.3632,5.3683,5.3683,5.3683,5.3683,5.364,5.3478,5.3546,5.3861,5.4459,5.3766,5.306,5.2433,5.1858,5.1596,5.1596,5.157,5.157,5.157,5.157,5.157,5.157,5.1544,5.2192,5.3052,0.0,0.0,0.0,0.0,0.0,0.0,0.0,0.0,0.0,0.0,0.0,0.0,0.0,0.0,0.0,0.0,2.782,3.077,3.3016,3.7057,4.0065,4.1644,4.2995,4.3992,4.446,4.4643,4.4931,4.5323,4.5114,4.514,4.5297,4.4905,4.4826,4.4955,4.4772,4.4853,4.5036,4.4643,4.4121,4.3467,4.1925,4.0488,3.9076,3.7142,3.4868,3.2568,0.0,3.0825,3.0098,2.9651,2.9173,2.8899,2.9327,2.8925,2.8394,2.9038,2.9478,3.0066,3.1183,3.2605,3.4082,3.5673,3.7591,3.9352,4.0194,4.0667,4.1124,4.1822,4.1822,4.1749,4.1942,4.2808,4.3746,4.4429,4.5645,4.6704,4.7401,4.7954,4.7762,4.6367,4.6968,4.7226,4.64,4.7987,4.9298,4.9867,5.1097,5.19,5.2101,5.2452,5.2829,5.3181,5.3507,5.3532,5.3181,5.3532,5.3501,5.3136,5.2962,5.3299,5.3941,5.2907,5.2476,5.2459,5.1858,5.1596,5.1596,5.1596,5.1596,5.1596,5.1596,5.1596,5.1596,5.1596,5.2094,5.2738,0.0,0.0,0.0,0.0,0.0,0.0,0.0,0.0,0.0,0.0,0.0,0.0,0.0,0.0,0.0,0.0,0.0,2.8905,3.099,3.4389,3.7166,3.9049,4.0062,4.101,4.2004,4.1638,4.1899,4.2892,4.3101,4.3389,4.3807,4.3807,4.3807,4.3807,4.3598,4.352,4.3493,4.2892,4.2317,4.1638,3.9651,3.8187,3.6933,3.4789,3.2398,0.0,2.8124,2.7056,2.6575,2.6516,2.6561,2.6662,2.7027,2.7314,2.7612,2.8234,2.9628,3.1345,3.3046,3.4647,3.6234,3.7764,3.9546,4.1087,4.1639,4.1725,4.1774,4.2193,4.1629,4.1124,4.1124,4.1677,4.2543,4.378,4.5068,4.6247,4.7353,4.8074,4.7954,4.6391,4.6944,4.7112,4.6295,4.7345,4.8649,4.9917,5.117,5.2141,5.2653,5.2829,5.3105,5.3507,5.3632,5.3532,5.3206,5.3532,5.3432,5.2929,5.2894,5.3155,5.3484,5.2867,5.2556,5.2485,5.2328,5.1988,5.1622,5.1831,5.1779,5.1596,5.1596,5.1596,5.1596,5.1596,5.2102,5.2696,0.0,0.0,0.0,0.0,0.0,0.0,0.0,0.0,0.0,0.0,0.0,0.0,0.0,0.0,0.0,0.0,0.0,0.0,2.8415,3.1209,3.3764,3.5835,3.6018,3.6854,3.8579,3.756,3.7821,3.952,4.0043,4.088,4.2028,4.2002,4.2002,4.2002,4.1402,4.1115,4.1063,4.0461,3.986,3.9102,3.6802,3.5208,3.3875,3.1092,2.8978,2.7177,2.4958,2.3583,2.2811,2.286,2.3887,2.5044,2.4337,2.633,2.8963,2.9,3.0994,3.3483,3.4839,3.6234,3.7876,4.0245,4.1031,4.1533,4.2554,4.1942,4.1196,4.1124,4.0234,3.9465,3.9369,3.9465,4.0379,4.2904,4.3938,4.5101,4.7257,4.7569,4.7377,4.6824,4.6367,4.6271,4.6704,4.7061,4.8133,5.0075,5.1098,5.221,5.3632,5.3231,5.3457,5.4486,5.3959,5.3658,5.3658,5.3658,5.3406,5.2929,5.3247,5.3309,5.3135,5.3484,5.3192,5.2563,5.3138,5.272,5.1648,5.225,5.2145,5.1596,5.1596,5.1596,5.1596,5.1596,5.2213,5.2949,0.0,0.0,0.0,0.0,0.0,0.0,0.0,0.0,0.0,0.0,0.0,0.0,0.0,0.0,0.0,0.0,0.0,0.0,2.7092,2.9476,3.1665,3.3483,3.4816,3.6123,3.7403,3.7168,3.7456,3.8344,3.8475,3.8893,3.9573,3.9181,3.9207,3.9573,3.9024,3.8527,3.8057,3.7456,3.641,3.4999,3.3494,3.2215,3.1066,2.9928,2.8412,2.6765,2.5746,2.4316,2.3054,2.3756,2.547,2.7128,2.6045,2.7365,2.9454,3.0466,3.2438,3.4659,3.6405,3.8035,3.9588,4.0789,4.1735,4.2386,4.2265,4.1966,4.1437,4.0258,3.8839,3.7445,3.6266,3.7685,3.9369,4.0427,4.3361,4.6126,4.7858,4.8435,4.8339,4.7401,4.7882,4.8002,4.7377,4.8093,4.9204,5.069,5.1321,5.221,5.3632,5.3582,5.3632,5.3909,5.3406,5.313,5.313,5.313,5.3055,5.2929,5.2571,5.2793,5.336,5.2854,5.2684,5.2751,5.3192,5.272,5.1648,5.225,5.2145,5.1596,5.1596,5.1596,5.1596,5.1596,5.2213,5.2965,0.0,0.0,0.0,0.0,0.0,0.0,0.0,0.0,0.0,0.0,0.0,0.0,0.0,0.0,0.0,0.0,0.0,0.0,0.0,2.7468,2.9097,3.0514,3.1603,3.2684,3.3829,3.3442,3.377,3.4868,3.5129,3.5652,3.6462,3.6149,3.6175,3.6436,3.5861,3.5443,3.5051,3.4214,3.33,0.0,0.0,2.9526,2.8847,2.7785,2.6824,2.5855,2.4988,2.4676,2.4844,2.5739,2.6955,2.8135,2.8338,2.9493,3.1133,3.2749,3.4617,3.648,3.8178,3.9631,4.0886,4.1489,4.2099,4.2206,4.1287,4.0817,3.9946,3.7637,3.6074,3.4727,3.3332,3.528,3.7541,3.9032,4.2615,4.5958,4.8002,4.8748,4.8868,4.8267,4.8724,4.8844,4.8243,4.8724,4.9673,5.0978,5.1245,5.2004,5.3632,5.3482,5.3457,5.3683,5.3206,5.2929,5.2929,5.2929,5.2929,5.2929,5.2603,5.2833,5.3452,5.302,5.2987,5.3217,5.3673,5.3322,5.2433,5.3008,5.2903,5.2354,5.2093,5.1988,5.1962,5.1701,5.2271,5.3196,0.0,0.0,0.0,0.0,0.0,0.0,0.0,0.0,0.0,0.0,0.0,0.0,0.0,0.0,0.0,0.0,0.0,0.0,0.0,0.0,2.6613,2.761,2.7851,2.8488,2.9663,2.8907,2.9248,3.0764,3.1261,3.198,3.3012,3.2934,3.2908,3.2881,3.228,3.2045,3.2045,3.0973,3.0529,3.0346,2.8255,2.7333,2.7098,0.0,2.5066,2.4905,2.3829,2.4885,2.6918,2.8083,2.8625,2.9113,3.0868,3.2179,3.3543,3.5403,3.7017,3.8533,3.9971,4.1015,4.1798,4.2293,4.2162,4.1537,4.0078,3.8974,3.744,3.4222,3.2731,3.1673,3.0735,3.2731,3.5449,3.8262,4.1774,4.5077,4.7935,4.8656,4.8968,4.9112,4.9112,4.9136,4.9277,4.9301,4.9873,5.1287,5.115,5.1827,5.3618,5.3237,5.3231,5.3683,5.3206,5.2955,5.303,5.2955,5.2929,5.2929,5.2929,5.3067,5.341,5.3478,5.3512,5.3602,5.4185,5.4089,5.3361,5.3975,5.387,5.3347,5.2825,5.2616,5.2563,5.2119,5.2616,5.3569,0.0,0.0,0.0,0.0,0.0,0.0,0.0,0.0,0.0,0.0,2.5791,0.0,0.0,0.0,0.0,0.0,0.0,0.0,0.0,0.0,0.0,2.6455,2.6917,2.779,2.9129,2.8983,2.9142,2.9562,2.9666,2.9823,3.0006,2.9545,2.9274,2.9284,2.8673,2.8699,2.9091,2.8412,2.809,2.8012,2.7183,2.653,2.6054,2.5584,0.0,0.0,2.4841,2.5281,2.6527,2.951,3.1431,3.2673,3.3276,3.4644,3.6379,3.7794,3.8731,3.9744,4.1769,4.2155,4.2145,4.306,4.2425,4.1147,3.9426,3.7355,3.496,3.2037,3.023,2.9148,2.8955,3.1096,3.4054,3.7565,4.0884,4.4357,4.8004,4.8175,4.8294,4.9151,4.9246,4.9577,5.0383,5.0431,5.0982,5.238,5.1696,5.1975,5.3864,5.3743,5.3607,5.3708,5.3206,5.313,5.3557,5.313,5.2929,5.2929,5.2929,5.2929,5.2998,5.3341,5.3241,5.2842,5.3984,5.3864,5.2984,5.3844,5.387,5.34,5.3269,5.3243,5.3269,5.3635,5.387,5.4197,0.0,0.0,0.0,0.0,0.0,0.0,0.0,0.0,0.0,2.9244,2.8951,2.812,0.0,0.0,0.0,0.0,0.0,0.0,0.0,0.0,0.0,0.0,2.651,2.7139,2.778,2.8014,2.8118,2.811,0.0,2.8057,2.7704,2.7669,2.7548,2.7371,2.739,2.7579,2.7889,2.7314,2.7013,2.6888,2.6323,2.5656,2.5097,0.0,0.0,0.0,0.0,2.6375,2.7885,2.9635,3.195,3.4385,3.5844,3.6917,3.7979,3.9544,4.0234,4.0763,4.2386,4.276,4.2772,4.265,4.1852,4.0292,3.6996,3.4859,3.2505,2.8771,2.7584,2.7176,2.6887,2.9484,3.2587,3.5473,3.8515,4.1946,4.6114,4.6645,4.7294,4.9384,5.0101,5.0603,5.1081,5.1369,5.1802,5.2502,5.1944,5.2223,5.3449,5.3648,5.3833,5.4135,5.3909,5.3909,5.416,5.3607,5.3331,5.3331,5.3055,5.2929,5.2929,5.3136,5.3121,5.314,5.3868,5.3999,5.3708,5.4417,5.4524,5.4288,5.4288,5.4105,5.3844,5.4105,5.421,5.4302,0.0,0.0,0.0,0.0,0.0,0.0,0.0,2.8926,3.0115,3.1638,3.1898,3.1113,2.9045,2.7472,2.619,0.0,0.0,0.0,0.0,0.0,0.0,0.0,0.0,0.0,0.0,0.0,0.0,2.7156,2.7198,0.0,0.0,0.0,0.0,0.0,2.6782,2.7108,2.7181,2.6772,2.6544,0.0,0.0,2.5537,0.0,0.0,0.0,0.0,0.0,2.6914,2.8497,2.9433,3.1477,3.4083,3.6887,3.8121,3.8771,4.0242,4.1004,4.1557,4.2554,4.306,4.3166,4.23,4.1165,3.9164,3.4906,3.2465,2.9972,2.608,2.5433,2.5529,2.5492,2.8026,3.0985,3.3671,3.6296,3.9593,4.4266,4.5405,4.6698,4.9451,5.0674,5.1465,5.1658,5.1922,5.2259,5.2596,5.2453,5.2543,5.3102,5.3428,5.3964,5.4712,5.4637,5.4637,5.4737,5.4059,5.3708,5.3683,5.3181,5.2929,5.2929,5.2929,5.3136,5.3546,5.3861,5.4251,5.4692,5.5121,5.536,5.5465,5.5334,5.4994,5.455,5.4445,5.4393,5.4459,0.0,0.0,0.0,0.0,0.0,0.0,0.0,2.914,3.077,3.3554,3.3291,3.2604,3.1891,3.0125,2.8098,0.0,0.0,0.0,0.0,0.0,0.0,0.0,0.0,0.0,0.0,0.0,0.0,2.7729,2.7267,0.0,0.0,0.0,0.0,0.0,0.0,2.6217,2.625,2.6198,0.0,0.0,0.0,0.0,0.0,0.0,0.0,0.0,0.0,2.5636,2.6154,2.9386,3.0301,3.0767,3.4631,3.718,3.8791,3.8984,4.0403,4.2014,4.2651,4.2879,4.3017,4.2994,4.0764,3.7769,3.4742,3.0874,2.7375,2.5503,2.4396,2.4215,2.5745,2.6952,2.9195,3.3624,3.5659,3.8485,4.3608,4.5526,4.7126,4.9129,5.0318,5.1296,5.2163,5.1826,5.2139,5.3582,5.3493,5.3375,5.3222,5.3242,5.3882,5.529,5.4838,5.4813,5.5315,5.4235,5.3708,5.3683,5.3181,5.2929,5.2929,5.2929,5.3136,5.3546,5.3861,5.4483,5.5381,5.5695,5.617,5.6588,5.604,5.5804,5.57,5.5203,5.502,5.5087,0.0,0.0,0.0,0.0,0.0,0.0,0.0,2.9621,3.1046,3.3924,3.3871,3.3291,3.2594,3.1482,2.9614,0.0,0.0,0.0,0.0,0.0,0.0,0.0,0.0,0.0,0.0,0.0,2.7348,2.7516,2.7713,0.0,0.0,0.0,0.0,0.0,0.0,2.6518,2.6644,2.6644,0.0,0.0,0.0,0.0,0.0,0.0,0.0,0.0,0.0,0.0,2.6887,2.7421,2.849,2.982,3.0946,3.3236,3.5927,3.8311,3.9935,4.1223,4.2386,4.3165,4.338,4.2254,4.013,3.7379,3.3822,3.0155,2.6962,2.5016,2.429,2.4266,2.5326,2.6128,2.778,3.1277,3.2013,3.3974,3.9268,4.1082,4.3236,4.6783,4.907,5.0818,5.2163,5.2644,5.2884,5.2884,5.2549,5.2502,5.2956,5.3777,5.4586,5.5503,5.5521,5.5666,5.5892,5.5114,5.4712,5.4712,5.416,5.3733,5.3406,5.3614,5.367,5.3546,5.4064,5.4712,5.5459,5.5773,5.604,5.6275,5.6405,5.604,5.5438,5.5543,5.5595,5.561,0.0,0.0,0.0,0.0,0.0,0.0,2.913,2.9837,3.1123,3.3785,3.3788,3.3382,3.3026,3.1836,3.0163,2.7889,0.0,0.0,0.0,0.0,0.0,0.0,0.0,0.0,0.0,0.0,2.7586,2.777,2.8282,2.8357,0.0,0.0,2.7717,2.7116,0.0,0.0,0.0,0.0,0.0,0.0,0.0,0.0,0.0,0.0,0.0,0.0,0.0,0.0,0.0,0.0,0.0,2.8552,2.8514,3.0116,3.2761,3.6601,3.8761,4.0174,4.1387,4.2465,4.288,4.1233,3.9117,3.6495,3.2762,2.9488,2.669,2.4567,2.4152,2.4352,2.4874,2.5468,2.6647,2.923,2.9593,3.1385,3.6566,3.8421,4.0856,4.5173,4.7738,4.9734,5.1201,5.2716,5.3221,5.2355,5.2211,5.2429,5.2938,5.401,5.4917,5.5607,5.5852,5.6072,5.6219,5.5666,5.5315,5.5139,5.4587,5.4009,5.3482,5.3785,5.379,5.3682,5.438,5.5106,5.5855,5.6034,5.6275,5.6432,5.651,5.604,5.5334,5.5386,5.5517,5.5621,0.0,0.0,0.0,0.0,0.0,0.0,0.0,2.9707,3.1108,3.334,3.3064,3.2934,3.3509,3.1026,2.951,3.0022,0.0,0.0,0.0,0.0,0.0,0.0,0.0,0.0,0.0,0.0,2.7821,2.8863,2.8888,2.9202,2.9754,2.9754,2.9176,2.8097,0.0,0.0,0.0,0.0,0.0,0.0,0.0,0.0,0.0,0.0,0.0,0.0,0.0,0.0,0.0,0.0,0.0,0.0,0.0,2.8722,2.9682,3.3363,3.664,3.9149,3.949,4.041,4.108,4.0093,3.7627,3.4762,3.1708,2.8783,2.6147,2.4106,2.3863,2.4143,2.4625,2.4995,2.5984,2.824,2.9491,3.19,3.6901,3.9164,4.1484,4.4702,4.6559,4.7954,4.9012,5.1513,5.286,5.2331,5.3221,5.3582,5.3077,5.3906,5.4769,5.5558,5.5632,5.5779,5.6219,5.5666,5.5114,5.4561,5.3984,5.3432,5.2929,5.2929,5.3341,5.4022,5.4612,5.559,5.6798,5.6798,5.7137,5.7529,5.6379,5.5909,5.5778,5.4628,5.4602,5.5125,0.0,0.0,0.0,0.0,0.0,0.0,0.0,2.7855,2.8741,3.0921,3.1014,3.1156,3.1757,3.0999,3.0309,2.9917,0.0,0.0,0.0,0.0,0.0,0.0,0.0,0.0,0.0,0.0,2.9352,3.0041,3.0809,3.1461,3.2014,3.126,3.0507,2.9779,2.8963,2.8147,0.0,0.0,0.0,0.0,0.0,0.0,0.0,0.0,0.0,0.0,0.0,0.0,0.0,0.0,0.0,0.0,0.0,0.0,0.0,3.0462,3.3667,3.6407,3.6673,3.7811,3.8585,3.7225,3.5113,3.2883,3.0697,2.8318,2.62,2.4987,2.4526,2.4505,2.4958,2.5228,2.6332,2.9179,3.0043,3.1949,3.6374,3.8918,4.1342,4.4199,4.8243,5.1032,5.173,5.2572,5.3004,5.2836,5.3125,5.3245,5.3077,5.3707,5.4272,5.4794,5.5312,5.5632,5.5779,5.5521,5.529,5.5114,5.4561,5.4009,5.3457,5.3759,5.3902,5.3997,5.4447,5.5242,5.6196,5.6196,5.6301,5.6432,5.6066,5.5674,5.5308,5.4942,5.5438,5.6144,0.0,0.0,0.0,0.0,0.0,0.0,0.0,2.707,2.7702,2.9248,2.9483,2.9849,3.0869,3.0398,3.0074,3.024,0.0,0.0,0.0,0.0,0.0,0.0,0.0,0.0,0.0,2.9051,3.0256,3.121,3.2315,3.3144,3.3696,3.2968,3.2014,3.0859,2.998,2.8825,0.0,0.0,0.0,0.0,0.0,0.0,2.7544,0.0,0.0,0.0,0.0,0.0,0.0,0.0,0.0,0.0,0.0,0.0,0.0,0.0,3.0228,3.3045,3.4416,3.5688,3.6392,3.5221,3.3568,3.178,2.9931,2.799,2.6309,2.5405,2.4838,2.4732,2.5538,2.5451,2.6123,2.8724,2.9488,3.1182,3.5156,3.8036,4.1117,4.475,4.8868,5.1586,5.2115,5.2548,5.2932,5.3317,5.3173,5.3149,5.3341,5.3461,5.3683,5.3906,5.45,5.5016,5.5309,5.4979,5.482,5.4737,5.4411,5.3959,5.3406,5.364,5.3808,5.3819,5.4501,5.5031,0.0,5.5872,5.5914,5.5679,5.5632,5.5386,5.5099,5.5099,5.5543,5.6066,0.0,0.0,0.0,0.0,0.0,0.0,0.0,0.0,0.0,0.0,2.8307,2.8935,3.0555,2.9353,2.9127,0.0,0.0,0.0,0.0,0.0,0.0,0.0,0.0,0.0,0.0,2.9377,3.0758,3.239,3.352,3.4374,3.4906,3.4926,3.3721,3.1612,3.1035,2.9804,2.8097,2.7102,2.7253,2.8172,2.8172,2.8147,0.0,0.0,0.0,0.0,0.0,0.0,0.0,0.0,0.0,0.0,0.0,0.0,0.0,0.0,0.0,0.0,0.0,3.3723,3.4285,3.366,3.2492,3.0974,2.9147,2.7615,0.0,2.5382,2.4802,2.4904,2.6299,2.567,2.557,2.7476,2.846,3.0212,3.3728,3.7173,4.1211,4.6357,4.8844,5.0311,5.0816,5.1778,5.2788,5.375,5.3389,5.3317,5.3798,5.3341,5.3077,5.3077,5.3325,5.3815,5.469,5.4216,5.3882,5.3708,5.3658,5.3381,5.2929,5.2929,5.3161,5.3579,5.4569,5.493,5.4988,5.5753,5.5788,5.5355,5.5226,5.5125,5.5099,5.5099,5.5099,5.5099,0.0,0.0,0.0,0.0,0.0,0.0,0.0,0.0,0.0,0.0,2.7445,2.7855,2.8307,2.8778,2.9222,0.0,0.0,0.0,0.0,0.0,0.0,0.0,0.0,0.0,0.0,3.0884,3.2466,3.4123,3.5253,3.6282,3.7236,3.681,3.5655,3.3897,3.2918,3.111,2.8725,2.8448,2.8461,2.8687,2.8687,2.8573,0.0,0.0,0.0,0.0,2.6143,2.6179,0.0,0.0,0.0,0.0,0.0,0.0,0.0,0.0,2.5564,2.6273,2.7813,0.0,3.032,2.9283,2.8453,2.7625,0.0,2.5869,2.5248,2.4995,2.4618,2.4849,2.6703,2.6221,2.6657,3.0146,3.1227,3.2796,3.6184,4.0927,4.5497,4.9437,5.1081,5.1989,5.2499,5.3077,5.3558,5.3798,5.3702,5.3702,5.3822,5.3341,5.3077,5.3077,5.2356,5.255,5.3687,5.3502,5.3508,5.3708,5.3306,5.3055,5.2929,5.2929,5.3362,5.4112,5.3935,5.4243,5.4842,5.5039,5.4963,5.4744,5.5148,5.5221,5.5099,5.5099,5.5099,5.5099,0.0,0.0,0.0,0.0,0.0,0.0,0.0,0.0,0.0,0.0,0.0,0.0,0.0,0.0,0.0,0.0,0.0,0.0,0.0,0.0,0.0,0.0,0.0,0.0,3.0156,3.1512,3.3043,3.468,3.6081,3.7186,3.799,3.7688,3.6408,3.4248,3.2114,3.0331,2.8863,2.8612,2.8737,2.9013,2.8761,0.0,0.0,0.0,0.0,0.0,2.633,2.6283,0.0,2.6404,2.6456,2.6226,0.0,0.0,0.0,0.0,2.4174,2.4574,2.5182,2.7135,2.8831,2.8187,2.7795,2.7445,2.6916,2.5892,2.5061,2.5136,2.4728,2.4932,2.6864,2.6628,2.7221,3.0491,3.1846,3.4365,3.9593,4.3875,4.756,5.055,5.2024,5.2794,5.278,5.3243,5.3582,5.3798,5.3606,5.3485,5.3485,5.298,5.2596,5.2355,5.1562,5.1656,5.2739,5.265,5.2729,5.3123,5.2986,5.2929,5.2929,5.2929,5.3149,5.3658,5.3583,5.3721,5.3935,5.4396,5.4441,5.4335,5.478,5.5154,5.5465,5.5465,5.5465,5.5465,0.0,0.0,0.0,0.0,0.0,0.0,0.0,0.0,0.0,0.0,0.0,0.0,0.0,0.0,0.0,0.0,0.0,0.0,0.0,0.0,0.0,0.0,0.0,2.949,3.0834,3.1738,3.3119,3.4977,3.6533,3.7638,3.8266,3.8341,3.6835,3.3897,3.0909,2.9339,2.8988,2.8574,2.8736,2.9301,2.8743,0.0,0.0,0.0,0.0,0.0,0.0,0.0,0.0,2.7076,2.6993,2.642,2.543,0.0,0.0,0.0,0.0,0.0,2.4059,2.6266,2.841,2.8133,2.8204,2.8157,2.7687,2.6385,2.5308,2.5493,2.5102,2.5373,2.7307,2.7412,2.8032,3.056,3.2492,3.6018,4.2875,4.5938,4.8377,5.0795,5.2174,5.2902,5.255,5.2875,5.3291,5.3798,5.3365,5.3077,5.3077,5.2499,5.1946,5.1513,5.0984,5.1054,5.1821,5.1736,5.1935,5.2377,5.2723,5.2861,5.2929,5.2929,5.298,5.3055,5.3432,5.3381,5.308,5.3904,5.4098,5.3997,5.4412,5.506,5.5841,5.5909,5.5909,5.5909,0.0,0.0,0.0,0.0,0.0,0.0,0.0,0.0,0.0,0.0,0.0,0.0,0.0,0.0,0.0,0.0,0.0,0.0,0.0,0.0,0.0,0.0,2.9439,2.9841,3.1913,3.2139,3.3495,3.6153,3.7287,3.8417,3.9446,3.9898,3.814,3.4525,3.3093,3.1411,2.9654,2.9578,2.9693,2.9885,2.9327,0.0,0.0,0.0,0.0,0.0,0.0,0.0,0.0,2.6422,2.6912,2.7186,2.492,0.0,0.0,0.0,0.0,0.0,2.5131,2.674,2.7478,2.6028,2.6287,2.6614,2.5557,2.5413,2.5554,2.5591,2.5836,2.6784,2.9253,2.9522,3.044,3.3897,3.6948,4.0241,4.392,4.6242,4.8457,5.0983,5.1827,5.2436,5.3048,5.3124,5.3374,5.3747,5.3365,5.3077,5.3077,5.2139,5.1586,5.1489,5.0984,5.0744,5.0887,5.1144,5.1656,5.2377,5.2446,5.2654,5.2929,5.2929,5.3181,5.3557,5.3206,5.3256,5.3582,5.3752,5.3684,5.3665,5.4441,5.504,5.5527,5.5773,5.5909,5.5909,0.0,0.0,0.0,0.0,0.0,0.0,0.0,0.0,0.0,0.0,0.0,0.0,0.0,0.0,0.0,0.0,0.0,0.0,0.0,0.0,0.0,3.2365,3.1311,3.1185,3.219,3.3351,3.4926,3.6857,3.8818,4.0074,4.0551,3.9295,3.7159,3.4376,3.2659,3.1211,2.9972,2.9972,3.0088,3.0177,0.0,0.0,0.0,0.0,0.0,0.0,0.0,0.0,0.0,0.0,2.7157,2.7457,2.563,0.0,0.0,0.0,0.0,0.0,2.4909,2.6335,2.7138,2.6631,2.7732,2.8769,2.8211,2.7521,2.7159,2.7767,2.7798,2.842,3.0649,3.1735,3.3592,3.7487,4.0518,4.3216,4.5553,4.7321,4.914,5.1086,5.1731,5.206,5.2183,5.2514,5.2771,5.2708,5.269,5.2524,5.2235,5.1754,5.1369,5.1081,5.084,5.0696,5.0696,5.0837,5.1306,5.2099,5.2308,5.2585,5.2929,5.2929,5.3055,5.3281,5.303,5.3055,5.3281,5.3281,5.3539,5.3935,5.4064,5.5014,5.634,5.6373,5.6588,5.6719,0.0,0.0,0.0,0.0,0.0,0.0,0.0,0.0,0.0,0.0,0.0,0.0,0.0,0.0,0.0,0.0,0.0,0.0,0.0,0.0,3.2215,3.3646,3.2993,3.2792,3.3169,3.468,3.6285,3.7965,4.0224,4.1351,4.148,3.9095,3.6694,3.428,3.2371,3.1026,3.0265,3.01,3.0279,3.0509,0.0,0.0,0.0,0.0,0.0,0.0,0.0,0.0,0.0,0.0,0.0,0.0,0.0,0.0,0.0,2.4837,2.4067,2.3945,2.5192,2.6348,2.7372,2.8089,2.9316,3.0422,3.0826,2.972,2.9039,3.0353,3.0281,3.0572,3.2343,3.4455,3.7003,4.0527,4.3275,4.5585,4.7144,4.8644,5.0123,5.1555,5.1947,5.1967,5.1629,5.2084,5.2244,5.1868,5.2137,5.2043,5.1513,5.1489,5.1249,5.072,5.0696,5.0696,5.0696,5.0696,5.1049,5.1656,5.2099,5.2446,5.2792,5.2861,5.2929,5.2929,5.2929,5.2929,5.2929,5.3055,5.3419,5.3948,5.3782,5.4927,5.6729,5.679,5.6981,5.7059,0.0,0.0,0.0,0.0,0.0,0.0,0.0,0.0,0.0,0.0,0.0,0.0,0.0,0.0,0.0,0.0,0.0,0.0,0.0,0.0,3.2441,3.3119,3.3545,3.45,3.6078,3.573,3.7038,4.0275,4.0949,4.1605,4.2112,4.0847,3.835,3.4914,3.3741,3.2345,3.0823,3.0122,3.0328,3.1086,3.0535,0.0,0.0,0.0,0.0,0.0,0.0,0.0,0.0,0.0,0.0,0.0,0.0,0.0,2.665,2.5422,2.501,2.536,2.7248,2.7982,2.8484,2.9615,2.9292,2.9051,3.0585,3.0398,3.0567,3.2635,3.302,3.3501,3.5039,3.7989,4.0737,4.2259,4.5018,4.7416,4.8474,4.9977,5.1338,5.2395,5.2535,5.2476,5.2356,5.2383,5.2392,5.2234,5.2283,5.2043,5.1513,5.1489,5.1249,5.072,5.0696,5.0696,5.0696,5.0696,5.0908,5.1211,5.1656,5.203,5.2446,5.2792,5.2929,5.2929,5.2929,5.2929,5.2955,5.3457,5.3381,5.3099,5.3923,5.4799,5.564,5.6477,5.6484,5.6013,0.0,0.0,0.0,0.0,0.0,0.0,0.0,0.0,0.0,0.0,0.0,0.0,0.0,0.0,0.0,0.0,0.0,0.0,0.0,0.0,3.3294,3.455,3.4781,3.5529,3.6883,3.804,3.9597,4.153,4.2599,4.2966,4.2652,4.0313,3.7862,3.5366,3.3794,3.2552,3.1607,3.1098,3.097,3.1137,3.0366,2.9932,0.0,0.0,0.0,0.0,0.0,0.0,0.0,0.0,2.7324,2.7645,2.6706,2.6997,2.7537,2.6726,2.5865,2.5456,2.6572,2.7594,2.8562,2.9675,3.0573,3.1438,3.2608,3.3188,3.4126,3.629,3.6459,3.6699,3.8286,4.0434,4.2389,4.3654,4.6196,4.8211,4.8639,5.0096,5.1342,5.2047,5.2118,5.2005,5.1659,5.1526,5.1342,5.0962,5.1154,5.1225,5.1008,5.1008,5.0912,5.072,5.0696,5.0696,5.0696,5.0696,5.0767,5.0884,5.1236,5.1796,5.2377,5.2515,5.2723,5.2929,5.2929,5.2729,5.2452,5.3005,5.3105,5.3005,5.4303,5.4599,5.4338,5.5246,5.5228,5.4712,0.0,0.0,0.0,0.0,0.0,0.0,0.0,0.0,0.0,0.0,0.0,0.0,0.0,0.0,0.0,0.0,0.0,0.0,3.1687,3.239,3.3395,3.47,3.5056,3.5909,3.7412,3.9471,4.1053,4.2213,4.3832,4.3695,4.1998,3.9776,3.7745,3.58,3.4153,3.3239,3.2803,3.1935,3.1589,3.1486,3.0467,3.011,0.0,0.0,0.0,0.0,0.0,0.0,0.0,0.0,2.7233,2.7519,2.7153,2.7494,2.7996,2.7444,2.6887,2.6422,2.6437,2.7432,2.8744,2.9711,3.1437,3.3287,3.4776,3.5643,3.6771,3.908,3.9272,3.9345,4.0427,4.1942,4.3348,4.4308,4.7003,4.9032,4.9274,5.0577,5.1642,5.2163,5.2068,5.1784,5.1263,5.1103,5.0962,5.0604,5.0794,5.096,5.096,5.096,5.0864,5.072,5.0696,5.0696,5.0696,5.0696,5.0696,5.0696,5.0954,5.1446,5.2213,5.2377,5.2485,5.2678,5.2678,5.2352,5.19,5.2452,5.2678,5.2754,5.3873,5.3757,5.3089,5.4057,5.3945,5.3484,0.0,0.0,0.0,0.0,0.0,0.0,0.0,0.0,0.0,0.0,0.0,0.0,0.0,0.0,0.0,0.0,0.0,0.0,3.0658,3.1612,3.2466,3.3043,3.4148,3.5755,3.7939,3.9622,4.1053,4.2213,4.4382,4.3577,3.9981,3.9682,3.8376,3.612,3.5109,3.4597,3.44,3.2488,3.2005,3.2303,3.1164,3.0474,3.0048,0.0,0.0,0.0,0.0,0.0,0.0,0.0,2.7091,2.67,2.7745,2.8097,2.8021,2.7444,2.8072,2.86,2.7329,2.7925,2.9088,2.9831,3.1589,3.3934,3.6964,3.7436,3.7974,4.0667,4.1196,4.1196,4.1196,4.2471,4.3697,4.4213,4.7473,5.007,5.0624,5.161,5.2475,5.3004,5.2596,5.2067,5.1537,5.1489,5.1489,5.1489,5.1489,5.1489,5.1489,5.1489,5.1249,5.072,5.0696,5.0696,5.0696,5.0696,5.0696,5.0696,5.0696,5.1119,5.182,5.2238,5.2285,5.2101,5.2101,5.18,5.1322,5.1875,5.2101,5.2101,5.2481,5.226,5.1895,5.2879,5.2766,5.2356,0.0,0.0,0.0,0.0,0.0,0.0,0.0,0.0,0.0,0.0,0.0,0.0,0.0,0.0,0.0,0.0,0.0,0.0,3.0658,3.1612,3.2466,3.3043,3.45,3.5382,3.568,3.7713,4.0178,4.3123,4.2928,4.1586,3.9188,3.8111,3.7021,3.5941,3.584,3.5429,3.471,3.3545,3.3002,3.2898,3.185,3.142,3.1223,0.0,0.0,0.0,0.0,0.0,0.0,0.0,0.0,0.0,2.749,2.8348,2.9026,2.767,2.7795,2.7985,2.6421,2.7734,2.9841,3.1198,3.4189,3.7419,3.9619,3.977,4.009,4.2351,4.2832,4.2711,4.241,4.3289,4.4333,4.5309,4.793,5.007,5.0624,5.1922,5.2764,5.2548,5.2379,5.2067,5.1537,5.1153,5.1081,5.1465,5.1153,5.1105,5.1465,5.1129,5.0864,5.072,5.0696,5.0837,5.1025,5.1025,5.1165,5.1471,5.1471,5.1611,5.182,5.196,5.201,5.2101,5.2101,5.1548,5.0695,5.0845,5.1147,5.1523,5.1657,5.1305,5.0943,5.1564,5.1478,5.1125,0.0,0.0,0.0,0.0,0.0,0.0,0.0,0.0,0.0,0.0,3.0407,3.0783,0.0,0.0,0.0,0.0,0.0,0.0,0.0,0.0,3.2466,3.3043,3.4248,3.5152,3.568,3.7663,3.9322,4.0664,4.082,3.9778,3.7731,3.7705,3.7288,3.6488,3.7168,3.6678,3.5362,3.4658,3.3965,3.3305,3.2723,3.2346,3.2084,0.0,0.0,0.0,0.0,0.0,0.0,0.0,0.0,0.0,2.7037,2.7681,2.8323,2.7519,2.767,2.7971,2.7419,2.8976,3.121,3.3068,3.5971,3.9104,4.1727,4.2147,4.2447,4.413,4.413,4.3818,4.3721,4.4227,4.4957,4.6054,4.8291,5.007,5.0624,5.1874,5.2644,5.2331,5.2091,5.185,5.1513,5.1008,5.0912,5.1441,5.1008,5.0936,5.1465,5.0984,5.0696,5.0696,5.0696,5.0837,5.1025,5.1384,5.1596,5.1586,5.1751,5.1767,5.1684,5.1684,5.1731,5.1749,5.1297,5.072,5.0092,5.0092,5.0419,5.0946,5.0946,5.087,5.077,5.0896,5.087,5.087,0.0,0.0,2.974,2.974,0.0,0.0,0.0,0.0,0.0,0.0,3.0658,3.106,0.0,0.0,0.0,0.0,0.0,0.0,0.0,0.0,3.2516,3.3086,3.3746,3.5052,3.7061,3.8617,3.8316,3.6179,3.8254,3.8072,3.5775,3.7925,3.839,3.7473,3.8613,3.8023,3.6115,3.5494,3.4598,3.3587,3.3535,3.3169,3.2646,3.2084,0.0,0.0,0.0,0.0,0.0,0.0,0.0,0.0,2.6618,2.66,2.676,2.7128,2.7695,2.8473,2.9453,3.1009,3.2918,3.5232,3.7393,3.9943,4.3535,4.4401,4.4756,4.5718,4.5125,4.4621,4.5053,4.5173,4.5597,4.6631,4.8483,4.9998,5.0624,5.1562,5.2211,5.2211,5.1778,5.1465,5.1417,5.0984,5.0912,5.1441,5.1008,5.0936,5.1465,5.0984,5.0696,5.0696,5.0696,5.0696,5.0767,5.1675,5.1864,5.1352,5.1726,5.1803,5.1575,5.1458,5.1362,5.1147,5.0067,4.959,4.959,4.964,4.9941,5.0343,5.0444,5.0795,5.1147,5.067,5.082,5.1297,0.0,0.0,2.9443,2.9287,0.0,0.0,0.0,0.0,0.0,0.0,0.0,0.0,0.0,0.0,0.0,0.0,0.0,0.0,0.0,0.0,3.2943,3.3111,3.4896,3.6103,3.6581,3.6933,3.6207,3.4424,3.6222,3.6121,3.4388,3.6572,3.7349,3.6937,3.803,3.7534,3.5742,3.4272,3.3612,3.3561,3.3064,3.2803,3.2672,3.2568,3.1731,0.0,0.0,0.0,0.0,0.0,0.0,0.0,2.7142,2.7526,2.7799,2.6936,2.7971,2.9377,2.9176,3.1286,3.4274,3.7387,4.0914,4.416,4.6374,4.6426,4.5963,4.5886,4.6078,4.6102,4.5814,4.6102,4.6583,4.7233,4.8411,4.9589,5.0576,5.1249,5.1658,5.1658,5.1562,5.1321,5.0912,5.0768,5.0912,5.1441,5.1008,5.0936,5.1465,5.0984,5.0696,5.0696,5.0696,5.0978,5.1541,5.1803,5.2059,5.2585,5.2654,5.2423,5.194,5.122,5.0789,5.0569,4.9891,4.959,4.9615,5.0067,5.0067,4.9866,5.0745,5.0896,5.0645,5.0971,5.1172,5.1348,0.0,0.0,0.0,0.0,0.0,0.0,0.0,0.0,0.0,0.0,0.0,0.0,0.0,0.0,0.0,0.0,3.2466,0.0,0.0,0.0,0.0,3.4248,3.6383,3.7109,3.6006,3.6279,3.5475,3.3495,3.4374,3.4474,3.3947,3.6251,3.7354,3.7379,3.8336,3.7562,3.5429,3.4684,3.4027,3.3424,3.3807,3.3532,3.293,3.2763,3.1627,3.0085,2.9412,0.0,0.0,0.0,0.0,0.0,0.0,0.0,2.6909,2.6895,2.7742,2.9038,3.0522,3.2943,3.6081,4.0199,4.3337,4.5646,4.6721,4.6636,4.6294,4.5974,4.615,4.6319,4.6295,4.6319,4.668,4.7714,4.8339,4.8988,4.9806,5.0624,5.1105,5.1105,5.1345,5.1393,5.1105,5.0864,5.0696,5.072,5.0696,5.0696,5.072,5.0696,5.0696,5.0696,5.0696,5.0978,5.1516,5.1972,5.2346,5.2654,5.2792,5.2352,5.1297,5.0772,5.0347,5.0017,4.9715,4.959,4.964,5.0193,5.0419,5.0469,5.1046,5.1423,5.1599,5.1373,5.1624,5.2076,0.0,0.0,0.0,0.0,0.0,0.0,0.0,0.0,0.0,0.0,0.0,0.0,0.0,0.0,3.2244,0.0,0.0,0.0,0.0,0.0,0.0,0.0,3.7487,3.7638,3.5533,3.5981,0.0,3.3111,3.3169,3.3545,3.4223,3.642,3.7707,3.8215,3.8691,3.7642,3.5519,3.5234,3.4331,3.3198,3.422,3.3944,3.2913,3.2541,3.1156,2.9405,2.9231,2.849,2.7699,2.7885,0.0,0.0,0.0,0.0,2.5665,2.6728,2.7258,2.8203,3.1518,3.469,3.8114,4.276,4.4886,4.593,4.6179,4.6371,4.6299,4.5917,4.5862,4.6078,4.6607,4.6367,4.6511,4.793,4.8147,4.8339,4.8868,4.9806,5.0455,5.0551,5.1032,5.1345,5.1345,5.0864,5.0359,4.9902,5.0287,5.0311,4.9758,5.0263,5.0527,5.0431,5.0431,5.0618,5.1014,5.1803,5.2153,5.2216,5.2391,5.1774,5.0419,5.0318,5.0017,4.959,4.959,4.959,4.964,5.0293,5.0795,5.1147,5.1448,5.2076,5.2678,5.1875,5.2151,5.2854,0.0,0.0,0.0,0.0,0.0,0.0,0.0,0.0,0.0,0.0,3.2577,3.2793,0.0,0.0,0.0,3.2095,3.2493,0.0,0.0,0.0,0.0,0.0,3.6734,3.6835,3.5533,3.5583,0.0,3.3111,3.3545,3.4324,3.5307,3.6656,3.7886,3.9094,3.8157,3.7228,3.6257,3.3698,3.2636,3.2737,3.2214,3.2006,3.1941,3.1444,3.0712,2.9839,2.8856,2.842,2.8203,2.7582,2.7434,0.0,0.0,0.0,2.6081,2.6087,2.6678,2.7666,2.9277,3.454,4.0332,4.3639,4.5363,4.6334,4.6734,4.666,4.6427,4.574,4.5788,4.6078,4.6607,4.6655,4.6824,4.7497,4.7617,4.7786,4.8315,4.8916,4.9469,4.9926,5.0479,5.0816,5.0816,5.0311,4.995,4.9948,4.9926,4.9734,4.9205,4.9686,4.9758,4.9301,4.9301,4.9644,5.0351,5.0493,5.0832,5.1431,5.093,5.0645,5.0393,4.9916,4.9665,4.959,4.959,4.959,4.9665,5.072,5.0921,5.067,5.2126,5.2503,5.2251,5.2578,5.2804,5.2929,0.0,0.0,0.0,0.0,0.0,0.0,0.0,0.0,0.0,0.0,0.0,3.2658,0.0,0.0,0.0,3.2185,0.0,0.0,0.0,0.0,0.0,0.0,0.0,3.6056,3.4605,3.4881,3.4575,3.3545,3.347,3.465,3.6887,3.7412,3.829,3.9474,3.8254,3.7041,3.5737,3.3762,3.259,3.2032,3.2124,3.2358,3.2448,3.1029,3.0555,3.0372,2.8569,2.7915,2.7863,2.7527,2.7456,2.7404,2.6827,0.0,0.0,0.0,2.624,2.7814,3.1685,3.6222,4.053,4.3413,4.5246,4.633,4.6291,4.6464,4.6353,4.5625,4.55,4.5726,4.6448,4.6722,4.6989,4.7683,4.7762,4.7835,4.8076,4.8426,4.8912,4.9717,4.9983,5.018,5.0471,5.0011,4.9507,4.9012,4.9253,4.9205,4.8676,4.9133,4.9325,4.9084,4.9084,4.9358,4.9927,5.013,5.0535,5.1272,5.0497,5.0222,5.0393,4.9841,4.959,4.9615,4.9916,4.9891,4.9715,5.1147,5.1423,5.1046,5.2402,5.2779,5.2603,5.2829,5.2929,5.2929,0.0,0.0,0.0,0.0,0.0,0.0,0.0,0.0,0.0,0.0,0.0,0.0,0.0,0.0,0.0,0.0,3.2215,0.0,0.0,0.0,0.0,0.0,0.0,0.0,3.3922,3.4299,3.4299,3.3897,3.3771,3.5328,3.8442,3.8718,3.9446,4.045,3.922,3.7811,3.6319,3.465,3.3338,3.2286,3.2616,3.2849,3.2846,3.1486,3.1287,3.1339,2.8978,2.8169,2.809,2.7646,2.749,2.7352,2.6707,2.6071,0.0,0.0,0.0,2.7535,3.2701,3.62,3.9045,4.2007,4.4116,4.5488,4.5405,4.5878,4.6091,4.539,4.5415,4.5773,4.648,4.6826,4.717,4.7987,4.8158,4.8158,4.8158,4.8355,4.8773,4.9547,4.9694,4.9913,5.0235,4.9864,4.9242,4.8584,4.8855,4.8787,4.8257,4.8647,4.882,4.8676,4.8676,4.8879,4.9242,4.986,5.0454,5.1139,5.0364,5.0156,5.0393,4.9841,4.959,4.9615,5.0167,5.0193,4.9916,5.1473,5.1875,5.1599,5.2553,5.2929,5.2955,5.308,5.313,5.313,0.0,0.0,0.0,0.0,0.0,0.0,0.0,0.0,0.0,0.0,0.0,0.0,3.1765,3.1717,3.1588,3.1272,3.1734,3.2225,3.2705,3.3245,0.0,0.0,0.0,0.0,3.3922,3.3922,3.3922,3.3897,3.4881,3.686,3.9622,4.0623,4.1756,4.2791,4.1266,4.016,3.9162,3.6264,3.4736,3.4246,3.3306,3.271,3.2524,3.3167,3.343,3.3169,3.0805,2.997,2.9709,2.8064,2.749,2.7385,2.6844,2.6199,2.5469,0.0,0.0,0.0,2.9428,3.2422,3.5511,3.9045,4.1555,4.3382,4.4087,4.4935,4.5454,4.5107,4.565,4.647,4.7171,4.7143,4.7234,4.8403,4.86,4.86,4.86,4.8977,4.9229,4.9345,4.9787,5.0106,5.013,4.9664,4.932,4.9229,4.8987,4.8567,4.8033,4.8251,4.8098,4.7593,4.7569,4.7726,4.8123,4.9273,5.019,5.0754,5.0472,5.0353,5.0393,4.9841,4.959,4.9615,5.0167,5.0393,5.0469,5.1624,5.2076,5.2126,5.2703,5.2929,5.298,5.3482,5.3658,5.3658,0.0,0.0,0.0,0.0,0.0,0.0,0.0,0.0,0.0,0.0,0.0,0.0,0.0,3.1717,3.1665,3.1516,3.1501,3.1791,3.2438,3.2488,0.0,0.0,0.0,0.0,3.4424,3.4073,3.4073,3.4424,3.4474,3.5906,3.8642,3.9747,4.0877,4.1856,4.0383,3.9196,3.8051,3.5009,3.3573,3.3478,3.3427,3.3751,3.4247,3.3817,3.4134,3.4571,3.1745,3.071,3.0492,2.9366,2.8595,2.7915,2.7007,2.6109,2.5255,2.4566,2.546,2.7077,2.9079,3.164,3.4375,3.7026,3.9851,4.1978,4.2268,4.4009,4.5397,4.4844,4.5338,4.6065,4.7045,4.7396,4.7843,4.8769,4.8877,4.8877,4.8877,4.8657,4.8705,4.9313,4.9016,4.8865,4.9298,4.8834,4.8238,4.77,4.7741,4.7579,4.7213,4.7448,4.7551,4.7497,4.7161,4.7123,4.745,4.8656,4.9594,5.0166,5.0099,5.0222,5.0393,4.9841,4.9791,5.0167,5.072,5.077,5.0544,5.2026,5.2427,5.2151,5.2703,5.2929,5.2955,5.313,5.3406,5.3708,0.0,0.0,0.0,0.0,0.0,3.0751,3.1013,0.0,0.0,0.0,0.0,0.0,0.0,0.0,3.2175,3.1961,3.1757,3.1855,3.2376,3.2185,3.2543,3.3596,0.0,0.0,3.4424,3.4098,3.4173,3.468,3.4349,3.5479,3.8015,3.8969,4.0099,4.12,3.9348,3.8591,3.8616,3.6024,3.4692,3.4361,3.4627,3.4933,3.5309,3.5353,3.5718,3.5878,3.3444,3.2386,3.1993,3.0776,2.9813,2.8907,2.768,2.6323,2.5117,2.4607,2.571,2.7281,2.8363,3.0458,3.2946,3.5426,3.7434,3.9219,4.0899,4.2635,4.3915,4.4267,4.4945,4.5824,4.6928,4.7405,4.7833,4.8441,4.861,4.8595,4.8422,4.8158,4.8142,4.8772,4.8477,4.8296,4.8492,4.8411,4.8069,4.7272,4.7588,4.7678,4.7248,4.7394,4.7392,4.7233,4.6896,4.6865,4.7295,4.8287,4.9222,4.9966,5.0033,5.0156,5.0393,4.9841,4.9891,5.0444,5.1021,5.1172,5.1071,5.2402,5.2703,5.2427,5.2779,5.2929,5.2955,5.313,5.3532,5.3984,0.0,3.0781,3.0691,3.0963,3.1008,3.0744,2.9901,3.085,3.148,3.0999,0.0,0.0,0.0,0.0,0.0,3.2611,3.2563,3.2547,3.2406,3.2425,3.2643,3.3119,0.0,0.0,3.3972,3.3947,3.4198,3.468,3.4655,3.5805,3.7939,3.8542,3.9697,4.1128,3.8442,3.8743,4.105,3.9421,3.8165,3.7184,3.6796,3.61,3.5466,3.7862,3.8111,3.701,3.5884,3.5116,3.4315,3.2312,3.1229,3.0413,2.8864,2.685,2.5018,2.5018,2.5855,2.6811,0.0,0.0,0.0,3.4071,3.4306,3.5102,3.9921,4.0674,4.1003,4.3237,4.4568,4.5698,4.6853,4.7018,4.7132,4.7383,4.764,4.7582,4.7066,4.7459,4.7779,4.7804,4.8207,4.833,4.7853,4.8531,4.8799,4.8302,4.8749,4.8824,4.8327,4.8085,4.7586,4.6728,4.6752,4.6992,4.7473,4.8248,4.9183,5.0173,5.0364,5.0444,5.0393,4.9841,4.9891,5.0444,5.1021,5.1599,5.2151,5.2703,5.2929,5.2929,5.2929,5.2929,5.298,5.3482,5.4059,5.4561,2.9796,3.0421,3.0974,3.125,3.125,3.1319,3.1642,3.1402,3.1397,0.0,0.0,0.0,3.3236,3.3958,3.4342,3.4198,3.4341,3.4019,3.3019,3.3099,3.3493,3.4204,3.4399,3.4851,3.5701,3.4901,3.4575,3.468,3.4324,3.4916,3.6514,3.7283,3.8214,3.9196,3.9095,3.8743,3.8165,3.573,3.5655,3.7111,3.6204,3.6653,3.7886,3.8136,3.8639,3.9143,3.8046,3.7471,3.7031,3.5701,3.4163,3.2254,2.922,2.7039,2.5558,2.5465,2.6622,2.7803,2.7341,0.0,0.0,0.0,0.0,0.0,3.4851,3.6157,3.7715,4.0802,4.1681,4.2585,4.4895,4.541,4.5405,4.5181,4.6636,4.7833,4.7683,4.7557,4.7552,4.7691,4.7543,4.7366,4.7393,4.7454,4.7622,4.7908,4.8298,4.8387,4.7957,4.7996,4.7717,4.7053,4.7581,4.7569,4.6944,4.8785,4.9724,4.965,5.0589,5.082,5.0393,4.9841,4.9891,5.0444,5.1021,5.1599,5.2151,5.2703,5.2929,5.2929,5.2929,5.2929,5.2955,5.308,5.3758,5.4561,2.9734,3.0629,3.1434,3.1783,3.19,3.2111,3.2556,3.216,3.2206,0.0,0.0,0.0,3.4799,3.5857,3.6218,3.5545,3.5379,3.4823,3.3608,3.3444,3.3593,3.4022,3.4474,3.5127,3.6006,3.5357,3.5031,3.5031,3.4525,3.4539,3.5102,3.6028,3.6827,3.7346,3.7379,3.7177,3.659,3.3806,3.4275,3.686,3.7161,3.7914,3.902,3.9772,4.0178,4.0231,4.0132,3.9753,3.931,3.8556,3.6534,3.3692,3.0105,2.8369,2.7438,2.6609,2.7874,2.9291,2.8507,2.9078,2.9985,3.0482,0.0,0.0,3.3815,3.465,3.5884,3.9747,4.0701,4.148,4.3564,4.4219,4.4353,4.4053,4.5654,4.6781,4.6512,4.6687,4.692,4.7027,4.6939,4.6851,4.6734,4.7396,4.7799,4.7675,4.864,4.8814,4.8046,4.7709,4.7353,4.6907,4.7189,4.7016,4.6391,4.8223,4.9059,4.8739,4.9965,5.0393,5.0067,4.9741,4.9891,5.0444,5.077,5.1247,5.18,5.2352,5.2729,5.2929,5.2929,5.2929,5.2955,5.3181,5.3808,5.4587,0.0,3.1088,3.2007,3.2558,3.2915,3.3105,3.3198,3.3301,3.3611,0.0,0.0,3.5577,3.7364,3.8455,3.8407,0.0,3.6242,3.5453,3.4299,3.3703,0.0,3.3326,3.4349,3.5082,3.5583,3.5583,3.5558,3.5508,3.4956,3.45,3.4142,3.5027,3.5521,3.5694,3.4629,3.4742,3.566,3.3334,3.3962,3.6729,3.8718,3.9473,3.9699,4.2167,4.2242,4.121,4.2246,4.2135,4.1409,4.085,3.8463,3.5103,3.1719,3.0596,3.0153,2.8377,2.951,3.1119,3.0295,3.0404,3.0983,3.2082,3.0464,0.0,3.4519,3.462,3.4876,3.8944,4.0172,4.0924,4.2208,4.2886,4.3237,4.3162,4.4267,4.5044,4.4748,4.549,4.6179,4.6289,4.6696,4.6746,4.6265,4.7852,4.849,4.7633,4.9185,4.9611,4.8416,4.7439,4.6739,4.6421,4.6174,4.5982,4.5998,4.7213,4.7804,4.7868,4.9017,4.959,4.959,4.959,4.9866,5.0318,5.0393,5.072,5.1247,5.185,5.2402,5.2854,5.2904,5.2929,5.298,5.3507,5.4059,5.4637,3.0216,3.1364,3.2627,3.3545,3.4124,3.4676,3.5511,3.4958,3.5017,3.6549,3.7597,3.8635,3.9888,4.0042,3.997,0.0,0.0,0.0,0.0,0.0,3.4789,3.4782,3.5612,3.6128,3.6207,3.6207,3.5981,3.5508,3.4956,3.4967,3.5522,3.5067,3.4875,3.4817,3.3868,3.3394,3.3284,3.4071,3.5567,3.7492,3.8069,4.0033,4.2671,4.3504,4.4122,4.4689,4.5171,4.4922,4.4129,4.245,4.0129,3.7612,3.5077,3.3666,3.2568,3.0817,3.1627,3.292,3.2123,3.2303,3.2547,3.1766,3.1629,0.0,3.077,3.1609,3.3043,3.4826,3.5629,3.6609,3.8617,3.9446,3.9672,3.922,4.1204,4.3589,4.5645,4.6145,4.6673,4.7742,4.7408,4.706,4.7133,4.7371,4.7583,4.7845,4.8146,4.851,4.8698,4.7566,4.6865,4.6802,4.6666,4.6472,4.6318,4.7277,4.7957,4.8238,4.9146,4.959,4.959,4.959,4.9665,4.9791,5.0218,5.0469,5.067,5.1674,5.2176,5.2302,5.2754,5.2929,5.298,5.3507,5.4059,5.4637,3.0606,3.1846,3.3269,3.4532,0.0,3.5588,3.6828,3.6556,3.6734,3.8351,3.993,4.1011,4.1389,4.1375,4.1095,4.0475,0.0,0.0,0.0,0.0,3.5216,3.4739,3.5515,3.6207,3.6807,3.6556,3.6232,3.5934,3.5357,3.4896,3.4521,3.4477,3.4414,3.4372,3.3488,3.3326,3.3709,3.3709,3.5212,3.7796,3.9904,4.21,4.4326,4.5565,4.6213,4.6469,4.6953,4.6811,4.6052,4.3466,4.1821,4.0252,3.6802,3.6123,3.607,3.3456,3.3845,3.4838,3.3421,3.3193,3.3315,3.3232,3.2412,0.0,0.0,3.1574,3.2005,3.4054,3.4231,3.4634,3.6575,3.6928,3.7104,3.7513,3.9697,4.1932,4.3589,4.4769,4.5839,4.6784,4.6531,4.6566,4.7208,4.7407,4.7757,4.8309,4.8083,4.7933,4.7958,4.7034,4.6535,4.6472,4.6109,4.5917,4.5969,4.6886,4.7537,4.788,4.881,4.9339,4.959,4.959,4.959,4.9615,4.9891,5.0017,5.0092,5.1222,5.1699,5.1774,5.2603,5.308,5.3381,5.3934,5.4486,5.5064,3.0996,3.2236,3.3683,3.4992,0.0,0.0,0.0,0.0,3.8142,3.979,4.1626,4.2715,4.2654,4.2587,4.2281,4.1441,0.0,0.0,3.7103,3.6357,3.5694,3.5043,3.5497,3.6238,3.7312,3.6857,3.6433,3.6257,3.5734,3.4801,3.3481,3.3882,3.4071,3.4063,3.3181,3.3569,3.4753,3.353,3.5202,3.8958,4.2539,4.4228,4.481,4.7074,4.7717,4.7571,4.818,4.8386,4.7821,4.4822,4.3781,4.2944,3.8632,3.8658,3.9625,3.6358,3.6512,3.7318,3.5421,3.4912,3.4977,3.5162,3.3614,3.2313,0.0,0.0,0.0,3.3723,3.352,3.3401,3.4882,3.4832,3.4939,3.5974,3.8089,3.9724,3.9971,4.1802,4.3689,4.4995,4.5347,4.5799,4.6577,4.6728,4.7179,4.8083,4.7405,4.6954,4.6979,4.6316,4.5945,4.5932,4.5348,4.5223,4.5535,4.6287,4.6983,4.7558,4.8159,4.8862,4.959,4.949,4.949,4.9615,4.9715,4.9741,4.9841,5.0971,5.1498,5.1674,5.2578,5.3256,5.3758,5.4361,5.4913,5.5465,3.0928,3.2236,3.3476,3.4073,0.0,0.0,0.0,0.0,3.847,4.0448,4.2349,4.363,4.4026,4.3789,4.3969,4.473,4.2436,4.0812,4.0628,3.8606,3.7455,3.7662,3.6998,3.7044,3.7889,3.7362,3.6609,3.5583,3.5533,3.5294,3.4838,0.0,3.3573,3.3734,3.2879,3.3266,3.4666,3.5123,3.823,4.2968,4.5011,4.4904,4.3898,4.643,4.769,4.827,4.9281,5.0019,5.0072,4.7618,4.6499,4.5558,4.2499,4.2004,4.216,3.973,4.0226,4.1274,3.9705,3.9829,3.9615,3.6406,3.6541,3.6135,3.1188,0.0,3.2608,3.1001,0.0,3.199,3.2373,0.0,0.0,3.2405,3.4616,3.6214,3.5529,3.696,3.9521,4.3514,4.4869,4.5347,4.4945,4.3639,4.3721,4.5698,4.4418,4.4367,4.6301,4.5795,4.5429,4.5429,4.5061,4.4999,4.5368,4.5723,4.6586,4.7845,4.7444,4.8109,4.9565,4.9088,4.9138,4.9615,5.0117,5.0318,5.0419,5.1548,5.2302,5.2754,5.2879,5.3256,5.3758,5.4361,5.4913,5.5465,3.0905,3.1984,3.3063,3.3866,0.0,0.0,0.0,0.0,4.1152,4.2246,4.3919,4.5123,4.5567,4.5193,4.5137,4.5782,4.4362,4.2832,4.1293,3.9837,3.8867,3.8546,3.7419,3.7368,3.8492,3.701,3.5959,3.5508,3.4575,3.3866,0.0,0.0,3.3149,3.4499,3.4083,3.5359,3.78,3.7603,3.8958,4.1408,4.3491,4.3882,4.3726,4.8505,5.0472,5.0786,5.1622,5.1858,5.1413,4.9113,4.7963,4.7153,4.5326,4.4356,4.3755,4.2474,4.2006,4.1696,4.0402,4.0306,4.0052,3.7821,3.7093,3.5987,3.2478,3.1689,3.1519,3.1022,0.0,0.0,0.0,0.0,0.0,0.0,3.2928,3.3809,3.3063,3.4679,3.718,4.0578,4.1053,4.1681,4.3062,4.2861,4.3162,4.4418,4.3564,4.3664,4.5246,4.547,4.5574,4.5574,4.527,4.527,4.5574,4.6018,4.6786,4.7908,4.8033,4.8611,4.959,4.9364,4.9364,4.9615,4.9841,5.0117,5.0469,5.1297,5.195,5.2503,5.313,5.3909,5.4712,5.4963,5.539,5.5892,3.0882,3.1708,3.2558,3.343,3.4142,0.0,3.7173,4.0121,4.2488,4.3512,4.4781,4.5893,4.6912,4.6625,4.661,4.7329,4.6658,4.5285,4.3072,4.1683,4.0731,4.0163,3.8356,3.7991,3.9295,3.7287,3.5959,3.5508,3.4413,3.3607,3.3205,0.0,0.0,3.5423,3.5754,3.7518,4.0201,4.0282,4.1078,4.245,4.4537,4.595,4.7179,5.0681,5.2406,5.3008,5.3295,5.3112,5.2433,5.0446,4.9374,4.8695,4.7545,4.6604,4.5741,4.4853,4.4092,4.3203,4.1646,4.1415,4.1004,3.863,3.7227,3.5776,3.3127,3.1925,3.1525,3.1914,3.1811,0.0,0.0,0.0,3.0827,3.1215,0.0,3.2378,3.1462,3.259,3.449,3.7209,3.7863,3.9095,4.1588,4.1487,4.1814,4.3123,4.2238,4.2484,4.4518,4.5101,4.5519,4.5817,4.5574,4.5574,4.5817,4.6425,4.7134,4.7908,4.8335,4.8912,4.959,4.9439,4.9464,4.9615,4.9916,5.0193,5.0494,5.1373,5.1975,5.2427,5.3331,5.4386,5.539,5.539,5.5742,5.6219,3.0813,3.1433,3.1986,3.2443,3.3361,3.5037,3.8068,3.9505,4.1092,4.351,4.429,4.5506,4.7911,4.8029,4.8662,5.0603,4.9645,4.8483,4.7377,4.4852,4.3445,4.3527,4.0488,3.93,4.0398,3.8793,3.7161,3.5508,3.5709,3.5821,3.575,3.512,0.0,0.0,3.7624,3.9046,4.067,4.3119,4.6073,4.9205,5.0741,5.3347,5.5961,5.225,5.2223,5.4079,5.3583,5.34,5.3191,5.1936,5.1152,5.0498,4.9374,4.8982,4.8616,4.6891,4.7153,4.7435,4.4834,4.4762,4.409,3.8534,3.7505,3.6538,3.1628,3.2312,3.3846,3.3327,3.496,3.6196,3.5348,3.5129,3.4288,0.0,3.2018,0.0,0.0,2.9934,3.0788,3.3715,3.6597,3.9044,4.0792,3.8486,3.8233,4.1527,3.9549,4.0049,4.4392,4.4378,4.4724,4.5793,4.5757,4.5757,4.5817,4.667,4.7344,4.7908,4.7933,4.851,4.9565,4.9038,4.9088,4.9665,5.0745,5.0921,5.0544,5.2201,5.2879,5.2955,5.3482,5.4386,5.539,5.539,5.5742,5.6219,3.0422,3.1157,3.18,3.1984,3.2558,3.4142,3.754,3.9767,4.2086,4.4979,4.6081,4.7647,5.0467,5.0955,5.1494,5.2312,5.2016,5.0816,4.8676,4.6391,4.5271,4.581,4.2405,4.1156,4.266,3.9998,3.7939,3.6634,3.5621,3.5203,3.5384,3.478,3.5347,3.6924,3.8319,4.0543,4.3358,4.4786,4.67,4.8937,5.0871,5.3687,5.6667,5.5282,5.5255,5.5857,5.5282,5.5046,5.4942,5.4184,5.3034,5.1988,5.2354,5.0917,4.9113,4.9296,4.8773,4.7937,4.6647,4.6638,4.5879,4.1099,3.9284,3.7624,3.3461,3.3777,3.4653,3.3688,3.5644,3.7156,3.6044,3.5547,3.4747,0.0,0.0,0.0,0.0,2.8585,2.9284,3.1833,3.4678,3.6569,3.7013,3.7216,3.783,3.9171,3.8844,0.0,4.2836,4.3576,4.4444,4.5545,4.557,4.577,4.612,4.7143,4.7732,4.7908,4.8661,4.9213,4.959,4.9414,4.9414,4.9615,4.9992,5.0268,5.0494,5.1448,5.2051,5.2477,5.3356,5.416,5.4888,5.5265,5.5742,5.6219,3.1226,3.1249,3.1364,3.1938,3.3017,3.4785,3.7632,4.0364,4.3142,4.6012,4.7436,4.9287,5.2277,5.2817,5.3194,5.3919,5.3936,5.2764,5.0119,4.8787,4.8009,4.7838,4.5206,4.4144,4.497,4.2308,3.9973,3.809,3.7107,3.6518,3.6299,3.5876,3.6447,3.7822,3.9293,4.1535,4.4342,4.6281,4.8202,5.0054,5.2476,5.4916,5.7137,5.7346,5.7163,5.6719,5.6118,5.604,5.6144,5.5569,5.4497,5.3504,5.4053,5.2406,5.0368,5.0681,4.9845,4.8616,4.7858,4.7736,4.697,4.3309,4.1618,3.9829,3.6147,3.6418,3.7168,3.6201,3.7821,3.9233,3.8658,3.7429,3.5992,0.0,0.0,0.0,0.0,2.8437,2.9207,3.0778,3.3142,3.4853,3.5494,3.578,3.6502,3.776,3.7561,0.0,0.0,4.261,4.3815,4.5146,4.5372,4.5748,4.6301,4.7179,4.7732,4.7908,4.8862,4.9414,4.959,4.959,4.959,4.9615,4.9791,4.9967,5.0193,5.1172,5.1674,5.1925,5.3005,5.3884,5.4637,5.5189,5.5742,5.6219,3.2994,3.1685,3.0882,3.2374,3.4578,3.6736,3.8413,4.1168,4.4015,4.6609,4.8286,5.0307,5.3216,5.3505,5.4081,5.538,5.5458,5.4375,5.185,5.2041,5.1422,4.9731,4.8918,4.8119,4.7344,4.5623,4.3137,3.9898,4.003,3.95,3.8459,3.8357,3.8427,3.8825,4.0491,4.2072,4.368,4.7618,5.0474,5.2704,5.5689,5.719,5.7782,5.8261,5.7791,5.6771,5.6196,5.6353,5.6719,5.6118,5.5543,5.4994,5.4419,5.3452,5.2328,5.123,5.0472,4.974,4.8616,4.8303,4.7696,4.5204,4.4273,4.3023,3.9488,4.0158,4.135,4.0671,4.1533,4.2526,4.2866,4.0697,3.8057,0.0,0.0,0.0,2.8856,2.9379,3.0184,3.0672,3.2159,3.3911,3.5821,3.4178,3.4246,3.7162,3.5718,0.0,0.0,4.143,4.2785,4.4518,4.5146,4.5723,4.6301,4.6878,4.7431,4.7908,4.851,4.9088,4.959,4.959,4.959,4.9615,5.0142,5.0067,4.9715,5.1373,5.1749,5.1398,5.2528,5.3632,5.4662,5.5214,5.5767,5.6219,3.1685,3.2374,3.3384,3.4532,3.4647,3.5749,3.9206,4.1627,4.4267,4.7574,4.9663,5.2063,5.5352,5.5339,5.5635,5.7061,5.6468,5.5554,5.4471,5.3664,5.3375,5.359,5.1723,5.0764,5.0845,4.7581,4.4844,4.2735,4.0754,3.955,3.9043,3.8344,3.7983,3.8021,3.9827,4.1788,4.3904,4.695,5.0789,5.4988,5.7198,5.7921,5.7756,5.7817,5.7686,5.7425,5.7268,5.7033,5.6719,5.6118,5.5543,5.5072,5.4916,5.4079,5.3112,5.2825,5.1988,5.0995,5.0315,5.0132,4.9662,4.7722,4.6182,4.4722,4.2892,4.3519,4.4041,4.2657,4.4304,4.514,4.2265,4.1141,3.9468,3.5887,0.0,0.0,2.9761,2.9196,2.9631,3.1889,3.2382,3.2364,3.1866,3.2714,3.3471,3.3774,3.4363,0.0,3.9722,3.9772,4.1028,4.3915,4.4543,4.5321,4.6301,4.723,4.7782,4.7908,4.8912,4.9464,4.959,4.959,4.959,4.9615,4.9741,4.9715,4.969,5.0971,5.1398,5.1423,5.2929,5.4185,5.5239,5.5792,5.6093,5.6219,3.265,3.428,3.591,3.6714,3.692,3.7907,4.064,4.2385,4.4612,4.7964,5.0112,5.2318,5.4939,5.5664,5.6491,5.7686,5.7261,5.6395,5.5145,5.5415,5.5479,5.5065,5.4141,5.3448,5.3181,5.0092,4.7179,4.4543,4.2258,4.0507,3.9271,3.8347,3.7683,3.7365,3.9445,4.1125,4.266,4.7471,5.1594,5.5142,5.7562,5.8183,0.0,5.8279,5.8261,5.8026,5.8026,5.766,5.7085,5.651,5.5935,5.536,5.4863,5.4105,5.3347,5.3086,5.2171,5.123,5.1152,5.0969,5.0603,4.9871,4.8773,4.7571,4.6421,4.6447,4.6473,4.548,4.5976,4.5999,4.4278,4.2108,3.9155,3.4868,3.2097,3.0388,3.0127,2.9771,3.0074,3.1577,3.203,3.1537,2.9741,3.1207,3.2152,3.1726,3.286,3.4751,0.0,3.8843,4.0676,4.3011,4.4091,4.5271,4.6652,4.728,4.7807,4.8284,4.8937,4.949,4.9967,4.9967,4.9967,4.9967,4.9967,4.9967,5.0017,5.0645,5.1348,5.2176,5.3808,5.4838,5.544,5.6018,5.6219,5.6219,3.4716,3.6668,3.8206,3.8596,4.0043,4.1558,4.278,4.3877,4.5507,4.8381,5.0573,5.237,5.3865,5.5557,5.6923,5.7974,5.7983,5.7117,5.5241,5.7155,5.7499,5.5632,5.6053,5.5942,5.4913,5.2528,4.9439,4.5698,4.379,4.1591,3.8993,3.8146,3.7381,3.6836,3.9191,4.0667,4.1936,4.8815,5.2756,5.4578,5.7414,5.8269,5.8,5.8993,5.8967,5.8392,5.8392,5.8026,5.7477,5.6981,5.6353,5.5621,5.4628,5.3896,5.3295,5.2772,5.1805,5.0995,5.1465,5.1256,5.1021,5.1465,5.1256,5.0629,4.9636,4.9008,4.8616,4.8538,4.7283,4.6342,4.6891,4.284,3.8004,3.3718,3.2071,3.1235,3.091,3.1156,3.1289,3.1254,3.2092,0.0,2.9076,3.0063,3.0705,3.0346,3.121,3.2667,3.468,3.804,4.0601,4.2263,4.394,4.5573,4.7129,4.7355,4.7908,4.8761,4.8912,4.949,5.0419,5.0494,5.0519,5.0519,5.0519,5.0519,5.0544,5.0619,5.1624,5.3281,5.4712,5.5365,5.5541,5.6043,5.6219,5.6219,3.5887,3.8033,3.962,3.9239,4.1122,4.3602,4.6218,4.7551,4.8822,5.0578,5.2907,5.5111,5.6956,5.7119,5.7758,5.9642,5.8969,5.8295,5.7935,5.8569,5.8581,5.777,5.7622,5.7298,5.662,5.3105,4.9816,4.6853,4.379,4.0704,3.756,3.7143,3.6763,3.6528,3.8537,4.2103,4.6914,5.1099,5.4167,5.6271,5.8063,5.8889,5.9098,5.8947,5.8447,5.7817,5.7817,5.7451,5.6928,5.685,5.6118,5.5203,5.502,5.4236,5.3373,5.3269,5.238,5.1465,5.157,5.1518,5.1465,5.157,5.1518,5.1413,5.1204,5.1073,5.0864,5.042,4.9688,4.8329,4.5715,4.1376,3.7456,3.5208,3.3875,3.3587,3.4868,3.3953,3.3483,3.4382,3.5288,3.4298,3.0458,3.0429,3.0108,2.8773,2.9164,3.1195,3.5132,3.6009,3.8391,0.0,4.4895,4.6376,0.0,0.0,4.9038,4.8786,4.969,5.0218,5.0444,5.0921,5.1122,5.1122,5.1122,5.1122,5.1172,5.1624,5.2779,5.431,5.4587,5.5265,5.6068,5.6168,5.6219,5.6219,3.8194,3.9859,4.142,4.1948,4.3946,4.6127,4.8102,5.0296,5.1747,5.1698,5.342,5.5036,5.6215,5.7052,5.7979,5.9257,5.8897,5.8449,5.8137,5.8942,5.9349,5.9044,5.8598,5.8052,5.7499,5.4235,5.0896,4.7531,4.4217,4.0877,3.7588,3.6972,3.6442,3.6056,3.8693,4.272,4.7718,5.101,5.3833,5.6297,5.8621,5.9502,5.9411,5.9482,5.8954,5.8052,5.7835,5.7294,5.6771,5.6458,5.5778,5.5046,5.4733,5.4262,5.3766,5.3478,5.2772,5.2119,5.2433,5.2067,5.1675,5.1988,5.1831,5.1596,5.1596,5.1596,5.1518,5.1256,5.0498,4.8826,4.5375,4.1716,3.8841,3.7717,3.6044,3.5495,3.722,3.6253,3.5574,3.6123,3.6423,3.5089,3.1267,3.1105,3.0262,2.7954,2.8485,3.0442,3.4073,0.0,3.8291,0.0,0.0,0.0,4.7531,0.0,4.9891,4.964,5.0469,5.1021,5.1297,5.1574,5.1699,5.1699,5.1699,5.1699,5.18,5.2929,5.3683,5.421,5.5089,5.5742,5.6219,5.6219,5.6219,5.6219,4.0594,4.2017,4.351,4.4727,4.6701,4.8423,4.9296,5.2233,5.3882,5.2853,5.3808,5.4873,5.5476,5.6885,5.8031,5.856,5.8704,5.8482,5.7795,5.9022,5.9749,5.9558,5.9,5.8453,5.7901,5.5265,5.1975,4.8083,4.4895,4.1505,3.799,0.0,3.6748,3.6712,4.0099,4.384,4.7807,5.0857,5.3705,5.638,5.8802,5.9612,5.9424,5.969,5.9189,5.8261,5.7817,5.7216,5.6536,5.6066,5.5543,5.502,5.455,5.4314,5.4131,5.3687,5.3138,5.2798,5.3269,5.2694,5.2093,5.2563,5.2328,5.1988,5.1988,5.1884,5.1779,5.1779,5.0786,4.8878,4.5532,4.3154,4.1272,3.9991,3.8527,3.8004,3.9259,3.8553,3.7821,3.7586,3.704,3.5383,3.1986,3.1468,3.0341,2.8008,2.8298,2.9905,3.296,0.0,3.8291,4.1911,4.492,4.6828,4.7556,0.0,5.0645,5.0419,5.1122,5.1674,5.2101,5.2226,5.2277,5.2277,5.2277,5.2352,5.2553,5.3984,5.4361,5.4185,5.5516,5.6118,5.6219,5.6219,5.6294,5.6394,4.2706,4.4405,4.5806,4.5944,4.8033,4.987,5.0398,5.2695,5.4414,5.4672,5.5596,5.6542,5.7445,5.7718,5.8031,5.856,5.9041,5.9013,5.8353,5.9218,5.9576,5.8986,5.88,5.8453,5.7901,5.5666,5.2578,4.8686,4.5849,4.2258,3.799,3.7436,3.8165,4.0199,4.3539,4.6652,4.9579,5.2552,5.5292,5.7582,5.8152,5.8852,5.948,5.8675,5.8089,5.7739,5.7756,5.6928,5.5987,5.5935,5.5543,5.5099,5.5046,5.4654,5.4184,5.4131,5.3739,5.3321,5.3373,5.3321,5.3243,5.3295,5.3269,5.3217,5.3217,5.2798,5.2406,5.2406,5.1073,4.9008,4.6081,4.5741,4.4696,4.0958,4.1481,4.2239,4.195,4.1298,4.0514,3.9494,3.7932,3.5869,3.3039,3.0971,2.9731,2.9566,2.8247,2.9076,3.291,3.4274,3.6935,4.1225,4.5037,4.6853,4.6451,5.0117,5.1423,5.0444,5.1523,5.2051,5.2126,5.2628,5.2854,5.2854,5.2854,5.313,5.3607,5.4285,5.4838,5.5239,5.539,5.5767,5.6219,5.6219,5.652,5.6972,4.6056,4.6358,4.7046,4.8561,4.9434,5.049,5.2212,5.3806,5.4927,5.5386,5.6283,5.7114,5.771,5.7814,5.7886,5.8103,5.8853,5.9058,5.8362,5.9792,6.0422,5.9801,5.9706,5.9433,5.888,5.6696,5.3984,5.077,4.733,4.3865,4.0475,3.9597,4.0551,4.3112,4.6125,4.8636,5.0811,5.3503,5.5624,5.7255,5.7925,5.8401,5.8701,5.8349,5.793,5.7494,5.7344,5.6998,5.6574,5.6076,5.5543,5.5099,5.5099,5.4942,5.4733,5.4733,5.4341,5.3949,5.4314,5.3922,5.3478,5.3792,5.3635,5.34,5.34,5.2929,5.2485,5.2485,5.1387,4.9976,4.846,4.7257,4.629,4.5715,4.5036,4.4748,4.5192,4.3885,4.2422,4.1272,3.9024,3.6571,3.417,3.1935,3.079,3.1226,2.8473,2.836,3.1863,3.3445,3.5956,3.9747,0.0,4.7029,4.6803,5.067,5.2201,5.1448,5.2226,5.2603,5.2603,5.2829,5.3105,5.3381,5.3381,5.3708,5.426,5.4838,5.5189,5.5415,5.5742,5.6018,5.6219,5.6219,5.657,5.7072,4.8629,4.8413,4.8676,5.0903,5.1209,5.177,5.3566,5.4661,5.5473,5.5876,5.6672,5.7281,5.7517,5.7574,5.7574,5.7574,5.8629,5.8984,5.8384,6.0039,6.0761,6.0136,6.0085,5.9809,5.9282,5.7575,5.544,5.2829,4.959,4.6502,4.3589,4.266,4.3514,4.5949,4.8586,5.0594,5.2194,5.4404,5.5918,5.6909,5.7575,5.79,5.8028,5.7849,5.764,5.74,5.7203,5.7054,5.6781,5.6158,5.5632,5.5099,5.5099,5.5099,5.5099,5.5099,5.4811,5.455,5.4994,5.4497,5.4001,5.4367,5.4184,5.3896,5.3896,5.3426,5.2903,5.2563,5.1858,5.11,5.0498,4.893,4.7989,4.8695,4.7728,4.6865,4.6782,4.5271,4.352,4.1847,3.8815,3.6251,3.459,3.25,3.176,3.297,3.0471,3.0094,3.2717,3.3972,3.6307,4.0025,4.4819,4.7431,4.7606,5.1147,5.2729,5.2352,5.2729,5.3105,5.3406,5.3406,5.3607,5.3959,5.4135,5.4436,5.4863,5.539,5.5641,5.5666,5.6068,5.6219,5.6219,5.6394,5.6696,5.7148,5.0068,5.0538,5.1064,5.2602,5.361,5.4277,5.4301,5.5121,5.5876,5.6301,5.6857,5.7138,5.7013,5.7021,5.7021,5.7021,5.8411,5.8984,5.8384,5.9692,6.0188,5.9558,5.9508,5.9257,5.873,5.8177,5.6771,5.4607,5.2854,5.0343,4.7054,4.6502,4.7129,4.8812,5.1071,5.2653,5.3733,5.5315,5.6381,5.6972,5.6884,5.7131,5.7562,5.703,5.7091,5.7379,5.7379,5.6875,5.6176,5.6245,5.5699,5.5099,5.5099,5.5099,5.5099,5.5099,5.5099,5.5099,5.5099,5.5099,5.5072,5.5099,5.5072,5.5072,5.5072,5.4602,5.387,5.272,5.2485,5.2302,5.1675,5.1126,5.0185,4.8486,4.9113,4.8852,4.6055,4.514,4.3676,4.0775,3.6881,3.434,3.4131,3.236,3.2296,3.4857,3.4785,3.5102,3.6279,3.6355,3.8416,4.2785,4.615,4.8184,4.8736,5.1523,5.2929,5.2929,5.2929,5.3507,5.4536,5.4536,5.4536,5.4658,5.5139,5.5365,5.5415,5.5968,5.6194,5.6194,5.6219,5.6219,5.6269,5.6821,5.7022,5.7198,5.1798,5.2055,5.2405,5.3204,5.3873,5.4497,5.5168,5.5517,5.5876,5.6325,5.6857,5.7281,5.7493,5.7886,5.8184,5.8508,5.9626,6.0129,5.9816,6.1185,6.1632,6.0688,6.0638,6.0387,5.9809,5.893,5.7926,5.6846,5.4787,5.2477,4.9967,5.0167,5.0745,5.1674,5.3532,5.4536,5.4913,5.6188,5.6568,5.6495,5.6843,5.6793,5.6642,5.6843,5.6765,5.6656,5.6874,5.6861,5.6622,5.6803,5.6651,5.6349,5.5841,5.5386,5.5177,5.5543,5.5386,5.5099,5.5099,5.5099,5.5099,5.5099,5.5099,5.5099,5.5099,5.4628,5.4001,5.3269,5.3112,5.306,5.2851,5.2354,5.1711,5.0988,5.0803,4.9909,4.7468,4.5941,4.423,4.1897,3.9076,3.726,3.7033,3.6159,3.5646,3.589,3.5378,3.5279,3.5755,3.8316,4.04,4.1806,4.6768,4.9746,5.0469,5.275,5.369,5.3457,5.3858,5.4235,5.4632,5.4819,5.5047,5.5139,5.5602,5.6034,5.6495,5.6294,5.6445,5.6771,5.6771,5.6771,5.6846,5.7424,5.7625,5.7725,5.2794,5.3031,5.3264,5.379,5.4574,5.5282,5.5909,5.6117,5.6278,5.6622,5.7267,5.7706,5.7838,5.8632,5.9206,5.9309,6.0131,6.0612,6.0552,6.1777,6.2119,6.1215,6.0964,6.0688,6.0337,5.9458,5.8755,5.8202,5.6168,5.4587,5.3457,5.3582,5.3934,5.4511,5.5541,5.6018,5.6043,5.6746,5.6721,5.6269,5.6821,5.6696,5.6244,5.6595,5.652,5.6219,5.651,5.6504,5.6493,5.6636,5.6733,5.6685,5.6444,5.606,5.5778,5.5883,5.5674,5.5465,5.5674,5.5569,5.5412,5.5412,5.5255,5.5099,5.5099,5.4811,5.4393,5.3818,5.3687,5.3635,5.3426,5.2903,5.2365,5.1951,5.1093,4.9699,4.7569,4.5597,4.3756,4.2081,4.02,3.9081,3.9146,3.9336,3.9343,3.8971,3.9876,4.0084,3.9423,4.083,4.2409,4.4066,4.8674,5.1573,5.2503,5.381,5.4371,5.4336,5.4913,5.5135,5.5173,5.5563,5.5897,5.6236,5.6526,5.6887,5.7323,5.6746,5.6795,5.7244,5.7017,5.7068,5.732,5.79,5.8051,5.8001,5.3193,5.3475,5.3752,5.4241,5.5419,5.6358,5.6382,5.6782,5.7021,5.7021,5.7935,5.8416,5.7911,5.9257,5.9953,5.9528,6.0229,6.0686,6.0651,6.1527,6.1843,6.1316,6.0713,6.0387,6.0387,5.9809,5.9282,5.883,5.7223,5.6696,5.7198,5.6646,5.6646,5.7097,5.7097,5.7097,5.7097,5.7047,5.6746,5.6319,5.6821,5.6696,5.6219,5.6244,5.6244,5.6219,5.6219,5.6085,5.5918,5.5989,5.6085,5.6382,5.6848,5.6946,5.6677,5.6144,5.5935,5.6013,5.6536,5.6301,5.5909,5.5857,5.5465,5.5099,5.5099,5.5099,5.4942,5.4393,5.4236,5.4053,5.3556,5.2929,5.2276,5.1648,5.0219,4.8518,4.6713,4.4619,4.2788,4.169,4.0697,4.0278,4.0723,4.2034,4.3071,4.3327,4.6669,4.7863,4.6078,4.3922,4.4684,4.8812,5.1599,5.3582,5.4662,5.4758,5.506,5.5566,5.6043,5.6211,5.6091,5.6721,5.7229,5.7562,5.7613,5.772,5.7876,5.7223,5.7219,5.7588,5.7179,5.7232,5.7765,5.8349,5.8277,5.8102,5.2847,5.3451,5.4108,5.4563,5.5328,5.6065,5.671,5.6941,5.7021,5.7021,5.7935,5.856,5.8416,5.9474,6.0411,6.0976,6.1233,6.1425,6.1794,6.2302,6.2408,6.1957,6.1332,6.0989,6.0989,6.001,5.9633,5.9935,5.9106,5.878,5.8905,5.8378,5.7976,5.77,5.77,5.77,5.7675,5.7223,5.6972,5.6846,5.6972,5.6696,5.6269,5.6671,5.657,5.6219,5.6219,5.6191,5.6163,5.6454,5.6641,5.6632,5.6682,5.6829,5.6972,5.6703,5.6275,5.5857,5.5569,5.57,5.5804,5.5386,5.5203,5.5099,5.5099,5.5099,5.5072,5.4916,5.4524,5.4158,5.4027,5.3191,5.2234,5.1435,5.0199,4.8653,4.6523,4.5732,4.4992,4.4016,4.446,4.4748,4.4434,4.5448,4.5343,4.3231,4.4603,4.5861,4.6618,4.7539,4.8821,5.0685,5.3229,5.4996,5.5817,5.6107,5.6611,5.7298,5.7341,5.7286,5.7258,5.8478,5.8276,5.703,5.7703,5.791,5.7643,5.7086,5.7331,5.8104,5.8411,5.8442,5.8374,5.9666,5.9465,5.8705,5.2659,5.34,5.4193,5.4741,5.5183,5.5872,5.6821,5.6804,5.6828,5.7309,5.8103,5.8608,5.8608,5.9546,6.0363,6.0806,6.1306,6.1795,6.2539,6.2727,6.2659,6.2495,6.1687,6.1291,6.1542,6.0437,6.001,6.0311,5.9759,5.9483,5.9483,5.9207,5.8905,5.8604,5.8127,5.8052,5.8227,5.7675,5.7273,5.6973,5.7323,5.6947,5.6244,5.6545,5.647,5.6219,5.6219,5.6219,5.6219,5.6438,5.6656,5.6823,5.6637,5.6713,5.6829,5.6609,5.6425,5.6327,5.6275,5.6092,5.5778,5.5229,5.5099,5.5099,5.5099,5.5099,5.5099,5.5099,5.4837,5.4445,5.3922,5.3321,5.2339,5.0559,4.9718,4.851,4.6228,4.5886,4.596,4.6264,4.6865,4.7545,4.8277,4.8904,4.8303,4.5976,4.7716,4.8841,4.8816,5.1782,5.334,5.3027,5.5087,5.6482,5.6972,5.7194,5.7596,5.8176,5.7818,5.7833,5.8126,5.8972,5.8847,5.8148,5.8577,5.894,5.8903,5.7833,5.8178,5.9164,5.8555,5.8462,5.8825,5.9437,5.9338,5.9085,5.2588,5.327,5.4075,5.4771,5.5177,5.577,5.6852,5.6636,5.6708,5.7694,5.8271,5.8632,5.8704,5.9594,6.0194,6.014,6.0798,6.1712,6.2754,6.2745,6.2741,6.2741,6.1843,6.1517,6.1994,6.0989,6.0487,6.0563,5.9935,5.9659,5.9734,5.9583,5.9483,5.9458,5.8554,5.8403,5.8805,5.8252,5.77,5.7198,5.76,5.7148,5.6219,5.6219,5.6219,5.6219,5.6219,5.6219,5.6219,5.6219,5.6438,5.6729,5.6729,5.659,5.6508,5.6147,5.6383,5.6807,5.7294,5.6667,5.5804,5.5334,5.5177,5.5099,5.5099,5.5099,5.5099,5.5099,5.502,5.468,5.3687,5.3373,5.238,4.9636,4.9139,4.8277,4.595,4.5846,4.6578,4.8146,4.8616,4.9584,5.1544,5.1727,5.1152,4.9714,5.2223,5.3218,5.1883,5.5511,5.7068,5.5822,5.715,5.797,5.8152,5.8177,5.8353,5.8854,5.837,5.8459,5.904,5.9191,5.9346,5.948,5.9584,5.9905,6.0325,5.8888,5.9135,6.0305,5.8594,5.85,5.9273,5.9052,5.9159,5.9642,5.2535,5.2987,5.3723,5.5063,5.5385,5.577,5.6852,5.6949,5.7117,5.7742,5.8271,5.8776,5.9209,5.981,6.04,6.0761,6.048,6.0651,6.1687,6.2051,6.2249,6.2249,6.2058,6.1918,6.1994,6.1366,6.1266,6.1743,6.0713,6.0437,6.0889,5.9935,5.9483,5.9483,5.9332,5.9282,5.9332,5.8805,5.8278,5.7725,5.7323,5.6771,5.6219,5.6219,5.6219,5.6219,5.6219,5.6219,5.6219,5.6219,5.6219,5.6292,5.6292,5.6507,5.6543,5.5573,5.5758,5.6306,5.6233,5.604,5.5883,5.5804,5.5438,5.5099,5.5099,5.5099,5.5099,5.5099,5.4707,5.4288,5.4105,5.3295,5.2014,5.008,4.9374,4.8277,4.595,4.6865,4.8068,4.8852,5.0655,5.1962,5.2328,5.2354,5.225,5.1988,5.1988,5.2955,5.5058,5.5841,5.7068,5.8869,5.8863,5.9125,5.9613,5.9236,5.9465,6.0404,6.0706,6.0622,6.0257,6.1122,6.0575,5.8937,5.9429,5.948,5.9071,5.8812,5.9316,6.0232,6.0467,6.0453,6.0363,6.1155,6.0986,6.0608,5.258,5.3188,5.4057,5.5261,5.5422,5.577,5.6852,5.7021,5.7309,5.8127,5.8704,5.9233,5.9762,6.0027,6.0267,6.0508,6.0267,6.0407,6.1066,6.1565,6.2032,6.2495,6.2214,6.1994,6.1994,6.1768,6.1743,6.1994,6.119,6.0763,6.0713,6.0186,5.9784,5.9458,5.8905,5.8956,5.9408,5.8303,5.7851,5.7851,5.7273,5.6696,5.6219,5.6219,5.6219,5.6219,5.6219,5.6219,5.6219,5.6219,5.6219,5.6219,5.6219,5.6163,5.6027,5.5853,5.5828,5.5718,5.5486,5.5674,5.583,5.5543,5.5282,5.5099,5.5099,5.5099,5.5099,5.5099,5.4889,5.4602,5.4262,5.353,5.2511,5.1047,5.008,4.9139,4.8068,4.8616,4.9557,5.0786,5.2145,5.3347,5.4236,5.4079,5.3896,5.3896,5.3922,5.4497,5.583,5.7085,5.8452,5.9877,5.9933,6.002,6.0049,6.0049,6.0404,6.1117,6.0958,6.0898,6.0814,6.1323,6.101,6.0033,6.0293,6.0523,6.0497,5.9773,6.0206,6.1136,6.0575,6.0405,6.0542,6.08,6.0754,6.0704,5.2853,5.3559,5.4402,5.5564,5.5632,5.5914,5.6876,5.7021,5.7405,5.8464,5.8945,5.945,6.0099,6.0171,6.0171,6.0171,6.0075,6.0218,6.0733,6.099,6.1514,6.2634,6.2339,6.2195,6.2195,6.2195,6.2195,6.2195,6.1517,6.0964,6.0512,6.0261,5.9834,5.9282,5.8453,5.8554,5.9232,5.7976,5.76,5.7851,5.7424,5.6821,5.6219,5.6219,5.6219,5.6219,5.6219,5.6219,5.6219,5.6219,5.6219,5.6219,5.6219,5.5917,5.5685,5.6132,5.5816,5.5357,5.5351,5.5669,5.5851,5.5438,5.5282,5.5282,5.5282,5.5203,5.5151,5.5255,5.5282,5.5125,5.4524,5.4079,5.3321,5.1831,5.0864,5.0185,4.9923,5.0237,5.11,5.2694,5.353,5.4497,5.5778,5.5647,5.5438,5.5308,5.5935,5.6327,5.6327,5.8131,5.9418,5.9903,6.0524,6.0737,6.0508,6.0737,6.1117,6.1495,6.1054,6.1022,6.1319,6.1319,6.1241,6.111,6.111,6.1372,6.1711,6.0797,6.1032,6.1894,6.071,6.0483,6.0772,6.0472,6.0547,6.0924,5.3209,5.3787,5.4618,5.5895,5.6125,5.6371,5.6925,5.7021,5.7405,5.8464,5.8632,5.9041,6.0075,6.0171,6.0171,6.0171,5.9738,5.9808,6.0709,6.033,6.0776,6.2142,6.2552,6.2772,6.2772,6.2772,6.2772,6.2772,6.1692,6.1165,6.109,6.0035,5.9282,5.878,5.8704,5.8704,5.878,5.8654,5.8328,5.7901,5.7851,5.7173,5.6219,5.6219,5.6219,5.6219,5.6219,5.6219,5.6219,5.6219,5.6219,5.6219,5.6219,5.6194,5.6043,5.5613,5.532,5.5287,5.6029,5.6262,5.6202,5.5946,5.5857,5.5857,5.5857,5.5465,5.5255,5.5752,5.5857,5.5674,5.5125,5.4994,5.4236,5.1962,5.1518,5.11,5.0054,5.1282,5.2746,5.3922,5.5046,5.5778,5.5909,5.6379,5.6458,5.5883,5.6902,5.7599,5.7599,5.8209,5.8739,5.9094,6.0524,6.1495,6.1898,6.1495,6.1571,6.1973,6.1921,6.1921,6.1894,6.1894,6.1633,6.111,6.111,6.1136,6.1189,6.1084,6.1424,6.1973,6.1868,6.1868,6.1894,6.1846,6.1819,6.1921,5.3762,5.4358,5.5059,5.616,5.6574,5.678,5.6997,5.7285,5.7766,5.8512,5.8608,5.8872,5.9594,5.969,5.9546,5.9233,5.9618,5.9773,5.9481,6.0116,6.1037,6.2167,6.2252,6.232,6.232,6.1994,6.1818,6.1818,6.1391,6.0989,6.0638,6.0211,5.9558,5.8704,5.8353,5.8403,5.8679,5.7976,5.7825,5.8151,5.7872,5.7266,5.6583,5.6583,5.6438,5.6219,5.6219,5.6219,5.6219,5.6219,5.6219,5.6219,5.6219,5.6219,5.6166,5.5854,5.5883,5.6059,5.6341,5.6294,5.6193,5.6098,5.6252,5.6458,5.6458,5.6301,5.6223,5.6432,5.6458,5.6405,5.6196,5.5857,5.5308,5.4419,5.34,5.2668,5.2589,5.3138,5.3844,5.4654,5.5778,5.6615,5.6954,5.719,5.7373,5.7503,5.7948,5.8183,5.8183,5.9072,5.9643,5.9931,6.1106,6.1597,6.1193,6.1571,6.1823,6.1973,6.1973,6.1973,6.1973,6.1973,6.1842,6.1659,6.1659,6.1659,6.1659,6.1659,6.1764,6.1973,6.1973,6.1973,6.1973,6.1973,6.1973,6.1973,5.3985,5.4766,5.5525,5.6446,5.6782,5.7021,5.7021,5.7478,5.8007,5.8536,5.8752,5.9041,5.957,5.9498,5.9305,5.9113,5.945,5.9522,5.9113,6.0179,6.1159,6.1918,6.1789,6.1757,6.1743,6.1391,6.119,6.119,6.0989,6.0713,6.0311,6.0136,5.9583,5.8704,5.8328,5.8378,5.8679,5.7901,5.79,5.835,5.797,5.7534,5.7019,5.7019,5.6729,5.6365,5.6365,5.6292,5.6219,5.6219,5.6219,5.6219,5.6219,5.6219,5.6216,5.6273,5.6433,5.655,5.655,5.665,5.6667,5.6556,5.6712,5.6921,5.7085,5.6928,5.685,5.7033,5.7085,5.7007,5.685,5.6615,5.6327,5.5961,5.4942,5.4314,5.468,5.4916,5.5229,5.583,5.6771,5.7425,5.7704,5.7817,5.8026,5.8235,5.8418,5.8601,5.8758,5.9699,6.0263,6.049,6.1435,6.1646,6.0889,6.1672,6.1973,6.1973,6.1973,6.1973,6.1973,6.1973,6.1973,6.1973,6.1973,6.1973,6.1973,6.1973,6.1973,6.1973,6.1973,6.1973,6.1973,6.1973,6.1973,6.1973,5.4014,5.4981,5.5898,5.6845,5.7021,5.7021,5.7021,5.7454,5.7983,5.8536,5.9041,5.957,6.0099,5.969,5.9594,6.0123,5.9209,5.9041,6.0099,6.0566,6.0905,6.1265,6.1322,6.1235,6.119,6.1165,6.1165,6.1165,6.0588,6.0311,6.0311,5.9759,5.9207,5.873,5.873,5.873,5.873,5.873,5.8631,5.8375,5.8375,5.8012,5.7379,5.7379,5.7163,5.6801,5.6801,5.6583,5.6219,5.6219,5.6219,5.6219,5.6219,5.6219,5.6292,5.6656,5.6801,5.6801,5.6801,5.7379,5.7798,5.7228,5.7099,5.724,5.759,5.7242,5.6981,5.7556,5.773,5.7503,5.6928,5.7268,5.7268,5.6092,5.5909,5.5909,5.5909,5.6432,5.7033,5.7651,5.8157,5.8287,5.7782,5.8183,5.8287,5.7782,5.8209,5.8758,5.9333,5.9908,6.0289,6.049,6.1435,6.1823,6.142,6.1823,6.1973,6.1973,6.1973,6.1973,6.1973,6.1973,6.1973,6.1973,6.1973,6.1973,6.1973,6.1973,6.1973,6.1973,6.1973,6.1973,6.1973,6.1973,6.1973,6.1973,5.5,5.5706,5.6351,5.6917,5.7021,5.7021,5.7021,5.7165,5.7574,5.8488,5.8416,5.8488,5.9017,5.9257,5.9161,5.856,5.8897,5.9281,5.9594,5.9447,5.9404,5.9805,6.0428,6.0582,6.0193,6.0054,6.001,6.001,5.9834,5.9734,5.9734,5.9558,5.9207,5.873,5.873,5.873,5.873,5.873,5.8757,5.8848,5.8848,5.8379,5.7713,5.7713,5.7523,5.7286,5.767,5.7506,5.7215,5.7668,5.7597,5.7399,5.7399,5.7399,5.7473,5.782,5.7894,5.7894,5.7894,5.8116,5.8111,5.755,5.7857,5.829,5.8459,5.8615,5.8661,5.8321,5.8575,5.8679,5.8104,5.8157,5.7869,5.6719,5.6876,5.685,5.604,5.6771,5.7477,5.7704,5.8157,5.8444,5.8287,5.8418,5.8444,5.8261,5.8784,5.9176,5.9359,6.03,6.0706,6.0516,6.1435,6.1823,6.142,6.1823,6.1973,6.1973,6.1973,6.1973,6.1973,6.1973,6.1973,6.1973,6.1973,6.1973,6.1973,6.1973,6.1973,6.1973,6.1973,6.1973,6.1973,6.1973,6.1973,6.1973,5.5198,5.5913,5.6463,5.6917,5.7021,5.7021,5.7021,5.7189,5.7574,5.8199,5.8199,5.8319,5.8848,5.8824,5.8752,5.8752,5.9137,5.9209,5.8776,5.8656,5.8569,5.862,5.9323,5.9613,5.9384,5.927,5.9328,5.9483,5.9483,5.9483,5.9483,5.9483,5.9332,5.9031,5.9031,5.9031,5.9031,5.9031,5.9085,5.9105,5.9329,5.9061,5.8574,5.8485,5.8419,5.8362,5.844,5.8328,5.819,5.8169,5.7923,5.76,5.7826,5.8051,5.8176,5.8326,5.8525,5.8625,5.845,5.8525,5.8499,5.81,5.8368,5.8705,5.8852,5.923,5.9502,5.9045,5.9209,5.9255,5.8915,5.8653,5.8287,5.7608,5.7765,5.7739,5.7033,5.7556,5.8,5.8,5.8314,5.8601,5.8836,5.8653,5.8601,5.8836,5.8967,5.9333,6.0013,6.0509,6.0832,6.1051,6.1715,6.2002,6.1908,6.2002,6.1973,6.1973,6.1973,6.1973,6.1973,6.1973,6.1973,6.1973,6.1973,6.1973,6.1973,6.1973,6.1973,6.1973,6.1973,6.1973,6.1973,6.1973,6.1973,6.1973,5.4774,5.5644,5.6365,5.6876,5.6997,5.6997,5.6949,5.7405,5.7766,5.7862,5.8295,5.88,5.9329,5.8536,5.8512,5.9907,5.9594,5.8897,5.7886,5.8271,5.8319,5.7838,5.8088,5.846,5.8809,5.8887,5.912,5.9483,5.9483,5.9483,5.9483,5.9483,5.9483,5.9483,5.9483,5.9483,5.9483,5.9483,5.9437,5.9338,5.9691,5.9707,5.9558,5.9429,5.956,5.9657,5.9165,5.9127,5.9071,5.8192,5.7645,5.7349,5.7876,5.8328,5.8602,5.8528,5.8827,5.905,5.8602,5.8752,5.9029,5.8807,5.8631,5.8602,5.8925,5.937,5.9666,5.9636,5.9539,5.9516,5.9437,5.9019,5.8653,5.8601,5.8627,5.8653,5.8601,5.8627,5.8653,5.8653,5.8627,5.881,5.9385,5.8967,5.8862,5.9333,5.8941,5.9359,6.0953,6.0561,6.0823,6.1921,6.1973,6.2208,6.2731,6.2234,6.1999,6.2051,6.1999,6.1973,6.1973,6.2025,6.2025,6.1973,6.2025,6.2025,6.1973,6.1973,6.1973,6.1973,6.2025,6.2025,6.1973,6.2025,6.2025,6.1973,5.4915,5.5691,5.6359,5.6389,5.6756,5.6876,5.6468,5.6852,5.7478,5.8319,5.8536,5.88,5.9329,5.9185,5.9017,5.8945,5.8824,5.8488,5.7838,5.7911,5.7935,5.7814,5.7486,5.7698,5.8364,5.8731,5.912,5.9483,5.9483,5.9483,5.9483,5.9483,5.9483,5.9483,5.9483,5.9483,5.9483,5.9483,5.9437,5.9338,5.9414,5.9284,5.9193,5.9407,5.958,5.9687,6.0393,6.0453,6.0137,5.9718,5.9516,5.9363,5.9183,5.9233,5.9285,5.931,5.9515,5.9744,5.9362,5.954,5.9795,5.9461,5.9309,5.9261,5.9211,5.9894,6.0272,5.9717,6.0189,6.0588,6.0117,5.9934,5.9699,5.9255,5.9568,5.9699,5.9255,5.9568,5.9856,5.9856,5.9464,5.9411,5.9986,5.9934,5.9725,5.9385,5.9673,6.0013,6.0378,6.0744,6.1241,6.1947,6.1973,6.2025,6.2156,6.2025,6.2182,6.2626,6.2182,6.1973,6.1973,6.2443,6.2391,6.1999,6.2443,6.2391,6.1973,6.1973,6.1973,6.2025,6.2469,6.2365,6.2025,6.2469,6.2365,6.1973,5.4948,5.5791,5.639,5.6264,5.6693,5.6925,5.666,5.6852,5.7213,5.7766,5.7838,5.8151,5.8921,5.856,5.8151,5.7862,5.8079,5.8007,5.7478,5.767,5.7814,5.7814,5.779,5.8048,5.8704,5.9163,5.9409,5.9483,5.9483,5.9483,5.9483,5.9483,5.9483,5.9483,5.9483,5.9483,5.9483,5.9483,5.9486,5.9388,5.9795,5.992,5.984,6.0153,6.0501,6.0762,6.1036,6.0739,6.0219,6.0329,5.9947,5.9489,5.9485,5.9637,5.974,5.9585,5.9792,6.0048,5.9792,5.9971,6.0125,6.0125,6.0048,5.9972,5.9515,6.0049,6.0557,6.0193,6.0639,6.1032,6.0718,6.064,6.0561,6.0248,6.0457,6.0535,6.0248,5.9986,5.9908,6.0195,5.9725,5.9594,6.0169,6.0483,6.0405,5.9803,6.0039,6.0352,6.064,6.0953,6.1398,6.1947,6.1973,6.2104,6.2365,6.2104,6.2391,6.3227,6.2652,6.2391,6.2391,6.2966,6.2914,6.2391,6.2705,6.2652,6.2365,6.2077,6.213,6.2391,6.2417,6.2391,6.2391,6.2417,6.2234,6.1973,5.4882,5.5587,5.6197,5.6103,5.6574,5.6837,5.6741,5.6893,5.7045,5.7141,5.7165,5.7526,5.8488,5.7742,5.7165,5.7165,5.755,5.767,5.7309,5.7694,5.7935,5.7935,5.8367,5.8798,5.9085,5.9607,5.9766,5.9431,5.9583,5.9583,5.9405,5.9508,5.9483,5.9483,5.9483,5.9483,5.9483,5.9483,5.9585,5.9637,6.0278,6.0584,6.0685,6.0927,6.1331,6.1744,6.135,6.082,6.0272,6.0583,5.9973,5.9262,5.9637,5.997,6.015,6.0044,6.02,6.0303,6.038,6.0329,6.0355,6.066,6.0737,6.0533,5.9995,6.0405,6.0992,6.1095,6.1342,6.1555,6.1555,6.1555,6.1529,6.1424,6.1398,6.1372,6.1293,6.0431,5.9986,6.0457,6.0091,5.996,6.0326,6.0927,6.098,6.0274,6.0326,6.0535,6.0953,6.1058,6.1398,6.1947,6.1973,6.2208,6.2679,6.2313,6.2652,6.3672,6.3306,6.3071,6.2992,6.3567,6.3515,6.2966,6.3071,6.3071,6.294,6.2443,6.2496,6.2809,6.2522,6.2522,6.2626,6.213,6.2048,6.2123,5.4406,5.4846,5.5251,5.5104,5.5833,5.6319,5.5843,5.647,5.7189,5.7646,5.7694,5.7935,5.8536,5.8055,5.7694,5.7694,5.7766,5.7983,5.8367,5.844,5.8488,5.8488,5.856,5.8805,5.922,5.9617,5.9607,5.894,5.9804,5.9804,5.8965,5.9353,5.9483,5.9483,5.9483,5.9483,5.9483,5.9483,5.9714,5.9971,5.9714,6.0125,6.0737,6.0736,6.0812,6.0965,6.1643,6.1793,6.1643,6.0939,6.0837,6.1041,6.0838,6.0762,6.0763,6.176,6.166,6.122,6.1403,6.1325,6.1117,6.0813,6.0737,6.0788,6.1198,6.1685,6.2147,6.2664,6.3077,6.3332,6.3332,6.3332,6.3175,6.2679,6.26,6.2417,6.1921,6.1711,6.1659,6.1738,6.1659,6.145,6.1032,6.1529,6.1398,6.03,6.0692,6.0797,6.0378,6.0849,6.1398,6.1947,6.1973,6.1999,6.2077,6.2496,6.3045,6.3672,6.409,6.4038,6.3593,6.4142,6.409,6.3593,6.409,6.4012,6.3541,6.3489,6.3201,6.2914,6.3829,6.3332,6.2077,6.1999,6.2198,6.2448,5.4015,5.4349,5.4567,5.419,5.4939,5.562,5.5621,5.6208,5.6797,5.7253,5.7357,5.7574,5.8103,5.7959,5.7694,5.7381,5.7357,5.7598,5.8127,5.844,5.8848,5.945,5.9762,6.0036,6.0053,6.0865,6.0653,5.9489,6.0372,6.0434,5.9726,5.9882,5.9784,5.9483,5.9714,5.9817,5.9894,6.0048,6.0278,6.0431,6.0508,6.0813,6.1117,6.1344,6.1445,6.1495,6.1898,6.1672,6.1268,6.1117,6.0889,6.0712,6.0814,6.0635,6.0584,6.171,6.1762,6.1633,6.2303,6.2354,6.225,6.199,6.2145,6.2456,6.2689,6.3155,6.3441,6.3182,6.3389,6.3672,6.3672,6.3933,6.3959,6.3384,6.3306,6.3097,6.2522,6.1894,6.1372,6.1032,6.1581,6.1607,6.0718,6.1136,6.1136,6.0274,6.0771,6.1006,6.0744,6.1267,6.1868,6.2443,6.2443,6.26,6.2914,6.3175,6.3747,6.4556,6.4819,6.4637,6.4168,6.443,6.4404,6.4142,6.409,6.409,6.4116,6.3803,6.3724,6.3776,6.362,6.3066,6.24,6.2914,6.3244,6.3372]}]]